[[{"header":{"parameterUnit":"m.s-1","parameterCategory":1,"la1":30.6,"la2":29.2853,"lo1":-89.7004,"lo2":-87.6739,"dx":0.0162,"dy":0.0183,"nx":112,"ny":82,"refTime":"2023-02-05T06:00:00:Z","depth":0,"parameterNumber":2,"parameterNumberName":"U-component_of_WINDS"},"data":[0.0,0.0,0.0,0.0,0.0,0.0,0.0,0.0,0.0,0.0,0.0,0.0,0.0,0.0,0.0,0.0,0.0,0.0,0.0,0.0,0.0,0.0,0.0,0.0,0.0,0.0,0.0,0.0,0.0,0.0,0.0,0.0,0.0,0.0,0.0,0.0,0.0,0.0,0.0,0.0,0.0,0.0,0.0,0.0,0.0,0.0,0.0,0.0,0.0,0.0,0.0,0.0,0.0,0.0,0.0,0.0,0.0,0.0,0.0,0.0,0.0,0.0,0.0,0.0,0.0,0.0,0.0,0.0,0.0,0.0,0.0,0.0,0.0,0.0,0.0,0.0,0.0,0.0,0.0,0.0,0.0,0.0,0.0,0.0,0.0,0.0,0.0,0.0,0.0,0.0,-1.9476,-2.018,-2.0307,-2.0307,-2.0307,-1.9853,-1.9474,-1.9193,0.0,0.0,0.0,0.0,0.0,0.0,0.0,0.0,0.0,0.0,0.0,0.0,0.0,0.0,0.0,0.0,0.0,0.0,0.0,0.0,0.0,0.0,0.0,0.0,0.0,0.0,0.0,0.0,0.0,0.0,0.0,0.0,0.0,0.0,0.0,0.0,0.0,0.0,0.0,0.0,0.0,0.0,0.0,0.0,0.0,0.0,0.0,0.0,0.0,0.0,0.0,0.0,0.0,0.0,0.0,0.0,0.0,0.0,0.0,0.0,0.0,0.0,0.0,0.0,0.0,0.0,0.0,0.0,0.0,0.0,0.0,0.0,0.0,0.0,0.0,0.0,0.0,0.0,0.0,0.0,0.0,0.0,0.0,0.0,0.0,0.0,0.0,0.0,0.0,0.0,0.0,0.0,0.0,0.0,0.0,0.0,0.0,0.0,0.0,0.0,0.0,0.0,0.0,0.0,-1.8781,-2.0425,-2.0615,-2.0615,-2.0615,-2.0521,-1.9828,-1.8235,0.0,0.0,0.0,0.0,0.0,0.0,0.0,0.0,0.0,0.0,0.0,0.0,0.0,0.0,0.0,0.0,0.0,0.0,0.0,0.0,0.0,0.0,0.0,0.0,0.0,0.0,0.0,0.0,0.0,0.0,0.0,0.0,0.0,0.0,0.0,0.0,0.0,0.0,0.0,0.0,0.0,0.0,0.0,0.0,0.0,0.0,0.0,0.0,0.0,0.0,0.0,0.0,0.0,0.0,0.0,0.0,0.0,0.0,0.0,0.0,0.0,0.0,0.0,0.0,0.0,0.0,0.0,0.0,0.0,0.0,0.0,0.0,0.0,0.0,0.0,0.0,0.0,0.0,0.0,0.0,0.0,0.0,0.0,0.0,0.0,0.0,0.0,0.0,0.0,0.0,0.0,0.0,0.0,0.0,0.0,0.0,0.0,0.0,0.0,0.0,0.0,0.0,0.0,-1.8832,-1.8877,-2.0518,-2.0681,-2.0681,-2.0681,-2.0535,-1.9694,-1.7985,-1.9146,0.0,0.0,0.0,0.0,0.0,0.0,0.0,0.0,0.0,0.0,0.0,0.0,0.0,0.0,0.0,0.0,0.0,0.0,0.0,0.0,0.0,0.0,0.0,0.0,0.0,0.0,0.0,0.0,0.0,0.0,0.0,0.0,0.0,0.0,0.0,0.0,0.0,0.0,0.0,0.0,0.0,0.0,0.0,0.0,0.0,0.0,0.0,0.0,0.0,0.0,0.0,0.0,0.0,0.0,0.0,0.0,0.0,0.0,0.0,0.0,0.0,0.0,0.0,0.0,0.0,0.0,0.0,0.0,0.0,0.0,0.0,0.0,0.0,0.0,0.0,0.0,0.0,0.0,0.0,0.0,0.0,0.0,0.0,0.0,0.0,0.0,0.0,0.0,0.0,0.0,0.0,0.0,0.0,0.0,0.0,0.0,0.0,0.0,0.0,0.0,0.0,0.0,-1.8298,-1.8548,-1.9688,-1.9826,-1.9826,-1.9826,-1.9496,-1.8814,-1.767,-1.897,0.0,0.0,0.0,0.0,0.0,0.0,0.0,0.0,0.0,0.0,0.0,0.0,0.0,0.0,0.0,0.0,0.0,0.0,0.0,0.0,0.0,0.0,0.0,0.0,0.0,0.0,0.0,0.0,0.0,0.0,0.0,0.0,0.0,0.0,0.0,0.0,0.0,0.0,0.0,0.0,0.0,0.0,0.0,0.0,0.0,0.0,0.0,0.0,0.0,0.0,0.0,0.0,0.0,0.0,0.0,0.0,0.0,0.0,0.0,0.0,0.0,0.0,0.0,0.0,0.0,0.0,0.0,0.0,0.0,0.0,0.0,0.0,0.0,0.0,0.0,0.0,0.0,0.0,0.0,0.0,0.0,0.0,0.0,0.0,0.0,0.0,0.0,0.0,0.0,0.0,0.0,0.0,0.0,0.0,0.0,0.0,0.0,0.0,0.0,0.0,0.0,0.0,-1.5846,-1.6763,-1.7248,-1.7269,-1.7269,-1.7269,-1.6923,-1.677,-1.6749,-1.7754,0.0,0.0,0.0,0.0,0.0,0.0,0.0,0.0,0.0,0.0,0.0,0.0,0.0,0.0,0.0,0.0,0.0,0.0,0.0,0.0,0.0,0.0,0.0,0.0,0.0,0.0,0.0,0.0,0.0,0.0,0.0,0.0,0.0,0.0,0.0,0.0,0.0,0.0,0.0,0.0,0.0,0.0,0.0,0.0,0.0,0.0,0.0,0.0,0.0,0.0,0.0,0.0,0.0,0.0,0.0,0.0,0.0,0.0,0.0,0.0,0.0,0.0,0.0,0.0,0.0,0.0,0.0,0.0,0.0,0.0,0.0,0.0,0.0,0.0,0.0,0.0,0.0,0.0,0.0,0.0,0.0,0.0,0.0,0.0,0.0,0.0,0.0,0.0,0.0,0.0,0.0,0.0,0.0,0.0,0.0,0.0,0.0,0.0,0.0,0.0,0.0,0.0,-1.765,-1.8418,-1.9419,-1.9559,-1.9559,-1.9559,-1.946,-1.8629,-1.6803,0.0,0.0,0.0,0.0,0.0,0.0,0.0,0.0,0.0,0.0,0.0,0.0,0.0,0.0,0.0,0.0,0.0,0.0,0.0,0.0,0.0,0.0,0.0,0.0,0.0,0.0,0.0,0.0,0.0,0.0,0.0,0.0,0.0,0.0,0.0,0.0,0.0,0.0,0.0,0.0,0.0,0.0,0.0,0.0,0.0,0.0,0.0,0.0,0.0,0.0,0.0,0.0,0.0,0.0,0.0,0.0,0.0,0.0,0.0,0.0,0.0,0.0,0.0,0.0,0.0,0.0,0.0,0.0,0.0,0.0,0.0,0.0,0.0,0.0,0.0,0.0,0.0,0.0,0.0,0.0,0.0,0.0,0.0,0.0,0.0,0.0,0.0,0.0,0.0,0.0,0.0,0.0,0.0,0.0,0.0,0.0,0.0,0.0,0.0,0.0,0.0,0.0,-1.6646,-1.7277,-1.7871,-1.8396,-1.846,-1.8652,-1.91,-1.91,-1.8442,-1.6859,0.0,0.0,0.0,0.0,0.0,0.0,0.0,0.0,0.0,0.0,0.0,0.0,0.0,0.0,0.0,0.0,0.0,0.0,0.0,0.0,0.0,0.0,0.0,0.0,0.0,0.0,0.0,0.0,0.0,0.0,0.0,0.0,0.0,0.0,0.0,0.0,0.0,0.0,0.0,0.0,0.0,0.0,0.0,0.0,0.0,0.0,0.0,0.0,0.0,0.0,0.0,0.0,0.0,0.0,0.0,0.0,0.0,0.0,0.0,0.0,0.0,0.0,0.0,0.0,0.0,0.0,0.0,0.0,0.0,0.0,0.0,0.0,0.0,0.0,0.0,0.0,0.0,0.0,0.0,0.0,0.0,0.0,0.0,0.0,0.0,0.0,0.0,0.0,0.0,0.0,0.0,0.0,0.0,0.0,0.0,0.0,0.0,0.0,0.0,0.0,0.0,0.0,-1.2847,-1.4012,-1.4455,-1.303,-1.2898,-1.3481,-1.4847,-1.4977,-1.5554,0.0,0.0,0.0,0.0,0.0,0.0,0.0,0.0,0.0,0.0,0.0,0.0,0.0,0.0,0.0,0.0,0.0,0.0,0.0,0.0,0.0,0.0,0.0,0.0,0.0,0.0,0.0,0.0,0.0,0.0,0.0,0.0,0.0,0.0,0.0,0.0,0.0,0.0,0.0,0.0,0.0,0.0,0.0,0.0,0.0,0.0,0.0,0.0,0.0,0.0,0.0,0.0,0.0,0.0,0.0,0.0,0.0,0.0,0.0,0.0,0.0,0.0,0.0,0.0,0.0,0.0,0.0,0.0,0.0,0.0,0.0,0.0,0.0,0.0,0.0,0.0,0.0,0.0,0.0,0.0,0.0,0.0,0.0,0.0,0.0,0.0,0.0,0.0,0.0,0.0,0.0,0.0,0.0,0.0,0.0,0.0,0.0,0.0,0.0,0.0,0.0,0.0,0.0,-1.5788,-1.7772,-1.91,-1.8716,-1.8652,-1.8844,-1.9228,-1.9291,-1.9036,-1.846,0.0,0.0,0.0,0.0,0.0,0.0,0.0,0.0,0.0,0.0,0.0,0.0,0.0,0.0,0.0,0.0,0.0,0.0,0.0,0.0,0.0,0.0,0.0,0.0,0.0,0.0,0.0,0.0,0.0,0.0,0.0,0.0,0.0,0.0,0.0,0.0,0.0,0.0,0.0,0.0,0.0,0.0,0.0,0.0,0.0,0.0,0.0,0.0,0.0,0.0,0.0,0.0,0.0,0.0,0.0,0.0,0.0,0.0,0.0,0.0,0.0,0.0,0.0,0.0,0.0,0.0,0.0,0.0,0.0,0.0,0.0,0.0,0.0,0.0,0.0,0.0,0.0,0.0,0.0,0.0,0.0,0.0,0.0,0.0,0.0,0.0,0.0,0.0,0.0,0.0,0.0,0.0,0.0,0.0,0.0,0.0,0.0,0.0,0.0,0.0,0.0,0.0,-1.5424,-1.7238,-1.8396,-1.7882,-1.7818,-1.8011,-1.8588,-1.9164,-1.91,-1.8267,0.0,0.0,0.0,0.0,0.0,0.0,0.0,0.0,0.0,0.0,0.0,0.0,0.0,0.0,0.0,0.0,0.0,0.0,0.0,0.0,0.0,0.0,0.0,0.0,0.0,0.0,0.0,0.0,0.0,0.0,0.0,0.0,0.0,0.0,0.0,0.0,0.0,0.0,0.0,0.0,0.0,0.0,0.0,0.0,0.0,0.0,0.0,0.0,0.0,0.0,0.0,0.0,0.0,0.0,0.0,0.0,0.0,0.0,0.0,0.0,0.0,0.0,0.0,0.0,0.0,0.0,0.0,0.0,0.0,0.0,0.0,0.0,0.0,0.0,0.0,0.0,0.0,0.0,0.0,0.0,0.0,0.0,0.0,0.0,0.0,0.0,0.0,0.0,0.0,0.0,0.0,0.0,0.0,0.0,0.0,0.0,0.0,0.0,0.0,0.0,0.0,0.0,-1.3358,-1.4324,-1.4716,-1.3678,-1.3416,-1.394,-1.5359,-1.6656,-1.7367,-1.7367,0.0,0.0,0.0,0.0,0.0,0.0,0.0,0.0,0.0,0.0,0.0,0.0,0.0,0.0,0.0,0.0,0.0,0.0,0.0,0.0,0.0,0.0,0.0,0.0,0.0,0.0,0.0,0.0,0.0,0.0,0.0,0.0,0.0,0.0,0.0,0.0,0.0,0.0,0.0,0.0,0.0,0.0,0.0,0.0,0.0,0.0,0.0,0.0,0.0,0.0,0.0,0.0,0.0,0.0,0.0,0.0,0.0,0.0,0.0,0.0,-1.5183,-1.4518,0.0,0.0,0.0,0.0,0.0,0.0,0.0,0.0,0.0,0.0,0.0,0.0,0.0,0.0,0.0,0.0,0.0,0.0,0.0,0.0,0.0,0.0,0.0,0.0,0.0,0.0,0.0,0.0,0.0,0.0,0.0,0.0,0.0,0.0,0.0,0.0,0.0,0.0,0.0,0.0,-1.6009,-1.6398,-1.7302,-1.91,-1.8332,-1.8267,-1.9686,-2.0081,-2.0208,-2.0208,-2.0208,0.0,0.0,0.0,0.0,0.0,0.0,0.0,0.0,0.0,0.0,0.0,0.0,0.0,0.0,0.0,0.0,0.0,0.0,0.0,0.0,0.0,0.0,0.0,0.0,0.0,0.0,0.0,0.0,0.0,0.0,0.0,0.0,0.0,0.0,0.0,0.0,0.0,0.0,0.0,0.0,0.0,0.0,0.0,0.0,0.0,0.0,0.0,0.0,0.0,0.0,0.0,0.0,0.0,0.0,0.0,0.0,0.0,0.0,0.0,-1.443,-1.3954,0.0,0.0,0.0,0.0,0.0,0.0,0.0,0.0,0.0,0.0,0.0,0.0,0.0,0.0,0.0,0.0,0.0,0.0,0.0,0.0,0.0,0.0,0.0,0.0,0.0,0.0,0.0,0.0,0.0,0.0,0.0,0.0,0.0,0.0,0.0,0.0,0.0,0.0,0.0,0.0,-1.4912,-1.4977,-1.5554,-1.6969,-1.7033,-1.7356,-1.8075,-1.9355,-2.0068,-2.0068,-2.0068,0.0,0.0,0.0,0.0,0.0,0.0,0.0,0.0,0.0,0.0,0.0,0.0,0.0,0.0,0.0,0.0,0.0,0.0,0.0,0.0,0.0,0.0,0.0,0.0,0.0,0.0,0.0,0.0,0.0,0.0,0.0,0.0,0.0,0.0,0.0,0.0,0.0,0.0,0.0,0.0,0.0,0.0,0.0,0.0,0.0,0.0,0.0,0.0,0.0,0.0,0.0,0.0,0.0,-1.4752,-1.4852,-1.4851,-1.4703,-1.4684,-1.4789,-1.4635,-1.4538,-1.4473,-1.4326,0.0,0.0,0.0,0.0,0.0,0.0,0.0,0.0,0.0,0.0,0.0,0.0,0.0,0.0,0.0,0.0,0.0,0.0,0.0,0.0,0.0,0.0,-1.6591,-1.5547,-1.6384,-1.7217,-1.673,0.0,0.0,0.0,0.0,0.0,0.0,0.0,0.0,0.0,0.0,0.0,-1.3481,-1.3547,-1.3744,-1.4193,-1.5043,-1.5684,-1.5944,-1.8075,-1.9367,-1.9367,-1.9367,-1.9554,0.0,0.0,0.0,0.0,0.0,0.0,0.0,0.0,0.0,0.0,0.0,0.0,0.0,0.0,0.0,0.0,0.0,0.0,0.0,0.0,0.0,0.0,0.0,0.0,0.0,0.0,0.0,0.0,0.0,0.0,0.0,0.0,-2.1668,-2.1897,0.0,0.0,0.0,0.0,0.0,0.0,0.0,0.0,0.0,0.0,0.0,0.0,0.0,-1.4164,-1.4213,-1.5647,-1.6536,-1.6935,-1.683,-1.7033,-1.7355,-1.5979,-1.5301,-1.5163,-1.5147,0.0,-1.4667,-1.4643,0.0,0.0,0.0,0.0,0.0,0.0,0.0,0.0,0.0,0.0,0.0,0.0,0.0,0.0,0.0,0.0,0.0,0.0,0.0,0.0,0.0,0.0,-1.6638,-1.6646,-1.6776,-1.6921,-1.6663,-1.6458,-1.6259,-1.5871,-1.5806,-1.5732,0.0,0.0,0.0,0.0,0.0,0.0,-1.6268,-1.6462,-1.7367,-1.975,-1.91,-1.8972,-2.0208,-2.0589,-2.0843,-2.0843,-2.0843,-2.0975,-2.1343,-2.1291,0.0,0.0,0.0,0.0,0.0,0.0,0.0,0.0,0.0,0.0,0.0,0.0,0.0,0.0,0.0,0.0,0.0,0.0,0.0,0.0,0.0,0.0,0.0,0.0,0.0,0.0,0.0,0.0,0.0,-2.0514,-2.1241,-1.9754,-1.9658,-1.9435,0.0,0.0,0.0,0.0,0.0,0.0,0.0,0.0,0.0,-1.4196,-1.4383,-1.4521,-1.4619,-1.5582,-1.606,-1.6198,-1.6441,-1.6632,-1.6684,-1.598,-1.5618,-1.5536,-1.5439,-1.5244,-1.4992,-1.4789,-1.4619,-1.4473,0.0,0.0,0.0,0.0,-1.4586,-1.4603,-1.47,-1.4732,-1.4732,-1.4732,0.0,0.0,0.0,0.0,0.0,0.0,0.0,-1.3985,-1.4335,-1.4807,-1.5296,-1.548,-1.5523,-1.5471,-1.5296,-1.5958,-1.6437,-1.6136,-1.6079,-1.6084,-1.5946,-1.5969,0.0,0.0,0.0,-1.6216,-1.5834,-1.6527,-1.7173,-1.756,-1.846,-1.9228,-1.9877,-2.0652,-2.1109,-2.1109,-2.1109,-2.1309,-2.1777,-2.179,-2.1937,0.0,0.0,0.0,0.0,0.0,0.0,0.0,0.0,0.0,0.0,0.0,0.0,0.0,0.0,0.0,0.0,0.0,0.0,0.0,0.0,0.0,0.0,0.0,0.0,0.0,0.0,0.0,0.0,-1.9537,-2.0172,-1.8026,-1.8407,-1.8396,0.0,0.0,0.0,0.0,0.0,0.0,-1.4026,-1.4302,-1.4505,-1.4635,-1.4862,-1.5041,-1.5171,-1.5488,-1.5601,-1.5512,-1.5918,-1.6064,-1.5975,-1.5975,-1.5926,-1.5837,-1.5707,-1.552,-1.5285,-1.4976,-1.4789,-1.47,-1.4603,-1.4538,-1.4521,-1.4708,-1.4773,-1.4789,-1.4919,-1.4968,-1.4968,-1.4968,-1.4903,-1.4806,-1.4676,0.0,0.0,0.0,0.0,-1.3977,-1.4286,-1.4237,-1.414,-1.427,-1.4294,-1.4261,-1.4131,-1.5318,-1.6258,-1.6108,-1.6079,-1.6103,-1.5942,-1.6837,0.0,-1.5481,-1.6761,-1.7435,-1.6104,-1.7217,-1.7779,-1.6741,-1.8425,-1.9658,-1.9658,-2.0565,-2.1149,-2.1216,-2.1229,-2.1483,-2.2071,-2.2098,-2.2231,-2.2525,0.0,0.0,0.0,0.0,0.0,0.0,0.0,0.0,0.0,0.0,0.0,0.0,0.0,0.0,0.0,0.0,0.0,0.0,0.0,0.0,0.0,0.0,0.0,0.0,0.0,0.0,0.0,0.0,0.0,-1.7914,-1.6861,0.0,0.0,0.0,0.0,-1.3481,-1.3763,-1.4042,-1.4383,-1.4903,-1.5109,-1.5195,-1.5536,-1.5723,-1.5731,-1.5926,-1.6097,-1.6251,-1.6276,-1.6381,-1.6544,-1.6544,-1.6357,-1.595,-1.5942,-1.5821,-1.5488,-1.5293,-1.5017,-1.4724,-1.4879,-1.4838,-1.4716,-1.4887,-1.4952,-1.4952,-1.496,-1.4968,-1.4968,-1.4968,-1.4732,-1.4456,-1.4448,-1.4196,0.0,0.0,-1.4042,-1.3945,-1.414,-1.4058,-1.392,-1.3928,-1.3928,-1.392,-1.3912,-1.5044,-1.6098,-1.6089,-1.6079,-1.6079,-1.607,0.0,-1.5901,-1.5477,-1.7663,-1.9273,-1.888,-2.031,-2.133,-2.1265,-2.1394,-2.1459,-2.1459,-2.1269,-2.1229,-2.1574,-2.1601,-2.179,-2.2378,-2.2392,-2.2539,-2.2901,-2.2928,0.0,0.0,0.0,0.0,0.0,0.0,0.0,0.0,0.0,0.0,0.0,0.0,0.0,0.0,0.0,0.0,0.0,0.0,0.0,0.0,0.0,0.0,0.0,0.0,0.0,0.0,0.0,0.0,-1.5523,-1.5951,0.0,-1.4811,-1.4181,-1.3969,-1.4213,-1.4562,-1.4871,-1.5114,-1.5415,-1.5634,-1.5675,-1.5991,-1.617,-1.6292,-1.647,-1.6515,-1.6657,-1.6771,-1.686,-1.6917,-1.6803,-1.669,-1.6475,-1.6438,-1.6186,-1.5853,-1.5707,-1.5553,-1.5236,-1.5293,-1.5285,-1.5236,-1.5301,-1.5244,-1.5139,-1.5139,-1.5065,-1.4968,-1.4968,-1.4806,-1.4586,-1.4464,-1.427,-1.4091,-1.4156,-1.4042,-1.3945,-1.4131,-1.4042,-1.3904,-1.3904,-1.4608,-1.531,-1.531,-1.5735,-1.6362,-1.7409,-1.832,-1.9019,-1.9019,-1.9785,-1.9977,-1.8698,-1.999,-2.0653,-1.9455,-2.0631,-2.1227,-2.0358,-2.1084,-2.1614,-2.1614,-2.1283,-2.1229,-2.1601,-2.1614,-2.1817,-2.2392,-2.2418,-2.2645,-2.3153,-2.2966,-2.2966,0.0,0.0,0.0,0.0,0.0,0.0,0.0,0.0,0.0,0.0,0.0,0.0,0.0,0.0,0.0,0.0,0.0,0.0,0.0,0.0,0.0,0.0,0.0,0.0,0.0,-1.5607,-1.6243,-1.4382,-1.5432,-1.5873,-1.4694,-1.4611,-1.4716,-1.496,-1.5252,-1.5528,-1.5772,-1.6008,-1.6194,-1.6232,-1.6487,-1.6633,-1.6755,-1.6877,-1.6942,-1.6942,-1.7055,-1.7112,-1.7104,-1.699,-1.6822,-1.6758,-1.6722,-1.6503,-1.6219,-1.6162,-1.5991,-1.5764,-1.5585,-1.5512,-1.5512,-1.5512,-1.5398,-1.515,-1.5171,-1.5065,-1.4968,-1.4968,-1.4846,-1.4684,-1.4562,-1.4359,-1.418,-1.418,-1.4091,-1.401,-1.4066,-1.4042,-1.3977,-1.3912,-1.4731,-1.5604,-1.6028,-1.6561,-1.743,-1.889,-1.9089,-1.9228,-1.9785,-2.1113,-2.1508,-1.9722,-2.0961,-2.1489,-1.9813,-2.0914,-2.1503,-2.057,-2.1306,-2.1844,-2.1844,-2.1577,-2.1537,-2.183,-2.1975,-2.2256,-2.2755,-2.2768,-2.3011,-2.3523,-2.3289,-2.3273,-2.3474,0.0,0.0,0.0,0.0,0.0,0.0,0.0,0.0,0.0,0.0,0.0,0.0,0.0,0.0,0.0,0.0,0.0,0.0,0.0,0.0,0.0,0.0,0.0,-1.545,-1.4983,-1.4538,-1.4716,-1.5212,-1.5398,-1.5041,-1.5009,-1.5163,-1.552,-1.5715,-1.5967,-1.6308,-1.6665,-1.6774,-1.6774,-1.7023,-1.7112,-1.7112,-1.7112,-1.7112,-1.7112,-1.7112,-1.7112,-1.7112,-1.7112,-1.7015,-1.6774,-1.6774,-1.6755,-1.6576,-1.6397,-1.6316,-1.6251,-1.5731,-1.5536,-1.5528,-1.5528,-1.5407,-1.5212,-1.5025,-1.4968,-1.4968,-1.4968,-1.4846,-1.4708,-1.4708,-1.4464,-1.4188,-1.418,-1.418,-1.414,-1.3953,-1.4114,-1.4204,-1.4016,-1.4186,-1.4775,-1.5994,-1.7592,-1.9178,-2.0423,-1.8261,-1.6715,-1.8239,-1.9715,-2.005,-1.8353,-2.0502,0.0,-2.0093,-2.1363,-2.2418,-2.2418,-2.2418,-2.2418,-2.2418,-2.2151,-2.2111,-2.2405,-2.2754,-2.3159,-2.3393,-2.3406,-2.3543,-2.3927,-2.389,-2.3839,-2.3839,0.0,0.0,0.0,0.0,0.0,0.0,0.0,0.0,0.0,0.0,0.0,0.0,0.0,0.0,0.0,0.0,0.0,0.0,0.0,0.0,0.0,-1.3685,-1.4014,-1.4504,-1.4943,-1.5285,-1.5463,-1.5837,-1.6048,-1.5943,-1.6056,-1.6178,-1.6284,-1.6568,-1.6787,-1.6885,-1.6982,-1.7039,-1.7039,-1.7088,-1.7112,-1.7112,-1.7112,-1.7112,-1.7112,-1.7112,-1.7112,-1.7112,-1.7112,-1.7088,-1.7039,-1.7039,-1.6942,-1.6771,-1.6722,-1.6544,-1.6276,-1.6008,-1.5902,-1.5886,-1.5748,-1.5504,-1.5212,-1.5025,-1.4968,-1.4968,-1.4968,-1.4846,-1.4708,-1.4708,-1.4546,-1.4335,-1.4213,-1.427,-1.4294,-1.3985,-1.4817,-1.5759,-1.5568,-1.7369,-1.9293,-1.9651,-2.0121,-2.0922,-2.2628,-2.0965,-1.9854,-2.139,-2.2022,-2.2134,-2.1632,-2.1997,-2.2257,-2.1763,-2.2097,-2.2418,-2.2418,-2.2418,-2.2418,-2.2418,-2.235,-2.2508,-2.2807,-2.3156,-2.3495,-2.3802,-2.3816,-2.3969,-2.4275,-2.4511,-2.4607,0.0,0.0,0.0,0.0,0.0,0.0,0.0,0.0,0.0,0.0,0.0,0.0,0.0,0.0,0.0,0.0,0.0,0.0,0.0,0.0,0.0,0.0,-1.4205,-1.4603,-1.5009,-1.5455,-1.5861,-1.6186,-1.647,-1.6641,-1.6641,-1.6738,-1.6803,-1.6803,-1.699,-1.7112,-1.7112,-1.7112,-1.7112,-1.7112,-1.7112,-1.7112,-1.7112,-1.7112,-1.7112,-1.7112,-1.7112,-1.7112,-1.7112,-1.7112,-1.7112,-1.7112,-1.7112,-1.7055,-1.6958,-1.6798,-1.673,-1.6511,0.0,0.0,0.0,0.0,-1.5536,-1.5317,-1.5057,-1.4968,-1.4968,-1.4968,-1.4895,-1.4814,-1.4814,-1.4692,-1.4529,-1.4432,-1.4984,-1.5502,-1.5197,-1.6412,-1.7649,-1.7338,-1.8784,-2.0449,-2.0981,-2.1124,-2.1685,-2.3443,-2.2665,0.0,-2.2921,-2.2953,-2.2654,-2.2022,-2.2303,-2.2402,-2.171,-2.2185,-2.2605,-2.2605,-2.2605,-2.2605,-2.2605,-2.2781,0.0,0.0,0.0,-2.404,-2.4224,-2.4283,0.0,0.0,0.0,-2.5128,-2.5268,-2.5483,0.0,0.0,-2.5044,-2.5115,0.0,0.0,0.0,0.0,0.0,0.0,0.0,0.0,0.0,0.0,0.0,0.0,0.0,0.0,0.0,0.0,-1.4879,-1.5569,-1.6267,-1.6251,-1.6257,-1.6741,-1.7039,-1.7136,-1.7112,-1.7112,-1.7112,-1.7112,-1.7112,-1.7112,-1.7112,-1.7112,0.0,0.0,0.0,-1.7112,-1.7112,-1.7112,-1.7112,-1.7112,-1.7112,-1.7112,-1.7112,-1.7112,-1.7112,-1.7112,-1.7112,-1.7112,-1.7096,-1.6942,-1.6774,-1.6787,-1.6438,-1.6186,-1.5975,-1.5642,-1.5504,-1.5439,-1.509,0.0,0.0,-1.4968,-1.4968,-1.4968,-1.4968,-1.5007,-1.4951,-1.491,-1.6112,-1.7356,-1.716,-1.8445,-1.9632,-1.9233,-1.9393,-2.0021,-2.1172,-2.152,-2.2075,-2.3562,-2.3607,-2.338,-2.342,-2.3113,-2.2448,-2.1044,-2.2022,-2.2448,-2.1044,-2.2022,-2.2928,-2.2928,-2.2928,0.0,-2.2928,-2.3365,-2.3598,-2.3598,-2.4241,-2.4678,-2.4678,-2.4868,-2.5029,-2.5059,-2.5341,-2.5636,-2.5946,-2.6312,-2.6473,-2.6458,-2.5882,-2.5707,0.0,0.0,0.0,0.0,0.0,0.0,0.0,0.0,0.0,0.0,0.0,0.0,0.0,0.0,0.0,-1.4895,-1.5512,-1.6089,-1.658,-1.6836,-1.6942,-1.7047,-1.7226,-1.7274,-1.7128,-1.7112,-1.7112,-1.7112,-1.7112,-1.7112,-1.7112,-1.7112,-1.7112,-1.7112,-1.7112,-1.7112,-1.7112,-1.7112,-1.7112,-1.7112,-1.7112,0.0,-1.7112,-1.7112,-1.7112,-1.7112,-1.7112,-1.7112,-1.7112,-1.7071,-1.6893,-1.6609,-1.6389,-1.6105,-1.5796,-1.5593,-1.5423,-1.526,-1.5041,-1.4968,-1.4968,-1.4968,-1.4968,-1.4968,-1.4968,-1.5854,0.0,-1.6415,-1.7738,-1.9148,-1.86,-1.986,-2.1301,-2.1054,-2.2137,-2.328,-2.353,-2.3628,-2.3819,-2.4349,-2.4048,-2.3754,-2.3995,-2.338,-2.2791,-2.2516,-2.2722,-2.2791,-2.2516,-2.2722,-2.2928,-2.2928,-2.3133,-2.327,-2.327,-2.419,-2.4675,-2.4675,-2.5334,-2.5688,-2.5688,-2.5746,-2.5935,-2.6184,-2.6257,-2.6445,-2.6765,-2.6838,-2.691,-2.691,-2.6779,-2.6852,0.0,0.0,0.0,0.0,0.0,0.0,0.0,0.0,0.0,0.0,0.0,-1.3238,-1.3685,0.0,-1.4708,-1.5512,-1.6016,-1.647,-1.6917,-1.7136,-1.7218,-1.712,-1.7193,-1.721,-1.712,-1.7112,-1.7112,-1.7112,-1.7112,-1.7112,-1.7112,-1.7112,-1.7112,-1.7112,-1.7112,-1.7112,-1.7112,-1.7112,-1.7112,-1.7112,-1.7112,-1.7112,-1.7112,-1.7112,-1.7112,-1.7112,-1.7112,-1.7112,-1.7104,-1.7015,-1.6771,-1.643,-1.6341,-1.6089,-1.5764,-1.5675,-1.5528,-1.535,-1.5163,-1.5106,-1.509,-1.4992,-1.4968,-1.5113,-1.5956,-1.6186,-1.6523,-1.7891,-1.903,-1.9875,-2.0399,-2.1824,-2.3146,-2.2938,-2.3569,-2.4209,-2.4209,-2.4209,-2.4289,-2.4583,-2.4289,-2.3981,-2.3981,-2.3487,-2.31,-2.31,-2.2966,-2.2928,-2.3133,-2.3133,-2.3201,-2.3406,-2.3611,-2.3679,-2.3679,-2.4365,-2.4879,-2.5244,-2.5542,-2.5842,-2.6003,-2.6018,-2.6164,-2.65,-2.65,-2.6661,-2.6983,-2.6983,-2.6983,-2.6998,-2.7159,-2.732,0.0,0.0,0.0,0.0,0.0,0.0,0.0,-1.2751,-1.2921,-1.3425,-1.3587,-1.3831,-1.4473,-1.4919,-1.5398,-1.6048,-1.6446,-1.6787,-1.7071,-1.7242,-1.7283,-1.7128,-1.7145,-1.7153,-1.7112,-1.7112,-1.7112,-1.7112,-1.7112,-1.7112,-1.7112,-1.7112,-1.7112,-1.7112,-1.7112,-1.7112,-1.7112,-1.7112,-1.7112,-1.7112,-1.7112,-1.7112,-1.7112,-1.7112,-1.7112,-1.7112,-1.7112,-1.7088,-1.7047,-1.6868,-1.66,-1.63,-1.6267,-1.6056,-1.5772,-1.5772,-1.5666,-1.5488,-1.5301,-1.5212,-1.5163,-1.5017,-1.4968,-1.5267,-1.6568,-1.6483,-1.6474,-1.9005,-2.023,-2.1003,-2.2237,-2.361,-2.4583,-2.4342,-2.4289,-2.4289,-2.4289,-2.4289,-2.4356,-2.4596,-2.4449,-2.4209,-2.3981,-2.3758,-2.3531,-2.334,-2.3182,-2.3241,-2.3502,-2.3653,-2.3763,-2.405,-2.4243,-2.4354,-2.4408,-2.4556,-2.493,-2.5539,-2.5622,-2.5769,-2.6091,-2.6105,-2.6266,-2.6588,-2.6603,-2.672,-2.6983,-2.6983,-2.7027,-2.7086,-2.7422,-2.7569,-1.2403,-1.2102,-1.1939,-1.2231,-1.232,-1.2499,0.0,-1.3409,-1.3628,-1.401,-1.4343,-1.4676,-1.5074,-1.5577,-1.6056,-1.6454,-1.682,-1.7063,-1.7104,-1.7128,-1.7136,-1.7112,-1.7258,-1.7291,-1.7128,-1.7112,-1.7112,-1.7112,-1.7112,-1.7112,-1.7112,-1.7112,-1.7112,-1.7112,-1.7112,-1.7112,-1.7112,-1.7112,-1.7112,-1.7112,-1.7112,-1.7112,-1.7112,-1.7112,-1.7112,-1.7112,-1.7112,-1.7023,-1.6782,-1.6682,-1.6487,-1.6292,-1.6137,-1.5951,-1.5772,-1.5772,-1.5666,-1.5488,-1.5301,-1.513,-1.4992,-1.4968,-1.4968,-1.5045,-1.5198,-1.716,-1.9317,-1.9415,-2.1671,-2.4053,-2.4024,-2.4289,-2.4549,-2.4596,-2.4596,-2.4596,-2.4596,-2.4596,-2.4596,-2.4549,-2.4609,-2.4583,-2.4543,-2.458,-2.4344,-2.3407,-2.3566,-2.3899,-2.4172,-2.4496,-2.4666,-2.4386,-2.4959,-2.5425,-2.5775,-2.5568,-2.5553,-2.5944,-2.5959,-2.6105,-2.6442,-2.6457,-2.6603,-2.6925,-2.6939,-2.6954,-2.6983,-2.6983,-2.7144,-2.7437,-2.7744,-2.783,-1.3411,-1.2685,-1.2272,-1.2418,-1.2694,-1.3059,-1.3563,-1.3896,-1.4237,-1.47,-1.5082,-1.5781,-1.7304,-1.6952,-1.6933,-1.8293,-1.7704,-1.7112,-1.7112,-1.7023,-1.6917,-1.6812,-1.6868,-1.6966,-1.7096,-1.7112,-1.7112,-1.7112,-1.7112,-1.7112,-1.7112,-1.7112,-1.7112,-1.7112,-1.7112,-1.7112,-1.7112,-1.7112,-1.7112,-1.7112,-1.7112,-1.7112,-1.7112,-1.7112,-1.7112,-1.7104,-1.7006,-1.686,-1.6682,-1.6495,-1.6316,-1.6146,-1.599,-1.5999,-1.5934,-1.5934,-1.5821,-1.5642,-1.5463,-1.535,-1.5409,-1.6188,-1.6415,-1.6712,-1.8592,-1.951,-2.0166,-2.1941,-2.2818,-2.34,-2.4182,-2.4543,-2.4636,-2.4636,-2.4636,-2.4636,-2.4636,-2.4636,-2.4636,-2.4636,-2.4784,-2.4877,-2.4761,-2.4988,-2.5038,-2.4575,-2.4524,-2.4595,-2.4932,-2.5172,-2.5257,-2.5338,-2.5579,-2.5877,-2.6018,-2.5886,-2.5944,-2.6281,-2.6296,-2.6442,-2.6778,-2.6793,-2.6852,-2.6983,-2.6983,-2.6983,-2.6983,-2.6983,-2.7159,-2.7481,-2.7803,-2.7976,-1.3853,-1.3015,-1.2613,-1.2808,-1.3262,-1.3766,-1.418,-1.4586,-1.5017,-1.5504,-1.5853,-1.6618,-1.8403,-1.7682,-1.7393,-1.8907,-1.7972,-1.7096,-1.7047,-1.7231,-1.7195,-1.6547,-1.6801,-1.6961,-1.68,-1.6925,-1.7055,-1.7104,-1.7112,-1.7112,-1.7112,-1.7112,-1.7112,-1.7112,-1.7112,-1.7112,-1.7112,-1.7112,-1.7112,-1.7112,-1.7112,-1.7112,-1.7112,-1.7112,-1.7112,-1.7104,-1.6925,-1.6747,-1.6568,-1.6381,-1.6202,-1.5966,-1.5966,-1.5966,-1.604,-1.6475,-1.626,-1.5683,-1.5561,-1.5764,-1.6189,-1.7183,-1.775,-1.8547,-2.0944,-2.1071,-2.0939,-2.3277,-2.3426,-2.3129,-2.4341,-2.4636,-2.4636,-2.4636,-2.4636,-2.4636,-2.4636,-2.471,-2.4784,-2.4784,-2.5079,-2.5304,-2.5143,-2.5391,-2.5695,-2.5695,-2.5569,-2.557,-2.5712,-2.5783,-2.5896,-2.621,-2.612,-2.6047,-2.6149,-2.6061,-2.6149,-2.6486,-2.65,-2.6691,-2.7115,-2.713,-2.713,-2.713,-2.713,-2.713,-2.713,-2.713,-2.7335,-2.7744,-2.7978,-2.8256,0.0,-1.249,-1.2735,-1.3433,-1.3938,-1.4538,-1.5074,-1.5529,-1.6097,-1.6462,-1.669,-1.6877,-1.7143,-1.7096,-1.7104,-1.7192,-1.7112,-1.7055,-1.6798,-1.8049,-1.8205,-1.627,-1.7269,-1.7557,-1.5975,-1.6446,-1.6933,-1.7096,-1.7112,-1.7112,-1.7112,-1.7112,-1.7112,-1.7112,-1.7112,-1.7112,-1.7112,-1.7112,-1.7112,-1.7112,-1.7112,-1.7112,-1.7112,-1.7112,-1.7112,-1.7104,-1.6925,-1.6747,-1.6568,-1.6381,-1.6202,-1.5966,-1.5966,-1.5966,-1.6188,-1.7602,-1.7013,-1.552,-1.552,-1.6294,-1.7378,-1.7711,-1.8708,-1.9779,-2.0157,-2.1133,-2.2148,-2.2223,-2.3351,-2.4562,-2.4562,-2.4636,-2.4636,-2.4636,-2.4636,-2.4636,-2.4636,-2.4931,-2.5166,-2.5166,-2.552,-2.58,-2.5786,-2.6078,-2.6385,-2.6385,-2.6663,-2.6808,-2.6444,-2.646,-2.6617,-2.6925,-2.6398,-2.6149,-2.6457,-2.6193,-2.6149,-2.6486,-2.65,-2.6793,-2.7437,-2.7466,-2.7466,-2.7466,-2.7466,-2.7466,-2.7466,-2.7466,-2.7788,-2.8326,-2.8417,-2.8578,0.0,0.0,-1.4767,-1.4604,-1.4838,-1.5293,-1.5821,-1.6276,-1.6584,-1.6576,-1.6438,-1.6952,-1.9018,-1.7696,-1.7334,-2.0838,-1.99,-1.914,-2.0255,-1.9846,-1.8904,-1.7521,-1.8006,-1.8049,-1.7168,-1.6613,-1.6438,-1.6738,-1.7975,-1.8278,-1.7192,-1.8322,-1.841,-1.7112,-1.7112,-1.7112,-1.7112,-1.7112,-1.7112,-1.7112,-1.7112,-1.7112,-1.7112,-1.7112,-1.7047,-1.6933,-1.6755,-1.6568,-1.6381,-1.6202,-1.6097,-1.6122,-1.7255,-1.7737,-1.7874,-1.9354,-1.9452,-1.8789,-1.8789,-1.9081,-1.9646,-2.0725,-2.1334,-2.1935,-2.2842,-2.3427,-2.3809,-2.3809,-2.4179,-2.4676,-2.4877,-2.4783,-2.469,-2.489,-2.493,-2.5005,-2.529,-2.5452,-2.567,-2.6162,-2.6411,-2.6552,-2.6552,-2.6862,-2.7085,-2.6794,-2.691,-2.691,-2.6838,-2.6823,-2.6866,-2.6983,-2.6793,-2.6705,-2.6822,-2.672,-2.6808,-2.713,-2.7144,-2.7335,-2.7773,-2.7788,-2.77,-2.7481,-2.7686,-2.7686,-2.7481,-2.7686,-2.8008,-2.8432,-2.8432,-2.8608,0.0,-1.5371,-1.5521,-1.5366,-1.5577,-1.5999,-1.6405,-1.6682,-1.6677,-1.6454,-1.6154,-1.6657,-1.8917,-1.7534,-1.7396,-2.138,-2.0467,-1.9843,-2.1386,-2.0899,-2.0079,-1.9273,-1.958,-1.9546,-1.8735,-1.8055,-1.7892,-1.828,-1.9665,-1.9799,-1.8044,-1.9141,-1.9012,-1.72,-1.7112,-1.7112,-1.7112,-1.7112,-1.7112,-1.7112,-1.7805,-1.7718,-1.7112,-1.7047,-1.6958,-1.675,-1.6592,-1.6742,-1.7202,-1.7013,-1.7337,-1.7992,-1.9115,-1.9511,-1.9735,-2.1192,-2.1581,-2.1268,-2.0559,-2.0715,-2.1241,-2.2341,-2.3015,-2.3555,-2.4631,-2.4877,-2.4823,-2.4917,-2.4943,-2.4997,-2.5184,-2.5166,-2.5221,-2.541,-2.5615,-2.5752,-2.6054,-2.6204,-2.6424,-2.6923,-2.7173,-2.7225,-2.7124,-2.7231,-2.7276,-2.7174,-2.7159,-2.7115,-2.7013,-2.6983,-2.6983,-2.6983,-2.6983,-2.6983,-2.6983,-2.6983,-2.7174,-2.7613,-2.7642,-2.7847,-2.8271,-2.8286,-2.8139,-2.7832,-2.8022,-2.8022,-2.7817,-2.8022,-2.8286,-2.8593,-2.8593,-2.871,-1.5999,-1.5724,-1.5372,-1.5771,-1.6211,-1.6633,-1.6803,-1.6828,-1.6743,-1.6196,-1.5983,-1.6131,0.0,-1.6852,-1.7254,-1.8994,-1.9072,-1.9432,-2.0802,-2.1608,-2.1884,-2.1287,-2.2,-2.2027,-2.0703,-2.0802,-2.1162,-2.1605,-2.2081,-2.1503,-1.9495,-1.9856,-1.9099,-1.72,-1.7112,-1.7112,-1.7288,-1.7367,-1.7367,-1.7367,-1.9186,-1.909,-1.7175,-1.7012,-1.693,-1.689,-1.6539,-1.7452,-1.8992,-1.8774,-1.9664,-2.12,-2.127,-2.1259,-2.1468,-2.2981,-2.3278,-2.2781,-2.0989,-2.1231,-2.2457,-2.2712,-2.3705,-2.481,-2.5344,-2.5317,-2.5157,-2.5438,-2.5518,-2.5518,-2.5531,-2.5837,-2.6142,-2.617,-2.6551,-2.6856,-2.6856,-2.716,-2.7463,-2.7449,-2.7647,-2.7832,-2.7554,-2.7232,-2.713,-2.7452,-2.7495,-2.7378,-2.7056,-2.7013,-2.7013,-2.6983,-2.6983,-2.6983,-2.6983,-2.6983,-2.7261,-2.783,-2.7874,-2.8227,-2.8871,-2.8886,-2.8739,-2.8447,-2.8461,-2.8461,-2.8432,-2.8461,-2.8608,-2.8886,-2.8886,-2.8886,-1.762,-1.8222,-1.8736,-1.6986,-1.6682,-1.6763,-1.6674,-1.7188,-1.7645,-1.7048,-1.7077,-1.7225,-1.7317,-1.7621,-1.8566,-2.1067,-2.2247,-2.3508,-2.5558,-2.5071,-2.4196,-2.346,0.0,-2.3688,-2.2924,-2.4335,-2.5442,-2.5902,-2.4763,-2.2843,-1.9952,-2.1135,-2.0472,-1.72,-1.7112,-1.7805,-1.9186,-2.0558,-2.1165,-2.1165,-2.1673,-2.0912,-1.8967,-1.8922,-1.873,-1.8355,-1.8246,-1.91,-2.0557,-2.0328,-2.0474,-2.1022,-2.2098,-2.2498,-2.2619,-2.4163,-2.4631,-2.4451,-2.3704,-2.3995,-2.4683,-2.4762,-2.5185,-2.5611,-2.5531,-2.5464,-2.5424,-2.5491,-2.5518,-2.5648,-2.6185,-2.6216,-2.6315,-2.7079,-2.7409,-2.7565,-2.789,-2.7968,-2.8052,-2.8129,-2.7844,-2.7642,-2.7803,-2.7569,-2.7466,-2.7788,-2.7832,-2.7715,-2.7393,-2.7349,-2.7261,-2.7013,-2.6983,-2.6983,-2.6983,-2.6983,-2.7261,-2.783,-2.7874,-2.8227,-2.8871,-2.8886,-2.8739,-2.8447,-2.8666,-2.8666,-2.8432,-2.8666,-2.8812,-2.8886,-2.8886,-2.8886,-1.9404,-1.9685,-1.9639,-1.7339,-1.6766,-1.6661,-1.6324,-1.6664,-1.6889,-1.6536,-1.6471,-1.6834,-1.7684,-1.8182,-1.9333,-2.1754,-2.3111,-2.4572,-2.6921,-2.6206,-2.5583,0.0,-2.5702,0.0,-2.5577,-2.6573,-2.7567,-2.8191,-2.702,-2.5237,-2.2876,-2.3254,-2.2363,-1.9873,-1.9273,-1.9622,-2.1078,-2.288,-2.3395,-2.2622,-2.3454,-2.2917,-2.1003,-2.08,-2.0577,-2.0323,-1.9985,-2.0853,-2.2338,-2.2077,-2.237,-2.3146,-2.3813,-2.4022,-2.415,-2.4938,-2.5184,-2.5064,-2.489,-2.505,-2.5317,-2.5317,-2.5518,-2.5836,-2.5949,-2.6013,-2.604,-2.6316,-2.6434,-2.6553,-2.6964,-2.7134,-2.7437,-2.801,-2.8431,-2.8647,-2.8755,-2.8805,-2.8753,-2.8443,-2.8139,-2.7905,-2.7874,-2.7803,-2.7788,-2.8034,-2.8093,-2.8095,-2.792,-2.7773,-2.7569,-2.7232,-2.7203,-2.7144,-2.6998,-2.6983,-2.7203,-2.7715,-2.7744,-2.8022,-2.8666,-2.8695,-2.8666,-2.8637,-2.8798,-2.8871,-2.8856,-2.9017,-2.9178,-2.931,-2.9164,-2.9105,-2.0681,-2.04,-1.9495,-1.7647,-1.7173,-1.6924,-1.6268,-1.5806,-1.5523,-1.5298,-1.5461,-1.61,-1.7665,-1.8686,-1.9846,-2.1687,0.0,-2.4313,-2.6462,-2.6192,-2.645,-2.8276,-2.7635,-2.7338,-2.8017,-2.8126,-2.84,-2.9158,-2.8855,-2.7998,-2.6447,-2.5494,-2.4423,-2.3309,-2.2385,-2.2212,-2.2966,-2.4861,-2.5032,-2.3481,-2.5192,-2.5047,-2.3213,-2.2752,-2.2515,-2.247,-2.1945,-2.2671,-2.4191,-2.3909,-2.4646,-2.5865,-2.5611,-2.5491,-2.5527,-2.5451,-2.5291,-2.5152,-2.5152,-2.5179,-2.5206,-2.5166,-2.538,-2.5778,-2.6498,-2.6685,-2.6845,-2.7407,-2.7633,-2.7633,-2.7712,-2.8267,-2.8856,-2.8884,-2.9421,-2.9793,-2.95,-2.9339,-2.909,-2.8549,-2.8326,-2.83,-2.7976,-2.7947,-2.8049,-2.8447,-2.8505,-2.8505,-2.8505,-2.8136,-2.7891,-2.7569,-2.7539,-2.7422,-2.7144,-2.7115,-2.7261,-2.7583,-2.7613,-2.7876,-2.8476,-2.8505,-2.8622,-2.8886,-2.893,-2.909,-2.9383,-2.9427,-2.9748,-3.0254,-2.9733,-2.9601,-1.9786,-2.0657,-2.1395,-1.9779,-1.9013,-1.8504,-1.7766,-1.6739,0.0,-1.5091,-1.6308,-1.7284,-1.6814,-1.8937,-2.102,-2.1772,-2.3528,-2.5384,-2.7229,-2.743,-2.7673,0.0,-2.8576,-2.8688,-2.9161,-2.9244,-2.9439,-3.001,-2.9926,-2.8895,-2.6728,-2.644,-2.5446,-2.3395,-2.4178,-2.4776,-2.4947,-2.7096,-2.8052,-2.7701,-2.8163,-2.737,-2.5462,-2.5057,-2.4783,-2.4572,-2.4442,-2.5158,-2.6439,-2.6144,-2.5889,-2.5585,-2.5531,-2.5585,-2.5657,-2.5308,-2.5343,-2.5589,-2.5589,-2.5752,-2.5867,-2.5684,-2.5984,-2.6512,-2.694,-2.729,-2.7421,-2.7541,-2.7633,-2.7712,-2.804,-2.8518,-2.8979,-2.9559,-2.9822,-2.9851,-2.9793,-2.9164,-2.8564,-2.8461,-2.8136,-2.8034,-2.8315,-2.8282,-2.8461,-2.8769,-2.8812,-2.8812,-2.8812,-2.8549,-2.8227,-2.7905,-2.7786,-2.7847,-2.7713,-2.7713,-2.792,-2.8242,-2.8271,-2.8432,-2.8798,-2.8812,-2.8842,-2.8886,-2.9149,-2.9325,-2.9383,-2.9647,-3.0595,-3.1903,-3.0515,-3.0565,-2.0063,-2.0326,-2.0574,-1.8781,-1.8325,-1.8182,-1.7218,0.0,0.0,-1.5182,-1.5942,-1.6745,-1.6793,-1.9148,-2.1237,-2.1691,-2.299,-2.469,-2.6936,-2.7037,-2.7538,-2.9062,-2.923,-2.9328,-2.983,-2.983,-2.9998,-3.0499,-3.0499,-2.9983,-2.8853,-2.8615,-2.7675,-2.5884,-2.6914,-2.7441,-2.7284,-2.8397,-2.8911,-2.8911,-2.8849,-2.8462,-2.7636,-2.7175,-2.689,-2.6754,-2.6517,-2.6754,-2.7305,-2.7001,-2.6619,-2.6101,-2.5937,-2.5937,-2.5935,-2.5634,-2.5676,-2.601,-2.5769,-2.5824,-2.5949,-2.6276,-2.6717,-2.719,-2.7657,-2.7848,-2.804,-2.8182,-2.8261,-2.8339,-2.8588,-2.895,-2.9392,-2.9617,-2.9617,-2.9617,-2.9617,-2.912,-2.8622,-2.8461,-2.8432,-2.8447,-2.8432,-2.8564,-2.8725,-2.8871,-2.8886,-2.8944,-2.912,-2.8871,-2.8549,-2.8165,-2.8344,-2.8373,-2.8136,-2.8122,-2.8195,-2.8355,-2.8209,-2.833,-2.8637,-2.8812,-2.8973,-2.9134,-2.9456,-2.972,-2.9881,-3.0042,-3.0676,-3.1559,-3.1457,-3.1944,-2.0285,-1.9836,-1.9479,-1.7837,-1.7888,-1.8036,-1.6936,-1.5981,0.0,-1.5004,-1.5221,-1.5766,-1.6785,-1.8822,-2.0687,0.0,-2.2298,-2.3593,-2.606,-2.6302,-2.6959,-2.9176,-2.9533,0.0,-3.0248,-3.0346,-3.0415,-3.0734,-3.0759,-3.0759,-3.0817,-3.0415,-2.9663,-2.8558,-2.9146,-2.9327,-2.9019,-2.9102,-2.9074,-2.9086,-2.8925,-2.8956,-2.9186,-2.8691,-2.8431,-2.8431,-2.8026,-2.779,-2.7698,-2.7537,-2.7136,-2.6696,-2.6528,-2.6491,-2.6481,-2.6084,-2.621,-2.6566,-2.6256,-2.6186,-2.6372,-2.7058,-2.7421,-2.7607,-2.816,-2.8388,-2.8524,-2.8895,-2.8988,-2.8988,-2.8988,-2.9427,-2.9778,-2.9456,-2.9383,-2.9354,-2.9281,-2.9076,-2.8842,-2.8666,-2.8769,-2.8856,-2.8754,-2.8827,-2.8944,-2.9076,-2.9032,-2.912,-2.9442,-2.9266,-2.9003,-2.8769,-2.8827,-2.8827,-2.8651,-2.8578,-2.8564,-2.8637,-2.8403,-2.8373,-2.8622,-2.893,-2.9222,-2.9471,-2.9807,-3.0181,-3.0431,-3.0817,-3.131,-3.1948,-3.3061,-3.3726,-1.9382,-1.9645,-1.9826,-1.9456,-1.9632,-1.9648,-1.8744,0.0,-1.5587,-1.4161,-1.4555,-1.5317,-1.5965,-1.7276,-1.9049,0.0,0.0,-2.2847,-2.4985,-2.5724,-2.6735,-2.8459,0.0,0.0,-3.0719,-3.0749,-3.0749,-3.0817,-3.0554,-3.0525,-3.0803,-3.0415,-3.0179,-3.0012,-2.9663,-2.9327,-2.9019,-2.9445,-2.9467,-2.9182,-2.9305,-2.9318,-2.9333,-2.8983,-2.8808,-2.8808,-2.8808,-2.8588,-2.8197,-2.8168,-2.7642,-2.6738,-2.699,-2.7163,-2.7183,-2.6481,-2.681,-2.7597,-2.7373,-2.7445,-2.7731,-2.8497,-2.8125,-2.7564,-2.8158,-2.8603,-2.8959,-2.9251,-2.9325,-2.9325,-2.9325,-2.9603,-2.9778,-2.9456,-2.9383,-2.9295,-2.9003,-2.8915,-2.8973,-2.9237,-2.9076,-2.9061,-2.9632,-2.9266,-2.909,-2.969,-2.9529,-2.9456,-2.9778,-2.9793,-2.9764,-2.9734,-2.9222,-2.9003,-2.9266,-2.9017,-2.8973,-2.9266,-2.9266,-2.9266,-2.9295,-2.9603,-2.9793,-2.9822,-3.0225,-3.0401,-3.0431,-3.2258,-3.3952,-3.5511,-3.5638,-3.6585,-1.9211,-1.9532,-1.9501,-1.7961,-1.8408,-1.8789,-1.7097,0.0,-1.6304,-1.4787,-1.4776,-1.5336,-1.6494,-1.7399,-1.8555,0.0,0.0,0.0,-2.3598,-2.4164,-2.5325,-2.7845,-2.8612,-2.9434,-3.0661,-3.0817,-3.0817,-3.0817,-3.0525,-3.049,-3.0525,-3.0374,-3.0306,-3.0306,-3.0126,-2.9799,-2.9281,-2.9442,-2.9464,-2.9334,-2.9158,-2.9178,-2.9369,-2.9032,-2.8798,-2.8622,-2.8622,-2.8545,-2.8376,-2.811,-2.7802,-2.7406,-2.7424,-2.7398,-2.7403,-2.6848,-2.7211,-2.7792,-2.7548,-2.765,-2.7969,-2.8428,-2.8293,-2.8071,-2.8545,-2.8798,-2.8959,-2.9281,-2.9383,-2.9383,-2.9383,-2.9325,-2.9295,-2.9354,-2.9222,-2.9047,-2.8915,-2.9047,-2.9222,-2.9354,-2.9427,-2.95,-2.9559,-2.9515,-2.95,-2.9559,-2.9632,-2.9793,-3.0196,-2.9983,-2.9939,-3.0211,-2.9925,-2.9822,-2.9954,-2.9837,-2.9822,-2.9954,-2.9778,-2.9676,-2.9676,-2.9983,-3.024,-3.024,-3.1517,-3.2176,-3.2176,-3.4083,-3.5349,-3.5994,-3.7117,-3.7914,-1.9374,-1.9387,-1.9126,-1.7334,-1.7479,-1.752,0.0,0.0,-1.6321,-1.533,-1.4675,-1.4831,-1.6426,-1.7009,-1.7781,0.0,0.0,-2.095,-2.2832,-2.3126,-2.4142,-2.6836,-2.747,-2.8336,-3.0033,-3.0598,-3.0788,-3.0685,-3.0481,-3.0431,-3.0431,-3.0343,-3.0284,-3.0284,-3.0284,-2.9939,-2.9383,-2.9383,-2.9325,-2.9237,-2.9003,-2.9017,-2.9222,-2.8988,-2.8725,-2.8432,-2.8432,-2.8432,-2.8341,-2.8005,-2.7874,-2.7844,-2.7598,-2.7481,-2.7437,-2.7115,-2.7393,-2.783,-2.7583,-2.7686,-2.7932,-2.8253,-2.8432,-2.8491,-2.8798,-2.8886,-2.8959,-2.9281,-2.9442,-2.9515,-2.9515,-2.9281,-2.9061,-2.9208,-2.9134,-2.9032,-2.9032,-2.9295,-2.9544,-2.9647,-2.9778,-2.9851,-2.9807,-2.9837,-2.9851,-2.9807,-2.9925,-3.0129,-3.0451,-3.029,-3.0232,-3.0466,-3.0495,-3.0451,-3.0446,-3.0343,-3.0328,-3.0431,-3.0602,-3.0791,-3.0791,-3.1594,-3.2088,-3.2088,-3.3465,-3.4148,-3.4148,-3.5914,-3.6797,-3.6797,-3.8566,-3.9374,-1.9863,-1.9421,-1.8678,-1.8437,-1.7472,-1.6283,0.0,-1.5184,-1.5319,-1.5319,-1.4093,-1.3567,-1.5306,-1.5628,-1.6317,-1.8447,-1.9594,0.0,-2.273,-2.3043,-2.365,-2.5214,-2.5755,-2.6792,-2.8754,-3.0071,-3.07,-3.046,-3.0431,-3.0431,-3.0431,-3.0123,-2.9947,-2.9947,-2.9947,-2.9705,-2.9383,-2.9383,-2.9208,-2.89,-2.8886,-2.8886,-2.89,-2.8886,-2.8725,-2.8432,-2.8432,-2.8432,-2.8341,-2.8005,-2.7874,-2.7844,-2.7598,-2.7481,-2.7437,-2.7115,-2.7393,-2.783,-2.7583,-2.7686,-2.7932,-2.8253,-2.8432,-2.8491,-2.8798,-2.8886,-2.8959,-2.9281,-2.9603,-2.9851,-2.9851,-2.9617,-2.9295,-2.8973,-2.9134,-2.9369,-2.9369,-2.9632,-2.9954,-3.0357,-3.0086,-3.0071,-3.07,-3.0276,-3.0086,-3.0715,-3.0539,-3.0466,-3.0773,-3.0817,-3.0817,-3.0817,-3.0817,-3.07,-3.046,-3.0137,-3.0093,-3.0416,-3.1934,-3.2904,-3.2904,-3.4825,-3.5914,-3.5914,-3.5994,-3.5994,-3.5994,-3.7755,-3.8566,-3.8645,-4.0353,-4.1172,-1.6975,-1.7785,-1.8097,-1.6519,-1.6291,-1.6052,-1.4364,-1.4519,-1.4795,-1.3996,-1.4049,-1.4541,-1.5424,-1.5569,-1.6272,-1.8226,-1.8756,0.0,0.0,0.0,-2.3337,-2.5534,-2.7507,-2.8924,-2.95,-2.9925,-3.0129,-3.0027,-2.9807,-2.969,-2.969,-2.9383,-2.9295,-2.9529,-2.9529,-2.9281,-2.8739,-2.8739,-2.8564,-2.8242,-2.8242,-2.8242,-2.8242,-2.8242,-2.8081,-2.7773,-2.7773,-2.7773,-2.7759,-2.7422,-2.7422,-2.7598,-2.7276,-2.7144,-2.713,-2.7027,-2.7261,-2.7613,-2.751,-2.7686,-2.7932,-2.8253,-2.8432,-2.8491,-2.8798,-2.8886,-2.9003,-2.9559,-2.9778,-2.991,-3.0225,-2.9954,-2.969,-2.9573,-2.9632,-2.9705,-2.9705,-3.0049,-3.0313,-3.0416,-3.0437,-3.051,-3.051,-3.051,-3.051,-3.051,-3.0598,-3.0715,-3.0817,-3.1798,-3.2376,-3.1715,-3.3249,-3.3365,-3.0836,-3.1623,-3.2344,-3.2453,-3.4067,-3.502,-3.502,-3.5604,-3.6138,-3.6362,-3.7596,-3.831,-3.8609,-4.0374,-4.1034,-4.076,-4.0943,-4.1211,0.0,-1.6295,-1.6998,-1.5567,-1.5361,0.0,-1.319,-1.3404,-1.3887,-1.3154,-1.3665,-1.4463,-1.5306,-1.5574,-1.6239,-1.8235,-1.8379,-1.9116,-2.1655,-2.2081,-2.3018,-2.536,-2.7509,-2.8827,-2.8944,-2.9398,-2.9676,-2.9676,-2.9603,-2.95,-2.9383,-2.9061,-2.893,-2.9017,-2.9017,-2.8783,-2.818,-2.818,-2.8078,-2.7874,-2.7874,-2.7874,-2.7874,-2.7874,-2.7773,-2.7481,-2.7481,-2.7481,0.0,-2.713,-2.7188,-2.7452,-2.7115,-2.6983,-2.6983,-2.6983,-2.7115,-2.7291,-2.7291,-2.7422,-2.7642,-2.7964,-2.8242,-2.8491,-2.8798,-2.8886,-2.9003,-2.9529,-2.9764,-2.991,-3.0196,-3.0181,-3.0093,-2.9895,-3.0035,-3.0123,-3.0123,-3.0305,-3.0525,-3.0525,-3.0685,-3.0759,-3.0568,-3.07,-3.0759,-3.0554,-3.1265,-3.1881,-3.1948,-3.356,-3.4457,-3.405,-3.5494,-3.5574,-3.3397,-3.405,-3.4701,-3.4863,-3.6459,-3.7419,-3.7419,-3.8073,-3.853,-3.8767,-3.9807,-4.0549,-4.0763,-4.1728,-4.1907,-4.1409,-4.1309,-4.1409,0.0,0.0,0.0,0.0,0.0,0.0,0.0,-1.2157,0.0,-1.2841,-1.2993,-1.3546,-1.4929,-1.5338,-1.6157,-1.8436,-1.8235,-1.8842,-2.2004,-2.2433,-2.3008,-2.4839,-2.6228,-2.7159,-2.7422,-2.8549,-2.9281,-2.9281,-2.9573,-2.9617,-2.9295,-2.9017,-2.871,-2.8373,-2.8373,-2.8227,-2.7844,-2.7844,-2.783,-2.7801,-2.7801,-2.7801,-2.7801,-2.7786,-2.77,-2.7437,-2.7422,-2.7422,-2.7422,-2.7115,-2.7174,-2.7408,-2.7115,-2.6983,-2.6983,-2.6983,-2.6983,-2.6983,-2.6983,-2.6983,-2.7042,-2.7378,-2.792,-2.8491,-2.8769,-2.8871,-2.8959,-2.931,-2.9632,-2.9881,-2.9925,-3.024,-3.0387,-2.9998,-3.0159,-3.0475,-3.0475,-3.0612,-3.0817,-3.0817,-3.0817,-3.0817,-3.0984,-3.0984,-3.1067,-3.115,-3.2525,-3.374,-3.4115,-3.5719,-3.6922,-3.7241,-3.748,-3.756,-3.756,-3.7082,-3.7002,-3.7401,-3.9003,-3.9964,-3.9964,-4.1559,-4.2447,-4.2447,-4.2447,-4.2524,-4.2447,-4.2023,-4.1525,-4.1122,-4.1505,-4.1782,0.0,0.0,0.0,0.0,0.0,0.0,0.0,0.0,-1.1638,-1.2571,-1.2823,-1.3201,-1.4089,-1.4044,-1.4731,-1.7315,-1.6997,-1.753,-2.0758,-2.3235,-2.4843,-2.5353,-2.6765,-2.7569,-2.7144,-2.7817,-2.8286,-2.8286,-2.8593,-2.8637,-2.83,-2.8447,-2.8286,-2.7715,-2.77,-2.7671,-2.7583,-2.7583,-2.7466,-2.7217,-2.7217,-2.7217,-2.7203,-2.6954,-2.6939,-2.7086,-2.6837,-2.6866,-2.71,-2.7027,-2.7042,-2.71,-2.7013,-2.6983,-2.6983,-2.6983,-2.6983,-2.6983,-2.6983,-2.6983,-2.7042,-2.7378,-2.792,-2.837,-2.852,-2.871,-2.9017,-2.9588,-2.9807,-2.9983,-3.0466,-3.0656,-3.07,-3.0612,-3.0656,-3.0715,-3.0715,-3.0773,-3.0817,-3.0817,-3.0817,-3.1233,-3.2541,-3.2772,-3.3265,-3.4538,-3.5413,-3.588,-3.596,-3.7798,-3.8845,-3.8292,-3.9964,-4.0996,-4.0666,-3.9632,-3.9082,-3.916,-4.0841,-4.181,-4.181,-4.2216,-4.2524,-4.2851,-4.3157,-4.331,-4.331,-4.2858,-4.257,-4.2467,-4.222,-4.2303,0.0,0.0,0.0,0.0,0.0,0.0,0.0,0.0,0.0,-1.2532,-1.2718,-1.3187,-1.4215,-1.4339,-1.5232,-1.8263,-1.7667,-1.7988,-2.1216,-2.3508,-2.514,-2.5886,-2.6617,-2.7159,-2.7408,-2.7613,-2.7788,-2.7859,-2.8034,-2.8063,-2.7888,-2.7832,-2.7613,-2.7261,-2.6969,-2.6881,-2.7027,-2.7027,-2.6866,-2.6544,-2.6544,-2.6544,-2.653,-2.6354,-2.6383,-2.6544,-2.6515,-2.6603,-2.6778,-2.6925,-2.6983,-2.6983,-2.6983,-2.6983,-2.6983,-2.6983,-2.6983,-2.6983,-2.6983,-2.6983,-2.7042,-2.7378,-2.7817,-2.8165,-2.8311,-2.8651,-2.8959,-2.931,-2.9632,-2.9939,-3.029,-3.0598,-3.0817,-3.0817,-3.0817,-3.0817,-3.0817,-3.0817,-3.0817,-3.0817,-3.1482,-3.2293,-3.3265,-3.4229,-3.517,-3.6138,-3.7321,-3.8116,-3.8335,-4.0023,-4.1171,-4.0841,-4.2119,-4.283,-4.258,-4.1945,-4.1539,-4.1539,-4.2427,-4.2907,-4.2907,-4.2907,-4.3081,-4.3233,-4.3462,-4.3511,-4.3284,-4.3035,-4.2828,-4.2621,-4.258,-4.2683,0.0,0.0,-1.105,-1.097,-1.2417,-1.3652,0.0,0.0,0.0,-1.258,-1.2504,-1.308,-1.4757,-1.4843,-1.5886,-1.9597,-1.9233,-1.9502,-2.25,-2.3738,-2.4803,-2.612,-2.6208,-2.6559,-2.748,-2.7495,-2.751,-2.7788,-2.7728,-2.7713,-2.7655,-2.7217,-2.6896,-2.6852,-2.631,-2.612,-2.6354,-2.6413,-2.6296,-2.6018,-2.6018,-2.6018,-2.6018,-2.5959,-2.5974,-2.6032,-2.6252,-2.6383,-2.6457,-2.6778,-2.6881,-2.6852,-2.6954,-2.6954,-2.6925,-2.6969,-2.6983,-2.6983,-2.6983,-2.6983,-2.7042,-2.732,-2.7656,-2.7932,-2.8209,-2.8608,-2.8886,-2.8886,-2.9354,-2.9881,-2.9925,-3.0378,-3.0817,-3.0817,-3.0817,-3.09,-3.115,-3.1233,-3.1316,-3.155,-3.2772,-3.3919,-3.4229,-3.5816,-3.7082,-3.748,-3.9082,-4.0432,-4.0725,-4.2119,-4.3233,-4.3539,-4.3615,-4.3615,-4.3615,-4.3615,-4.3615,-4.3615,-4.3615,-4.3615,-4.3615,-4.3615,-4.3615,-4.3615,-4.3615,-4.3408,-4.3035,-4.3035,-4.2828,-4.2476,-4.2849,-4.3035,-1.0688,-1.1788,-1.281,-1.2246,-1.2417,-1.2842,-1.3652,0.0,0.0,0.0,-1.1682,-1.1918,-1.4889,-1.3453,-1.3614,-1.8999,-2.0588,-2.1756,-2.3629,-2.4663,-2.5301,-2.5286,-2.6208,-2.6705,-2.6354,-2.6764,-2.7086,-2.713,-2.7144,-2.7013,-2.6735,-2.6632,-2.6457,-2.6179,-2.6061,-2.59,-2.5681,-2.5944,-2.6061,-2.6018,-2.6018,-2.6018,-2.6003,-2.5725,-2.5754,-2.6003,-2.5783,-2.5827,-2.612,-2.6442,-2.6413,-2.6222,-2.6778,-2.6822,-2.6617,-2.6896,-2.6983,-2.6983,-2.6983,-2.6983,-2.6998,-2.7042,-2.7466,-2.7888,-2.7932,-2.8432,-2.8886,-2.8886,-2.9354,-3.0005,-3.0284,-3.0554,-3.0817,-3.0817,-3.0817,-3.1233,-3.269,-3.3019,-3.3429,-3.4944,-3.543,-3.6155,-3.7993,-3.8548,-3.9434,-4.1249,-4.2042,-4.2524,-4.26,-4.3157,-4.3539,-4.3615,-4.3615,-4.3615,-4.3615,-4.3615,-4.3615,-4.3615,-4.3615,-4.3615,-4.3615,-4.3615,-4.3615,-4.3615,-4.3615,-4.3573,-4.3511,-4.3511,-4.347,-4.3408,-4.347,-4.3511,-1.0688,-1.1296,-1.2073,-1.2853,-1.4048,-1.5101,-1.5446,-1.5091,0.0,0.0,-1.3267,-1.3542,-1.5174,-1.5176,-1.6264,-2.0399,-2.2039,-2.3021,-2.3948,-2.4613,-2.5154,-2.5535,-2.6105,-2.6413,-2.6296,-2.6705,-2.6852,-2.6486,-2.6632,-2.6588,-2.6252,-2.6076,-2.59,-2.5754,-2.5593,-2.5432,-2.5271,-2.5418,-2.5491,-2.5491,-2.5491,-2.5491,-2.5491,-2.5344,-2.5359,-2.5505,-2.552,-2.5622,-2.5783,-2.6105,-2.6149,-2.6061,-2.6544,-2.6632,-2.6544,-2.6866,-2.6983,-2.6983,-2.6983,-2.6983,-2.6983,-2.6983,-2.7422,-2.7874,-2.7874,-2.8388,-2.9042,-2.9959,-3.0066,-3.0137,-3.1239,-3.191,-3.2443,-3.3413,-3.3576,-3.3822,-3.4636,-3.4799,-3.5042,-3.5833,-3.6957,-3.8073,-3.904,-4.0315,-4.1578,-4.2621,-4.3081,-4.331,-4.331,-4.3462,-4.3615,-4.3615,-4.3615,-4.3615,-4.3615,-4.3615,-4.3615,-4.3615,-4.3615,-4.3615,-4.3615,-4.3615,-4.3615,-4.3615,-4.3615,-4.3615,-4.3615,-4.3615,-4.3615,-4.3615,-4.3615,-4.3615,-1.0688,-1.0995,-1.1652,-1.3067,-1.4954,-1.653,-1.668,-1.6791,-1.651,-1.5381,-1.5232,-1.5488,-1.6085,-1.7773,-1.9699,-2.158,-2.3005,-2.394,-2.4262,-2.4583,-2.5066,-2.5813,-2.5974,-2.612,-2.6369,-2.6617,-2.6559,-2.6047,-2.6179,-2.6164,-2.5915,-2.5593,-2.5388,-2.5301,-2.514,-2.509,-2.5017,-2.5017,-2.5046,-2.5119,-2.5119,-2.5119,-2.5119,-2.5119,-2.5119,-2.5134,-2.5315,-2.5418,-2.5447,-2.5769,-2.5857,-2.5827,-2.6237,-2.6442,-2.6544,-2.6866,-2.6983,-2.6983,-2.6983,-2.6983,-2.6983,-2.6983,-2.7585,-2.8357,-2.8447,-2.9154,-3.0161,-3.1453,-3.1449,-3.1361,-3.2697,-3.3483,-3.4213,-3.5655,-3.5994,-3.6155,-3.6637,-3.6717,-3.6877,-3.7436,-3.8864,-4.0002,-4.008,-4.1733,-4.3004,-4.3157,-4.3386,-4.3615,-4.3615,-4.3615,-4.3615,-4.3615,-4.3615,-4.3615,-4.3615,-4.3615,-4.3615,-4.3615,-4.3615,-4.3615,-4.3615,-4.3615,-4.3615,-4.3615,-4.3615,-4.3615,-4.3615,-4.3718,-4.3718,-4.3615,-4.3718,-4.378,-1.0688,-1.1908,-1.3051,-1.292,-1.3619,-1.4767,-1.6407,-1.7016,-1.7135,-1.6808,-1.6495,-1.6744,-1.8107,-2.0292,-2.1669,-2.0985,-2.2948,-2.4679,-2.5002,-2.5257,-2.5491,-2.5564,-2.5827,-2.6032,-2.6047,-2.6076,-2.6061,-2.6018,-2.5754,-2.5593,-2.5564,-2.5257,-2.5017,-2.4642,-2.4973,-2.4973,-2.4679,-2.4679,-2.4826,-2.5119,-2.5119,-2.5119,-2.5119,-2.5119,-2.5119,-2.5119,-2.5149,-2.5163,-2.5178,-2.5432,-2.5388,-2.5183,-2.5813,-2.6237,-2.6544,-2.6866,-2.6983,-2.6983,-2.6983,-2.6983,-2.6983,-2.6983,-2.8155,-2.965,-3.0129,-3.1448,-3.2933,-3.3422,-3.3992,-3.4569,-3.4725,-3.5032,-3.5407,-3.5909,-3.5994,-3.6557,-3.8566,-3.8961,-3.9591,-4.1578,-4.2062,-4.2293,-4.2697,-4.2851,-4.3157,-4.3462,-4.3615,-4.3615,-4.3615,-4.3615,-4.3615,-4.3615,-4.3615,-4.3615,-4.3615,-4.3615,-4.3615,-4.3615,-4.3615,-4.3615,-4.3615,-4.3615,-4.3615,-4.3615,-4.3615,-4.3615,-4.3615,-4.4049,-4.4029,-4.3615,-4.4049,-4.4256,-1.1181,-1.1726,-1.2339,-1.2717,-1.3712,-1.5155,-1.7148,-1.8239,-1.8668,-1.8078,-1.8706,-1.9641,-2.0372,-2.1575,-2.2483,-2.2539,-2.3732,-2.4759,-2.5271,-2.5461,-2.5608,-2.5813,-2.5944,-2.593,-2.574,-2.59,-2.5857,-2.5447,-2.5301,-2.5154,-2.4935,-2.4627,-2.4393,-2.4276,-2.4393,-2.4393,-2.4276,-2.4262,-2.4335,-2.4452,-2.4723,-2.4929,-2.5119,-2.4914,-2.4826,-2.4826,-2.4826,-2.4826,-2.4774,-2.5096,-2.5169,-2.5163,-2.5535,-2.6032,-2.6515,-2.6647,-2.6822,-2.6983,-2.6983,-2.6983,-2.7129,-2.8042,-2.8982,-2.9984,-3.135,-3.2379,-3.342,-3.4847,-3.5467,-3.5807,-3.629,-3.6898,-3.7733,-3.9239,-3.961,-3.9924,-4.0938,-4.1171,-4.1424,-4.2216,-4.2621,-4.2851,-4.2927,-4.3233,-4.3386,-4.3615,-4.3615,-4.3615,-4.3615,-4.3615,-4.3615,-4.3615,-4.3615,-4.3615,-4.3615,-4.3615,-4.3615,-4.3615,-4.3615,-4.3615,-4.3615,-4.3615,-4.376,-4.4029,-4.4049,-4.4174,-4.4463,-4.465,-4.465,-4.4463,-4.465,-4.4733,-1.1891,-1.1946,-1.2163,-1.3237,-1.4212,-1.5557,-1.7905,-1.9222,-2.0061,-2.0158,-2.0963,-2.174,-2.1956,-2.2294,-2.2842,-2.3486,-2.4145,-2.4759,-2.5301,-2.5286,-2.5344,-2.5681,-2.5622,-2.5476,-2.5257,-2.552,-2.5447,-2.487,-2.4914,-2.4826,-2.4437,-2.4203,-2.4027,-2.394,-2.4027,-2.4027,-2.3925,-2.3925,-2.3984,-2.4086,-2.4203,-2.4437,-2.4811,-2.4627,-2.4569,-2.4635,-2.4686,-2.4797,-2.4811,-2.5031,-2.5119,-2.5163,-2.5403,-2.5871,-2.6354,-2.6471,-2.6993,-2.771,-2.7888,-2.8149,-2.8635,-2.972,-3.0496,-3.1253,-3.2691,-3.3744,-3.4792,-3.6458,-3.7125,-3.7557,-3.833,-3.8858,-3.9679,-4.1539,-4.2005,-4.2082,-4.2544,-4.2621,-4.26,-4.2754,-4.3004,-4.3157,-4.3157,-4.3386,-4.3615,-4.3615,-4.3615,-4.3615,-4.3615,-4.3615,-4.3615,-4.3615,-4.3615,-4.3615,-4.3615,-4.3615,-4.3615,-4.3615,-4.3615,-4.3615,-4.3615,-4.3615,-4.3822,-4.4298,-4.4298,-4.4526,-4.5002,-4.5147,-4.5126,-4.5002,-4.5147,-4.5209,-1.2797,-1.2685,-1.2991,-1.4596,-1.4888,-1.5584,-1.8466,-1.9795,-2.1012,-2.3126,-2.3062,-2.2623,-2.2623,-2.2623,-2.2828,-2.3486,-2.413,-2.4738,-2.5061,-2.4774,-2.4753,-2.5075,-2.4826,-2.4635,-2.4635,-2.4929,-2.4855,-2.413,-2.4379,-2.4423,-2.4101,-2.4071,-2.3925,-2.3603,-2.391,-2.391,-2.3588,-2.3588,-2.3749,-2.4071,-2.3749,-2.3764,-2.4101,-2.4423,-2.4554,-2.4583,-2.4973,-2.5119,-2.5119,-2.5119,-2.5119,-2.5163,-2.5403,-2.5725,-2.6047,-2.6369,-2.7681,-2.9282,-2.9704,-3.0601,-3.1559,-3.2007,-3.2879,-3.3853,-3.4309,-3.5793,-3.7453,-3.826,-3.9136,-3.9983,-4.0867,-4.0838,-4.0853,-4.2092,-4.237,-4.2524,-4.2927,-4.3024,-4.3081,-4.3539,-4.3615,-4.3615,-4.3615,-4.3615,-4.3615,-4.3615,-4.3615,-4.3615,-4.3615,-4.3615,-4.3615,-4.3615,-4.3615,-4.3615,-4.3615,-4.3615,-4.3615,-4.3615,-4.3615,-4.3615,-4.3615,-4.3615,-4.3842,-4.4298,-4.4319,-4.4546,-4.5002,-4.5457,-4.5457,-4.5022,-4.5478,-4.5685,-1.2103,-1.2322,-1.2694,-1.4351,-1.565,-1.7037,-1.8978,-2.0048,0.0,-2.2605,-2.2593,-2.2374,-2.2579,-2.2623,-2.2754,-2.3179,-2.3603,-2.3998,-2.432,-2.4291,-2.4262,-2.4364,-2.4291,-2.4232,-2.4232,-2.432,-2.4291,-2.4101,-2.3954,-2.3837,-2.3749,-2.3515,-2.3354,-2.3252,-2.3354,-2.3354,-2.3252,-2.3252,-2.331,-2.3398,-2.3296,-2.3545,-2.4086,-2.394,-2.4013,-2.4232,-2.4335,-2.4496,-2.4797,-2.5031,-2.5119,-2.5202,-2.6206,-2.6262,-2.5889,-2.7947,-2.8615,-2.8637,-3.0116,-3.0797,-3.1322,-3.2824,-3.3505,-3.4061,-3.5534,-3.6813,-3.7825,-3.8331,-3.9353,-4.0345,-4.0853,-4.1455,-4.1988,-4.2632,-4.2851,-4.2927,-4.331,-4.3386,-4.3462,-4.3615,-4.3615,-4.3615,-4.3615,-4.3615,-4.3615,-4.3615,-4.3615,-4.3615,-4.3615,-4.3615,-4.3615,-4.3615,-4.3615,-4.3615,-4.3615,-4.3615,-4.3615,-4.3615,-4.3615,-4.3615,-4.3615,-4.3925,-4.4319,-4.4774,-4.5105,-4.5498,-4.5954,-4.6078,-4.6078,-4.5954,-4.6078,-4.614,-1.2923,-1.3551,-1.4395,-1.5868,-1.6946,-1.8199,-2.0119,-2.1279,-2.212,-2.2824,-2.2769,-2.2652,-2.2945,-2.2798,-2.2769,-2.3223,-2.3471,-2.3706,-2.4042,-2.3969,-2.394,-2.4071,-2.3969,-2.3881,-2.3881,-2.4013,-2.3969,-2.372,-2.3632,-2.3486,-2.3223,-2.3149,-2.3047,-2.2915,-2.3047,-2.3106,-2.3106,-2.3106,-2.3106,-2.3106,-2.3106,-2.331,-2.3691,-2.3632,-2.3706,-2.3896,-2.4027,-2.4188,-2.4408,-2.473,-2.4929,-2.5078,-2.6506,-2.677,-2.6603,-2.8892,-2.9783,-3.002,-3.1305,-3.22,-3.2888,-3.4271,-3.4677,-3.494,-3.624,-3.7253,-3.8036,-3.8757,-3.9786,-4.0846,-4.158,-4.2146,-4.2638,-4.2905,-4.311,-4.331,-4.3539,-4.3615,-4.3615,-4.3615,-4.3615,-4.3615,-4.3615,-4.3615,-4.3615,-4.3615,-4.3615,-4.3615,-4.3615,-4.3615,-4.3615,-4.3615,-4.3615,-4.3615,-4.3615,-4.3615,-4.3615,-4.3615,-4.3615,-4.3698,-4.3884,-4.4153,-4.4608,-4.525,-4.554,-4.5892,-4.6266,-4.6266,-4.6266,-4.6266,-4.6266,-4.6266,-1.4511,-1.5539,-1.6977,-1.8183,-1.8577,-1.9301,-2.1741,-2.293,-2.3545,-2.3515,-2.3296,-2.3193,-2.3501,-2.3062,-2.2857,-2.3457,-2.3545,-2.3647,-2.391,-2.3691,-2.3618,-2.391,-2.3662,-2.3486,-2.3545,-2.3764,-2.3676,-2.3106,-2.331,-2.3208,-2.2608,-2.2857,-2.2901,-2.2637,-2.2886,-2.3032,-2.3062,-2.3062,-2.3062,-2.3062,-2.3091,-2.3106,-2.312,-2.3413,-2.3574,-2.3618,-2.394,-2.4101,-2.4145,-2.4423,-2.4687,-2.4959,-2.6597,-2.7445,-2.7967,-2.9495,-3.1052,-3.2478,-3.2967,-3.4183,-3.5477,-3.5927,-3.6084,-3.6152,-3.6511,-3.7262,-3.8247,-3.9393,-4.0402,-4.1375,-4.2526,-4.2849,-4.2911,-4.287,-4.3242,-4.3615,-4.3615,-4.3615,-4.3615,-4.3615,-4.3615,-4.3615,-4.3615,-4.3615,-4.3615,-4.3615,-4.3615,-4.3615,-4.3615,-4.3615,-4.3615,-4.3615,-4.3615,-4.3615,-4.3615,-4.3615,-4.3615,-4.3615,-4.3615,-4.3842,-4.4339,-4.436,-4.4774,-4.5664,-4.5726,-4.5933,-4.6266,-4.6266,-4.6266,-4.6266,-4.6266,-4.6266,-1.3382,-1.4298,-1.5689,-1.8023,-1.9963,-2.1653,-2.2664,-2.3062,-2.3135,-2.2886,-2.2974,-2.3135,-2.3208,-2.3106,-2.3047,-2.3193,-2.3208,-2.3149,-2.2959,-2.2871,-2.2857,-2.293,-2.2667,-2.2681,-2.3164,-2.2842,-2.2637,-2.2725,-2.2579,-2.2432,-2.2286,-2.2345,-2.2462,-2.2623,-2.2462,-2.2491,-2.2725,-2.2725,-2.2725,-2.2725,-2.2988,-2.3106,-2.3106,-2.3179,-2.3354,-2.3618,-2.394,-2.4232,-2.4452,-2.4262,-2.5126,-2.6694,-2.7931,-2.8587,-2.917,-3.1663,-3.2169,-3.1764,-3.3318,-3.4505,-3.5462,-3.6234,-3.6674,-3.6957,-3.7365,-3.8122,-3.8876,-3.9534,-4.0843,-4.2009,-4.1897,-4.2393,-4.2828,-4.2476,-4.3014,-4.3615,-4.3615,-4.3615,-4.3615,-4.3615,-4.3615,-4.3615,-4.3615,-4.3615,-4.3615,-4.3615,-4.3615,-4.3615,-4.3615,-4.3615,-4.3615,-4.3615,-4.3615,-4.3615,-4.3615,-4.3615,-4.3615,-4.3615,-4.3615,-4.3987,-4.4815,-4.4836,-4.5105,-4.5664,-4.6037,-4.6244,-4.6266,-4.6266,-4.6266,-4.6266,-4.6266,-4.6266,-1.357,-1.492,-1.6851,-1.9069,-2.0801,-2.2081,-2.2564,-2.2667,-2.2623,-2.2447,-2.2784,-2.3062,-2.2901,-2.2871,-2.2871,-2.2871,-2.2754,-2.2652,-2.2623,-2.2506,-2.2418,-2.2418,-2.2271,-2.2315,-2.2637,-2.2374,-2.2242,-2.2403,-2.2271,-2.2111,-2.1964,-2.2096,-2.2184,-2.2184,-2.2184,-2.2257,-2.2418,-2.2418,-2.2418,-2.2418,-2.2725,-2.2959,-2.3106,-2.3106,-2.3208,-2.3369,-2.3545,-2.4089,-2.4815,-2.4799,-2.5753,-2.7421,-2.9078,-2.9782,-3.0234,-3.2562,-3.3019,-3.2657,-3.3672,-3.4695,-3.5636,-3.6096,-3.6603,-3.7227,-3.7827,-3.8478,-3.9196,-4.0062,-4.107,-4.1917,-4.197,-4.2249,-4.26,-4.258,-4.2932,-4.3346,-4.3553,-4.3615,-4.3615,-4.3615,-4.3615,-4.3615,-4.3615,-4.3615,-4.3615,-4.3615,-4.3615,-4.3615,-4.3615,-4.3615,-4.3615,-4.3615,-4.3615,-4.3615,-4.3615,-4.3615,-4.3615,-4.3615,-4.3615,-4.4029,-4.496,-4.5002,-4.5312,-4.5995,-4.6223,-4.6266,-4.6266,-4.6266,-4.6266,-4.6266,-4.6493,-4.6473,-1.4171,-1.6128,-1.8503,-2.0115,-2.1089,-2.1715,-2.2096,-2.2184,-2.2184,-2.2184,-2.2593,-2.2871,-2.2593,-2.255,-2.255,-2.255,-2.2345,-2.2242,-2.2432,-2.2257,-2.2096,-2.2096,-2.2052,-2.2052,-2.2169,-2.2081,-2.2037,-2.2096,-2.2052,-2.1906,-2.1628,-2.1862,-2.192,-2.1701,-2.1906,-2.2037,-2.2096,-2.2096,-2.2096,-2.2096,-2.2447,-2.2769,-2.3032,-2.3091,-2.3106,-2.3106,-2.3106,-2.3882,-2.5183,-2.5343,-2.6421,-2.8139,-2.9914,-3.0788,-3.1232,-3.2865,-3.367,-3.3922,-3.3985,-3.4816,-3.5901,-3.5981,-3.6567,-3.7429,-3.8167,-3.8685,-3.9286,-4.046,-4.1151,-4.1648,-4.2115,-4.226,-4.2352,-4.2725,-4.287,-4.3056,-4.3511,-4.3615,-4.3615,-4.3615,-4.3615,-4.3615,-4.3615,-4.3615,-4.3615,-4.3615,-4.3615,-4.3615,-4.3615,-4.3615,-4.3615,-4.3615,-4.3615,-4.3615,-4.3615,-4.3615,-4.3615,-4.3615,-4.3698,-4.4112,-4.496,-4.5064,-4.5498,-4.6246,-4.6266,-4.6266,-4.6266,-4.6266,-4.6266,-4.6287,-4.6741,-4.6823,-1.4071,-1.6168,-1.8659,-1.9692,-2.0572,-2.1437,-2.2052,-2.2184,-2.2184,-2.2184,-2.2242,-2.2286,-2.2257,-2.2242,-2.2242,-2.2242,-2.2213,-2.2096,-2.1862,-2.1789,-2.1759,-2.1759,-2.1511,-2.1569,-2.2125,-2.1672,-2.1452,-2.1745,-2.1496,-2.132,-2.1276,-2.132,-2.1452,-2.1686,-2.1467,-2.1481,-2.1759,-2.1759,-2.1759,-2.1774,-2.2345,-2.2652,-2.2696,-2.2974,-2.3106,-2.3106,-2.3106,-2.4003,-2.5438,-2.5246,-2.6974,-2.981,-3.0167,-3.1189,-3.2646,-3.3513,-3.3859,-3.3922,-3.4235,-3.5197,-3.6286,-3.6673,-3.7427,-3.812,-3.8574,-3.9027,-3.9571,-4.0108,-4.0924,-4.1586,-4.1721,-4.2032,-4.2343,-4.2405,-4.2642,-4.3056,-4.3511,-4.3615,-4.3615,-4.3615,-4.3615,-4.3615,-4.3615,-4.3615,-4.3615,-4.3615,-4.3615,-4.3615,-4.3615,-4.3615,-4.3615,-4.3615,-4.3615,-4.3615,-4.3615,-4.3615,-4.3615,-4.3615,-4.3987,-4.4443,-4.4981,-4.5374,-4.583,-4.6246,-4.6266,-4.6266,-4.6266,-4.6266,-4.6266,-4.6287,-4.6741,-4.701,-1.4781,-1.6639,-1.8503,-1.9299,-2.0253,-2.1013,-2.1306,-2.1511,-2.1642,-2.1642,-2.1642,-2.1686,-2.1876,-2.1906,-2.1906,-2.1906,-2.1759,-2.1657,-2.1686,-2.154,-2.1423,-2.1423,-2.1306,-2.132,-2.1613,-2.1379,-2.1276,-2.1408,-2.1291,-2.1203,-2.1203,-2.1203,-2.1276,-2.1423,-2.1276,-2.1276,-2.1423,-2.1423,-2.1511,-2.1701,-2.1979,-2.2286,-2.2623,-2.2769,-2.3301,-2.4209,-2.4209,-2.5443,-2.7409,-2.7297,-2.8541,-3.055,-3.0819,-3.1667,-3.2806,-3.3344,-3.3953,-3.4485,-3.461,-3.5513,-3.6588,-3.6838,-3.746,-3.8274,-3.8641,-3.8931,-3.9241,-3.9964,-4.051,-4.0882,-4.111,-4.1524,-4.1938,-4.226,-4.26,-4.3056,-4.3511,-4.3615,-4.3615,-4.3615,-4.3615,-4.3615,-4.3615,-4.3615,-4.3615,-4.3615,-4.3615,-4.3615,-4.3615,-4.3615,-4.3615,-4.3615,-4.3615,-4.3615,-4.3615,-4.3615,-4.3718,-4.3987,-4.4194,-4.4629,-4.5354,-4.5581,-4.5892,-4.6266,-4.6266,-4.6266,-4.6266,-4.6266,-4.639,-4.6659,-4.7196,-4.7403,-1.5079,-1.6394,-1.7593,-1.8722,-1.9549,-2.0209,-2.0518,-2.0794,-2.0969,-2.0969,-2.0969,-2.1042,-2.1276,-2.1467,-2.1569,-2.1569,-2.1364,-2.1291,-2.154,-2.1364,-2.1203,-2.1203,-2.1203,-2.1203,-2.1203,-2.1203,-2.1203,-2.1203,-2.1203,-2.1203,-2.1203,-2.1203,-2.1203,-2.1203,-2.1203,-2.1203,-2.1203,-2.1203,-2.1335,-2.1569,-2.1657,-2.1979,-2.2506,-2.2944,-2.4008,-2.5562,-2.5256,-2.6581,-2.892,-2.8979,-2.9825,-3.1054,-3.1643,-3.2296,-3.2894,-3.3494,-3.4203,-3.4922,-3.4984,-3.5704,-3.6639,-3.6763,-3.7343,-3.8088,-3.8543,-3.8765,-3.9117,-4.0013,-4.0303,-4.0489,-4.0944,-4.14,-4.1908,-4.226,-4.2683,-4.318,-4.3532,-4.3615,-4.3615,-4.3615,-4.3615,-4.3615,-4.3615,-4.3615,-4.3615,-4.3615,-4.3615,-4.3615,-4.3615,-4.3615,-4.3615,-4.3615,-4.3615,-4.3615,-4.3615,-4.3718,-4.3925,-4.4277,-4.4526,-4.496,-4.5643,-4.5788,-4.6016,-4.6266,-4.6266,-4.6266,-4.6266,-4.639,-4.6699,-4.7051,-4.761,-4.7858,-1.422,-1.4847,-1.5728,-1.7659,-1.8409,-1.8888,-1.9975,-2.0212,-2.0227,-2.0227,-2.0227,-2.0241,-2.0256,-2.0823,-2.1233,-2.1233,-2.1218,-2.1218,-2.1233,-2.1218,-2.1203,-2.1203,-2.1203,-2.1203,-2.1203,-2.1203,-2.1203,-2.1203,-2.1203,-2.1203,-2.1203,-2.1203,-2.1203,-2.1203,-2.1203,-2.1203,-2.1203,-2.1203,-2.1218,-2.1233,-2.1554,-2.1876,-2.2273,-2.3805,-2.5403,-2.684,-2.5623,-2.6581,-2.892,-2.9257,-3.0119,-3.1404,-3.2555,-3.3015,-3.3216,-3.437,-3.4839,-3.4922,-3.5232,-3.5686,-3.6225,-3.666,-3.7136,-3.7612,-3.8088,-3.8812,-3.9599,-4.0096,-4.053,-4.0944,-4.14,-4.1876,-4.2302,-4.2322,-4.2932,-4.3573,-4.3594,-4.3615,-4.3615,-4.3615,-4.3615,-4.3615,-4.3615,-4.3615,-4.3615,-4.3615,-4.3615,-4.3615,-4.3615,-4.3615,-4.3615,-4.3615,-4.3615,-4.3615,-4.3615,-4.4008,-4.4277,-4.4298,-4.5126,-4.5643,-4.5685,-4.6099,-4.6246,-4.6266,-4.6266,-4.6266,-4.6266,-4.6782,-4.701,-4.7051,-4.7941,-4.8334,-1.3889,-1.4463,-1.5143,-1.6356,-1.7324,-1.8146,-1.8926,-1.9539,-1.9989,-2.0139,-2.0183,-2.0183,-2.0183,-2.0428,-2.0647,-2.0867,-2.0896,-2.0969,-2.1174,-2.1203,-2.1203,-2.1203,-2.1203,-2.1203,-2.1203,-2.1203,-2.1203,-2.1203,-2.1203,-2.1203,-2.1203,-2.1203,-2.1203,-2.1203,-2.1203,-2.1203,-2.1203,-2.1203,-2.1203,-2.1203,-2.132,-2.1554,-2.1935,-2.3523,-2.5281,-2.7002,-2.7604,-2.8842,-3.049,-3.082,-3.1189,-3.1654,-3.2071,-3.2731,-3.3436,-3.3881,-3.4554,-3.5232,-3.5356,-3.5914,-3.6577,-3.6742,-3.7322,-3.7964,-3.8129,-3.8605,-3.9179,-3.9992,-4.0303,-4.0613,-4.1379,-4.199,-4.2414,-4.2994,-4.3366,-4.3615,-4.3615,-4.3615,-4.3615,-4.3615,-4.3615,-4.3615,-4.3615,-4.3615,-4.3615,-4.3615,-4.3615,-4.3615,-4.3615,-4.3615,-4.3615,-4.3615,-4.3615,-4.3615,-4.3615,-4.4029,-4.4422,-4.4733,-4.5333,-4.5809,-4.6099,-4.6184,-4.6266,-4.6266,-4.6266,-4.6266,-4.6266,-4.6432,-4.6885,-4.7465,-4.7775,-4.8252,-1.3569,0.0,0.0,-1.5219,-1.5998,-1.6869,-1.7841,-1.8597,-1.9175,-1.9657,-1.9842,-1.9916,-1.9916,-1.9916,-2.0062,-2.0431,-2.0504,-2.0633,-2.0852,-2.0881,-2.0881,-2.0881,-2.0881,-2.0925,-2.1042,-2.1042,-2.1086,-2.1203,-2.1203,-2.1203,-2.1203,-2.1203,-2.1203,-2.1203,-2.1203,-2.1203,-2.1203,-2.1203,-2.1203,-2.1203,-2.1203,-2.161,-2.2387,-2.3981,-2.5788,-2.7674,-2.9442,-3.0704,-3.1498,-3.1845,-3.196,-3.2001,-3.24,-3.3064,-3.3795,-3.4102,-3.4717,-3.5418,-3.5418,-3.5914,-3.6597,-3.6763,-3.7322,-3.7984,-3.8129,-3.8709,-3.9406,-4.0199,-4.0634,-4.1048,-4.1814,-4.2249,-4.2663,-4.3428,-4.3615,-4.3615,-4.3615,-4.3615,-4.3615,-4.3615,-4.3615,-4.3615,-4.3615,-4.3615,-4.3615,-4.3615,-4.3615,-4.3615,-4.3615,-4.376,-4.378,-4.3635,-4.376,-4.3842,-4.3842,-4.4277,-4.4733,-4.5188,-4.5643,-4.6037,-4.6246,-4.6266,-4.6266,-4.6266,-4.6266,-4.6266,-4.6266,-4.6432,-4.6885,-4.7465,-4.761,-4.8189,0.0,0.0,0.0,-1.4228,-1.4533,-1.5115,-1.6787,-1.7369,-1.783,-1.8637,-1.9038,-1.9257,-1.9272,-1.9272,-1.9477,-2.0051,-2.0168,-2.0168,-2.0183,-2.0183,-2.0183,-2.0183,-2.0183,-2.03,-2.0676,-2.072,-2.0852,-2.1159,-2.1203,-2.1203,-2.1203,-2.1203,-2.1203,-2.1203,-2.1203,-2.1203,-2.1203,-2.1203,-2.1203,-2.1203,-2.1203,-2.1982,-2.3556,-2.5242,-2.6991,-2.8818,-3.0933,-3.1845,-3.1845,-3.219,-3.2305,-3.2465,-3.3641,-3.4111,-3.4176,-3.5066,-3.5418,-3.5418,-3.5438,-3.5749,-3.6204,-3.668,-3.7136,-3.7612,-3.8046,-3.9144,-4.0323,-4.0758,-4.1617,-4.2352,-4.2807,-4.2911,-4.3014,-4.3491,-4.3615,-4.3615,-4.3615,-4.3615,-4.3615,-4.3615,-4.3615,-4.3615,-4.3615,-4.3615,-4.3615,-4.3615,-4.3615,-4.3615,-4.3615,-4.4008,-4.4112,-4.3656,-4.4008,-4.4298,-4.4298,-4.4733,-4.5188,-4.5643,-4.6099,-4.6266,-4.6266,-4.6266,-4.6266,-4.6266,-4.6266,-4.6266,-4.6266,-4.6803,-4.703,-4.7051,-4.7506,-4.8231,-1.3437,0.0,0.0,0.0,0.0,0.0,-1.5984,-1.6643,-1.7315,-1.8535,-1.8862,-1.8994,-1.928,-1.9272,-1.933,-1.9506,-1.974,-1.9974,-2.0154,-2.0183,-2.0183,-2.0183,-2.0183,-2.0212,-2.03,-2.0589,-2.0662,-2.0516,-2.094,-2.1101,-2.0867,-2.1086,-2.1203,-2.1203,-2.1203,-2.1203,-2.1203,-2.1203,-2.1203,-2.1203,-2.1203,-2.1862,-2.3206,-2.5394,-2.7233,-2.8861,-3.114,-3.2248,-3.244,-3.2555,-3.2612,-3.2674,-3.3348,-3.3782,-3.4194,-3.4734,-3.5148,-3.548,-3.5811,-3.6225,-3.668,-3.7156,-3.7612,-3.8026,-3.815,-3.9144,-4.0323,-4.0758,-4.1617,-4.2352,-4.2807,-4.2683,-4.2642,-4.3428,-4.3615,-4.3615,-4.3615,-4.3615,-4.3615,-4.3615,-4.3615,-4.3615,-4.3615,-4.3615,-4.3615,-4.3615,-4.3615,-4.3615,-4.3615,-4.3718,-4.376,-4.3615,-4.3718,-4.3946,-4.4277,-4.4733,-4.5188,-4.5643,-4.6099,-4.6266,-4.6266,-4.6266,-4.6266,-4.6266,-4.6266,-4.6266,-4.6266,-4.639,-4.6638,-4.7072,-4.8169,-4.9162,0.0,0.0,0.0,0.0,0.0,0.0,-1.542,-1.5937,-1.6598,-1.8108,-1.8496,-1.8642,-1.8833,-1.8979,-1.9067,-1.9067,-1.9345,-1.9623,-1.9813,-1.9842,-1.9842,-1.9842,-1.9842,-1.9886,-2.0033,-2.0208,-2.0296,-2.0183,-2.072,-2.0984,-2.0925,-2.1101,-2.1203,-2.1203,-2.1203,-2.1203,-2.1203,-2.1203,-2.1318,-2.1603,-2.1816,-2.2765,-2.439,-2.6367,-2.8088,-2.9718,-3.1499,-3.242,-3.2669,-3.2669,-3.2669,-3.2789,-3.343,-3.3883,-3.4214,-3.4797,-3.519,-3.5459,-3.5728,-3.6246,-3.6846,-3.7115,-3.7653,-3.8212,-3.8398,-3.9413,-4.0593,-4.1027,-4.1959,-4.289,-4.3139,-4.3014,-4.2952,-4.3491,-4.3615,-4.3615,-4.3615,-4.3615,-4.3615,-4.3615,-4.3615,-4.3615,-4.3615,-4.3615,-4.3615,-4.3615,-4.3615,-4.3615,-4.3615,-4.378,-4.3822,-4.3635,-4.3967,-4.4298,-4.4567,-4.5022,-4.5478,-4.5933,-4.6202,-4.6266,-4.6266,-4.6266,-4.6266,-4.6266,-4.6266,-4.637,-4.6555,-4.637,-4.6678,-4.7341,-4.8914,-4.9908,0.0,0.0,0.0,0.0,-1.3351,0.0,-1.4949,-1.533,-1.582,-1.7418,-1.7925,-1.8178,-1.8394,-1.8613,-1.8803,-1.8833,-1.9081,-1.9272,-1.9272,-1.9272,-1.9272,-1.9272,-1.9272,-1.9441,-1.9735,-1.9793,-1.9872,-2.0051,-2.0457,-2.0808,-2.113,-2.1189,-2.1203,-2.1203,-2.1203,-2.1261,-2.1375,-2.1432,-2.1759,-2.2441,-2.303,-2.43,-2.6282,-2.7735,-2.9288,-3.0942,-3.1917,-3.2498,-3.2669,-3.2669,-3.2669,-3.2752,-3.372,-3.4132,-3.4235,-3.5086,-3.5418,-3.5438,-3.548,-3.608,-3.6804,-3.6867,-3.7467,-3.8253,-3.8647,-3.9723,-4.0924,-4.1545,-4.26,-4.3553,-4.3594,-4.3573,-4.3553,-4.3594,-4.3615,-4.3615,-4.3615,-4.3615,-4.3615,-4.3615,-4.3615,-4.3615,-4.3615,-4.3615,-4.3615,-4.3615,-4.3615,-4.3615,-4.3615,-4.3967,-4.4091,-4.3718,-4.4422,-4.496,-4.5064,-4.5436,-4.5871,-4.6225,-4.6308,-4.6349,-4.6349,-4.6471,-4.639,-4.6349,-4.6349,-4.6535,-4.703,-4.6597,-4.6968,-4.7879,-4.9618,-5.0446,0.0,0.0,0.0,-1.3814,-1.3717,0.0,-1.4389,-1.453,-1.5085,-1.69,-1.7162,-1.7457,-1.8833,-1.8921,-1.8877,-1.914,-1.9242,-1.9272,-1.9272,-1.9272,-1.9272,-1.9272,-1.9272,-1.9353,-1.936,-1.9661,-1.9735,-1.9477,-2.0003,-2.0416,-2.0794,-2.1072,-2.1203,-2.1203,-2.1203,-2.166,-2.2652,-2.2846,-2.3503,-2.4578,-2.4948,-2.5827,-2.7206,-2.8458,-2.9698,-3.0942,-3.2087,-3.2669,-3.2669,-3.2669,-3.2669,-3.2752,-3.372,-3.4132,-3.4235,-3.5086,-3.5418,-3.548,-3.5852,-3.6349,-3.6867,-3.7239,-3.7736,-3.8191,-3.8295,-3.9268,-4.0675,-4.2228,-4.2849,-4.3139,-4.3511,-4.3325,-4.3139,-4.3532,-4.3615,-4.3615,-4.3615,-4.3615,-4.3615,-4.3615,-4.3615,-4.3615,-4.3615,-4.3615,-4.3615,-4.3615,-4.3615,-4.3615,-4.3615,-4.3698,-4.3863,-4.4132,-4.4319,-4.4733,-4.5478,-4.5643,-4.5871,-4.6225,-4.6617,-4.6824,-4.6824,-4.7237,-4.7258,-4.6824,-4.6824,-4.6947,-4.703,-4.7299,-4.79,-4.881,-4.9908,-5.0611,-1.4461,-1.4191,-1.4169,-1.404,-1.3911,0.0,0.0,-1.4471,-1.4701,-1.6184,-1.6192,-1.6316,-1.7674,-1.7988,-1.8196,-1.8709,-1.9067,-1.9272,-1.9272,-1.9272,-1.9272,-1.9272,-1.9272,-1.9272,-1.9272,-1.947,-1.9573,-1.9573,-1.9813,-2.0208,-2.0691,-2.0881,-2.1042,-2.1203,-2.1203,-2.1759,-2.2974,-2.3279,-2.4172,-2.5643,-2.6227,-2.7041,-2.8067,-2.9415,-3.0439,-3.1182,-3.2277,-3.2669,-3.2669,-3.2669,-3.2851,-3.312,-3.3803,-3.4132,-3.4235,-3.5086,-3.5418,-3.55,-3.5956,-3.6411,-3.6887,-3.7343,-3.7819,-3.8233,-3.846,-3.964,-4.1234,-4.2828,-4.3263,-4.3325,-4.3553,-4.3449,-4.3325,-4.3553,-4.3615,-4.3615,-4.3615,-4.3615,-4.3615,-4.3615,-4.3615,-4.3615,-4.3615,-4.3615,-4.3615,-4.3615,-4.3615,-4.3615,-4.3615,-4.3615,-4.378,-4.4256,-4.4505,-4.4919,-4.5623,-4.5892,-4.6202,-4.6576,-4.6617,-4.6885,-4.7341,-4.7134,-4.703,-4.703,-4.703,-4.7382,-4.8045,-4.85,-4.8955,-4.9431,-5.057,-5.1232,-1.4461,-1.4223,-1.4245,-1.4202,-1.4073,-1.4092,0.0,0.0,0.0,-1.548,-1.5468,-1.5603,-1.6657,-1.7222,-1.7668,-1.8207,-1.8847,-1.9228,-1.9111,-1.9199,-1.9272,-1.9272,-1.9272,-1.9272,-1.9272,-1.9382,-1.9447,-1.9705,-1.9784,-2.0047,-2.0516,-2.0662,-2.095,-2.1442,-2.1517,-2.2256,-2.3743,-2.4005,-2.5058,-2.6789,-2.7546,-2.8301,-2.9113,-3.0425,-3.1182,-3.1547,-3.2375,-3.2669,-3.2747,-3.283,-3.3058,-3.343,-3.3945,-3.4194,-3.436,-3.5128,-3.5418,-3.55,-3.5956,-3.6411,-3.6887,-3.7343,-3.786,-3.8419,-3.8957,-4.0261,-4.1835,-4.3118,-4.3532,-4.3615,-4.3615,-4.3615,-4.3615,-4.3615,-4.3615,-4.3615,-4.3615,-4.3615,-4.3615,-4.3615,-4.3615,-4.3615,-4.3615,-4.3615,-4.3615,-4.3615,-4.3615,-4.3615,-4.3615,-4.3615,-4.3822,-4.4381,-4.4774,-4.5209,-4.5768,-4.614,-4.6432,-4.6885,-4.6555,-4.6803,-4.7527,-4.6947,-4.6782,-4.7154,-4.7341,-4.7962,-4.9059,-4.9701,-5.0011,-5.0052,-5.1232,-5.1791,-1.4611,-1.4342,-1.4449,-1.4245,-1.432,-1.4342,-1.4017,0.0,-1.4104,-1.5024,0.0,-1.6251,-1.7574,0.0,0.0,-1.835,-1.8847,-1.9067,-1.8496,-1.8906,-1.9272,-1.9272,-1.9272,-1.9272,-1.9272,-1.9588,-1.9661,-1.9397,-1.9857,-2.0091,-1.994,-2.0413,-2.1223,-2.2348,-2.2648,-2.3966,-2.6427,-2.6771,-2.7707,-2.9217,-2.9554,-2.999,-3.0508,-3.1078,-3.1533,-3.1946,-3.2499,-3.2669,-3.2711,-3.3141,-3.3327,-3.343,-3.3945,-3.438,-3.4795,-3.5231,-3.5418,-3.55,-3.5956,-3.6411,-3.6887,-3.7343,-3.8067,-3.8869,-3.9736,-4.0779,-4.1772,-4.2725,-4.3304,-4.3615,-4.3615,-4.3615,-4.3615,-4.3615,-4.3615,-4.3615,-4.3615,-4.3615,-4.3615,-4.3615,-4.3615,-4.3615,-4.3615,-4.3615,-4.3615,-4.3615,-4.3615,-4.3615,-4.3615,-4.3615,-4.3946,-4.4815,-4.496,-4.5333,-4.6202,-4.6225,-4.6287,-4.6349,-4.6679,-4.701,-4.7113,-4.7382,-4.7548,-4.761,-4.8417,-4.8914,-4.9059,-5.0342,-5.0963,-5.0963,-5.1543,-5.1791,-1.5992,-1.5702,-1.5749,-1.5642,-1.5379,-1.5024,-1.4809,-1.4281,-1.3963,-1.4487,0.0,0.0,0.0,0.0,0.0,0.0,-1.8979,-1.9184,-1.8906,-1.9096,-1.9272,-1.9272,-1.9272,-1.9272,-1.9272,-1.9456,-1.947,-1.9286,-1.952,-1.9696,-1.9808,-2.0831,-2.1752,-2.2505,-2.3435,-2.4948,-2.6861,-2.7222,-2.8155,-2.9606,-2.9889,-3.0243,-3.0698,-3.1174,-3.1609,-3.2008,-3.2483,-3.2669,-3.2768,-3.3203,-3.3534,-3.3824,-3.4339,-3.465,-3.4878,-3.5252,-3.5583,-3.5894,-3.6349,-3.6825,-3.7281,-3.7736,-3.8502,-3.9344,-4.0323,-4.1234,-4.2166,-4.3056,-4.347,-4.3615,-4.3615,-4.3615,-4.3615,-4.3615,-4.3615,-4.3615,-4.3615,-4.3615,-4.3615,-4.3615,-4.3615,-4.3615,-4.3615,-4.3615,-4.3615,-4.3615,-4.3615,-4.3615,-4.3615,-4.3615,-4.3967,-4.4898,-4.5002,-4.5354,-4.6264,-4.6266,-4.639,-4.674,-4.7175,-4.7299,-4.7051,-4.7444,-4.7817,-4.8086,-4.8728,-4.9328,-4.9845,-5.0694,-5.1253,-5.1522,-5.1708,-5.1791,-1.6961,-1.6838,-1.6927,-1.6721,-1.6308,-1.5916,-1.5844,-1.5258,-1.4733,-1.4857,-1.5369,0.0,0.0,0.0,0.0,0.0,0.0,-1.9213,-1.9038,-1.9155,-1.9272,-1.9272,-1.9272,-1.9368,-1.9456,-1.9456,-1.9456,-1.9456,-1.9456,-1.9558,-1.9808,-2.1217,-2.2301,-2.2982,-2.4484,-2.5991,-2.7473,-2.7814,-2.8581,-2.9711,-3.0013,-3.0429,-3.0884,-3.136,-3.1795,-3.2194,-3.2525,-3.2789,-3.2934,-3.3389,-3.3844,-3.436,-3.4755,-3.4941,-3.4983,-3.5293,-3.5645,-3.5997,-3.6597,-3.7198,-3.7736,-3.8088,-3.8874,-3.9868,-4.0634,-4.1607,-4.26,-4.3387,-4.3615,-4.3615,-4.3615,-4.3615,-4.3615,-4.3615,-4.3615,-4.3615,-4.3615,-4.3615,-4.3615,-4.3615,-4.3615,-4.3615,-4.3615,-4.3615,-4.3615,-4.3615,-4.3615,-4.3615,-4.3615,-4.3718,-4.4112,-4.4898,-4.5105,-4.5498,-4.6204,-4.6266,-4.6696,-4.7622,-4.7672,-4.7941,-4.8567,-4.8107,-4.8337,-4.9281,-4.9378,-5.0065,-5.1383,-5.1334,-5.1729,-5.2581,-5.2062,-5.1791,-1.7013,-1.713,-1.741,-1.6863,-1.6873,-1.7,-1.6734,-1.6886,-1.7,-1.6681,-1.7569,-1.8304,-1.803,0.0,0.0,0.0,0.0,0.0,0.0,-1.8877,-1.9272,-1.9272,-1.9272,-1.9456,-1.9764,-1.9793,-1.9793,-1.9793,-1.9793,-1.9808,-1.9823,-2.1217,-2.2662,-2.4216,-2.5901,-2.7527,-2.9026,-2.9343,-2.9659,-2.9994,-3.045,-3.0905,-3.136,-3.1816,-3.2215,-3.2649,-3.2669,-3.2975,-3.3389,-3.3844,-3.438,-3.4837,-3.5231,-3.5397,-3.5397,-3.5418,-3.5438,-3.5562,-3.6494,-3.7405,-3.8171,-3.8171,-3.9102,-4.0282,-4.0737,-4.1835,-4.2994,-4.347,-4.3615,-4.3615,-4.3615,-4.3615,-4.3615,-4.3615,-4.3615,-4.3615,-4.3615,-4.3615,-4.3615,-4.3615,-4.3615,-4.3615,-4.3615,-4.3615,-4.3615,-4.3615,-4.3615,-4.3615,-4.3615,-4.4008,-4.4463,-4.494,-4.5395,-4.585,-4.6225,-4.6266,-4.7241,-4.9359,-4.8392,-4.92,-5.2548,-4.9876,-4.9386,-5.1576,-5.0755,-5.1471,-5.3735,-5.2418,-5.274,-5.4498,-5.2671,-5.1791,-1.912,-1.9192,-1.9248,-1.8842,-1.8372,-1.7929,-1.7635,-1.7368,-1.7121,-1.6787,-1.7649,-1.8398,-1.8044,0.0,0.0,0.0,0.0,0.0,0.0,-1.914,-1.9272,-1.9272,-1.9272,-1.9316,-1.9485,-1.95,-1.95,-1.95,-1.95,-1.95,-1.95,-2.1835,-2.3434,-2.3926,-2.6651,-2.8441,-2.9079,-2.9448,-2.9876,-3.045,-3.0615,-3.1091,-3.1816,-3.1926,-3.2235,-3.2747,-3.3037,-3.3244,-3.343,-3.4256,-3.4671,-3.4857,-3.5252,-3.5418,-3.5418,-3.5418,-3.5811,-3.6473,-3.7384,-3.7922,-3.8233,-3.8523,-3.9537,-4.0737,-4.1193,-4.229,-4.3408,-4.3573,-4.3615,-4.3615,-4.3615,-4.3615,-4.3615,-4.3615,-4.3615,-4.3615,-4.3615,-4.3615,-4.3615,-4.3615,-4.3615,-4.3615,-4.3615,-4.3615,-4.3615,-4.3615,-4.3863,-4.3967,-4.3656,-4.4277,-4.4815,-4.4981,-4.5416,-4.5871,-4.6225,-4.6555,-4.7578,-4.9439,-4.8392,-4.956,-5.375,-5.0625,-5.0103,-5.2621,-5.2671,-5.3082,-5.3931,-5.373,-5.3967,-5.4587,-5.2671,-5.1791,-2.0212,-2.027,-2.0325,-2.0018,-1.9452,-1.8935,-1.8685,-1.8357,-1.805,-1.7688,-1.8342,-1.884,-1.8531,0.0,0.0,0.0,0.0,0.0,0.0,-1.9272,-1.9272,-1.9272,-1.9272,-1.9368,-1.9485,-1.9345,-1.933,-1.95,-1.9397,-1.933,-1.95,-2.2205,-2.3858,-2.3979,-2.715,-2.894,-2.9079,-2.9501,-3.0063,-3.0677,-3.0864,-3.1319,-3.1988,-3.2153,-3.254,-3.2975,-3.3265,-3.3575,-3.3906,-3.4567,-3.492,-3.5024,-3.5314,-3.5418,-3.5418,-3.5418,-3.5997,-3.6908,-3.7674,-3.8046,-3.8253,-3.8709,-3.9661,-4.0758,-4.1379,-4.2414,-4.3366,-4.3366,-4.3491,-4.3573,-4.3408,-4.3491,-4.3615,-4.3615,-4.3615,-4.3615,-4.3615,-4.3615,-4.3615,-4.3615,-4.3615,-4.3615,-4.3615,-4.3615,-4.3615,-4.3615,-4.3863,-4.3946,-4.3656,-4.4422,-4.5002,-4.5002,-4.554,-4.6037,-4.6246,-4.7457,-4.8935,-5.0663,-5.0311,-5.1908,-5.6032,-5.298,-5.2559,-5.5222,-5.4976,-5.5374,-5.6332,-5.5181,-5.5269,-5.6468,-5.3277,-5.2152]},{"header":{"parameterUnit":"m.s-1","parameterCategory":1,"la1":30.6,"la2":29.2853,"lo1":-89.7004,"lo2":-87.6739,"dx":0.0162,"dy":0.0183,"nx":112,"ny":82,"refTime":"2023-02-05T06:00:00:Z","depth":0,"parameterNumber":3,"parameterNumberName":"V-component_of_WINDS"},"data":[0.0,0.0,0.0,0.0,0.0,0.0,0.0,0.0,0.0,0.0,0.0,0.0,0.0,0.0,0.0,0.0,0.0,0.0,0.0,0.0,0.0,0.0,0.0,0.0,0.0,0.0,0.0,0.0,0.0,0.0,0.0,0.0,0.0,0.0,0.0,0.0,0.0,0.0,0.0,0.0,0.0,0.0,0.0,0.0,0.0,0.0,0.0,0.0,0.0,0.0,0.0,0.0,0.0,0.0,0.0,0.0,0.0,0.0,0.0,0.0,0.0,0.0,0.0,0.0,0.0,0.0,0.0,0.0,0.0,0.0,0.0,0.0,0.0,0.0,0.0,0.0,0.0,0.0,0.0,0.0,0.0,0.0,0.0,0.0,0.0,0.0,0.0,0.0,0.0,0.0,5.406,5.5633,5.5794,5.5794,5.5794,5.4546,5.3686,5.3456,0.0,0.0,0.0,0.0,0.0,0.0,0.0,0.0,0.0,0.0,0.0,0.0,0.0,0.0,0.0,0.0,0.0,0.0,0.0,0.0,0.0,0.0,0.0,0.0,0.0,0.0,0.0,0.0,0.0,0.0,0.0,0.0,0.0,0.0,0.0,0.0,0.0,0.0,0.0,0.0,0.0,0.0,0.0,0.0,0.0,0.0,0.0,0.0,0.0,0.0,0.0,0.0,0.0,0.0,0.0,0.0,0.0,0.0,0.0,0.0,0.0,0.0,0.0,0.0,0.0,0.0,0.0,0.0,0.0,0.0,0.0,0.0,0.0,0.0,0.0,0.0,0.0,0.0,0.0,0.0,0.0,0.0,0.0,0.0,0.0,0.0,0.0,0.0,0.0,0.0,0.0,0.0,0.0,0.0,0.0,0.0,0.0,0.0,0.0,0.0,0.0,0.0,0.0,0.0,5.5131,5.65,5.6638,5.6638,5.6638,5.6381,5.58,5.4697,0.0,0.0,0.0,0.0,0.0,0.0,0.0,0.0,0.0,0.0,0.0,0.0,0.0,0.0,0.0,0.0,0.0,0.0,0.0,0.0,0.0,0.0,0.0,0.0,0.0,0.0,0.0,0.0,0.0,0.0,0.0,0.0,0.0,0.0,0.0,0.0,0.0,0.0,0.0,0.0,0.0,0.0,0.0,0.0,0.0,0.0,0.0,0.0,0.0,0.0,0.0,0.0,0.0,0.0,0.0,0.0,0.0,0.0,0.0,0.0,0.0,0.0,0.0,0.0,0.0,0.0,0.0,0.0,0.0,0.0,0.0,0.0,0.0,0.0,0.0,0.0,0.0,0.0,0.0,0.0,0.0,0.0,0.0,0.0,0.0,0.0,0.0,0.0,0.0,0.0,0.0,0.0,0.0,0.0,0.0,0.0,0.0,0.0,0.0,0.0,0.0,0.0,0.0,5.5279,5.6418,5.6757,5.6822,5.6822,5.6822,5.6418,5.5807,5.4944,5.4633,0.0,0.0,0.0,0.0,0.0,0.0,0.0,0.0,0.0,0.0,0.0,0.0,0.0,0.0,0.0,0.0,0.0,0.0,0.0,0.0,0.0,0.0,0.0,0.0,0.0,0.0,0.0,0.0,0.0,0.0,0.0,0.0,0.0,0.0,0.0,0.0,0.0,0.0,0.0,0.0,0.0,0.0,0.0,0.0,0.0,0.0,0.0,0.0,0.0,0.0,0.0,0.0,0.0,0.0,0.0,0.0,0.0,0.0,0.0,0.0,0.0,0.0,0.0,0.0,0.0,0.0,0.0,0.0,0.0,0.0,0.0,0.0,0.0,0.0,0.0,0.0,0.0,0.0,0.0,0.0,0.0,0.0,0.0,0.0,0.0,0.0,0.0,0.0,0.0,0.0,0.0,0.0,0.0,0.0,0.0,0.0,0.0,0.0,0.0,0.0,0.0,0.0,5.6526,5.7513,5.738,5.7374,5.7374,5.7374,5.662,5.6027,5.562,5.5685,0.0,0.0,0.0,0.0,0.0,0.0,0.0,0.0,0.0,0.0,0.0,0.0,0.0,0.0,0.0,0.0,0.0,0.0,0.0,0.0,0.0,0.0,0.0,0.0,0.0,0.0,0.0,0.0,0.0,0.0,0.0,0.0,0.0,0.0,0.0,0.0,0.0,0.0,0.0,0.0,0.0,0.0,0.0,0.0,0.0,0.0,0.0,0.0,0.0,0.0,0.0,0.0,0.0,0.0,0.0,0.0,0.0,0.0,0.0,0.0,0.0,0.0,0.0,0.0,0.0,0.0,0.0,0.0,0.0,0.0,0.0,0.0,0.0,0.0,0.0,0.0,0.0,0.0,0.0,0.0,0.0,0.0,0.0,0.0,0.0,0.0,0.0,0.0,0.0,0.0,0.0,0.0,0.0,0.0,0.0,0.0,0.0,0.0,0.0,0.0,0.0,0.0,5.7627,5.8221,5.8934,5.9009,5.9009,5.9009,5.8296,5.7771,5.7696,5.674,0.0,0.0,0.0,0.0,0.0,0.0,0.0,0.0,0.0,0.0,0.0,0.0,0.0,0.0,0.0,0.0,0.0,0.0,0.0,0.0,0.0,0.0,0.0,0.0,0.0,0.0,0.0,0.0,0.0,0.0,0.0,0.0,0.0,0.0,0.0,0.0,0.0,0.0,0.0,0.0,0.0,0.0,0.0,0.0,0.0,0.0,0.0,0.0,0.0,0.0,0.0,0.0,0.0,0.0,0.0,0.0,0.0,0.0,0.0,0.0,0.0,0.0,0.0,0.0,0.0,0.0,0.0,0.0,0.0,0.0,0.0,0.0,0.0,0.0,0.0,0.0,0.0,0.0,0.0,0.0,0.0,0.0,0.0,0.0,0.0,0.0,0.0,0.0,0.0,0.0,0.0,0.0,0.0,0.0,0.0,0.0,0.0,0.0,0.0,0.0,0.0,0.0,5.7958,5.8415,5.8461,5.8455,5.8455,5.8455,5.8159,5.7979,5.7884,0.0,0.0,0.0,0.0,0.0,0.0,0.0,0.0,0.0,0.0,0.0,0.0,0.0,0.0,0.0,0.0,0.0,0.0,0.0,0.0,0.0,0.0,0.0,0.0,0.0,0.0,0.0,0.0,0.0,0.0,0.0,0.0,0.0,0.0,0.0,0.0,0.0,0.0,0.0,0.0,0.0,0.0,0.0,0.0,0.0,0.0,0.0,0.0,0.0,0.0,0.0,0.0,0.0,0.0,0.0,0.0,0.0,0.0,0.0,0.0,0.0,0.0,0.0,0.0,0.0,0.0,0.0,0.0,0.0,0.0,0.0,0.0,0.0,0.0,0.0,0.0,0.0,0.0,0.0,0.0,0.0,0.0,0.0,0.0,0.0,0.0,0.0,0.0,0.0,0.0,0.0,0.0,0.0,0.0,0.0,0.0,0.0,0.0,0.0,0.0,0.0,0.0,5.8051,5.8559,5.8912,5.8791,5.877,5.871,5.8566,5.8566,5.849,5.8315,0.0,0.0,0.0,0.0,0.0,0.0,0.0,0.0,0.0,0.0,0.0,0.0,0.0,0.0,0.0,0.0,0.0,0.0,0.0,0.0,0.0,0.0,0.0,0.0,0.0,0.0,0.0,0.0,0.0,0.0,0.0,0.0,0.0,0.0,0.0,0.0,0.0,0.0,0.0,0.0,0.0,0.0,0.0,0.0,0.0,0.0,0.0,0.0,0.0,0.0,0.0,0.0,0.0,0.0,0.0,0.0,0.0,0.0,0.0,0.0,0.0,0.0,0.0,0.0,0.0,0.0,0.0,0.0,0.0,0.0,0.0,0.0,0.0,0.0,0.0,0.0,0.0,0.0,0.0,0.0,0.0,0.0,0.0,0.0,0.0,0.0,0.0,0.0,0.0,0.0,0.0,0.0,0.0,0.0,0.0,0.0,0.0,0.0,0.0,0.0,0.0,0.0,5.9168,5.9505,5.9922,6.0328,6.0356,6.0188,5.9826,5.9793,5.9605,0.0,0.0,0.0,0.0,0.0,0.0,0.0,0.0,0.0,0.0,0.0,0.0,0.0,0.0,0.0,0.0,0.0,0.0,0.0,0.0,0.0,0.0,0.0,0.0,0.0,0.0,0.0,0.0,0.0,0.0,0.0,0.0,0.0,0.0,0.0,0.0,0.0,0.0,0.0,0.0,0.0,0.0,0.0,0.0,0.0,0.0,0.0,0.0,0.0,0.0,0.0,0.0,0.0,0.0,0.0,0.0,0.0,0.0,0.0,0.0,0.0,0.0,0.0,0.0,0.0,0.0,0.0,0.0,0.0,0.0,0.0,0.0,0.0,0.0,0.0,0.0,0.0,0.0,0.0,0.0,0.0,0.0,0.0,0.0,0.0,0.0,0.0,0.0,0.0,0.0,0.0,0.0,0.0,0.0,0.0,0.0,0.0,0.0,0.0,0.0,0.0,0.0,0.0,5.918,5.8819,5.8566,5.8689,5.871,5.8648,5.8524,5.8503,5.8586,5.877,0.0,0.0,0.0,0.0,0.0,0.0,0.0,0.0,0.0,0.0,0.0,0.0,0.0,0.0,0.0,0.0,0.0,0.0,0.0,0.0,0.0,0.0,0.0,0.0,0.0,0.0,0.0,0.0,0.0,0.0,0.0,0.0,0.0,0.0,0.0,0.0,0.0,0.0,0.0,0.0,0.0,0.0,0.0,0.0,0.0,0.0,0.0,0.0,0.0,0.0,0.0,0.0,0.0,0.0,0.0,0.0,0.0,0.0,0.0,0.0,0.0,0.0,0.0,0.0,0.0,0.0,0.0,0.0,0.0,0.0,0.0,0.0,0.0,0.0,0.0,0.0,0.0,0.0,0.0,0.0,0.0,0.0,0.0,0.0,0.0,0.0,0.0,0.0,0.0,0.0,0.0,0.0,0.0,0.0,0.0,0.0,0.0,0.0,0.0,0.0,0.0,0.0,5.9639,5.914,5.8791,5.8949,5.8968,5.891,5.873,5.8545,5.8566,5.8831,0.0,0.0,0.0,0.0,0.0,0.0,0.0,0.0,0.0,0.0,0.0,0.0,0.0,0.0,0.0,0.0,0.0,0.0,0.0,0.0,0.0,0.0,0.0,0.0,0.0,0.0,0.0,0.0,0.0,0.0,0.0,0.0,0.0,0.0,0.0,0.0,0.0,0.0,0.0,0.0,0.0,0.0,0.0,0.0,0.0,0.0,0.0,0.0,0.0,0.0,0.0,0.0,0.0,0.0,0.0,0.0,0.0,0.0,0.0,0.0,0.0,0.0,0.0,0.0,0.0,0.0,0.0,0.0,0.0,0.0,0.0,0.0,0.0,0.0,0.0,0.0,0.0,0.0,0.0,0.0,0.0,0.0,0.0,0.0,0.0,0.0,0.0,0.0,0.0,0.0,0.0,0.0,0.0,0.0,0.0,0.0,0.0,0.0,0.0,0.0,0.0,0.0,6.0256,5.9953,5.9858,6.0144,6.0203,6.0084,5.9656,5.9307,5.9103,5.9103,0.0,0.0,0.0,0.0,0.0,0.0,0.0,0.0,0.0,0.0,0.0,0.0,0.0,0.0,0.0,0.0,0.0,0.0,0.0,0.0,0.0,0.0,0.0,0.0,0.0,0.0,0.0,0.0,0.0,0.0,0.0,0.0,0.0,0.0,0.0,0.0,0.0,0.0,0.0,0.0,0.0,0.0,0.0,0.0,0.0,0.0,0.0,0.0,0.0,0.0,0.0,0.0,0.0,0.0,0.0,0.0,0.0,0.0,0.0,0.0,6.4166,6.3838,0.0,0.0,0.0,0.0,0.0,0.0,0.0,0.0,0.0,0.0,0.0,0.0,0.0,0.0,0.0,0.0,0.0,0.0,0.0,0.0,0.0,0.0,0.0,0.0,0.0,0.0,0.0,0.0,0.0,0.0,0.0,0.0,0.0,0.0,0.0,0.0,0.0,0.0,0.0,0.0,5.9485,5.9379,5.9122,5.8566,5.8811,5.8831,5.8412,5.8319,5.8275,5.8275,5.8275,0.0,0.0,0.0,0.0,0.0,0.0,0.0,0.0,0.0,0.0,0.0,0.0,0.0,0.0,0.0,0.0,0.0,0.0,0.0,0.0,0.0,0.0,0.0,0.0,0.0,0.0,0.0,0.0,0.0,0.0,0.0,0.0,0.0,0.0,0.0,0.0,0.0,0.0,0.0,0.0,0.0,0.0,0.0,0.0,0.0,0.0,0.0,0.0,0.0,0.0,0.0,0.0,0.0,0.0,0.0,0.0,0.0,0.0,0.0,6.6459,6.6002,0.0,0.0,0.0,0.0,0.0,0.0,0.0,0.0,0.0,0.0,0.0,0.0,0.0,0.0,0.0,0.0,0.0,0.0,0.0,0.0,0.0,0.0,0.0,0.0,0.0,0.0,0.0,0.0,0.0,0.0,0.0,0.0,0.0,0.0,0.0,0.0,0.0,0.0,0.0,0.0,5.9809,5.9793,5.9605,5.9178,5.9159,5.9065,5.889,5.8482,5.8282,5.8282,5.8282,0.0,0.0,0.0,0.0,0.0,0.0,0.0,0.0,0.0,0.0,0.0,0.0,0.0,0.0,0.0,0.0,0.0,0.0,0.0,0.0,0.0,0.0,0.0,0.0,0.0,0.0,0.0,0.0,0.0,0.0,0.0,0.0,0.0,0.0,0.0,0.0,0.0,0.0,0.0,0.0,0.0,0.0,0.0,0.0,0.0,0.0,0.0,0.0,0.0,0.0,0.0,0.0,0.0,6.7588,6.8046,6.7687,6.8438,6.9082,6.9578,6.8852,6.8394,6.8088,6.74,0.0,0.0,0.0,0.0,0.0,0.0,0.0,0.0,0.0,0.0,0.0,0.0,0.0,0.0,0.0,0.0,0.0,0.0,0.0,0.0,0.0,0.0,6.7482,6.9413,6.9581,6.8736,6.6482,0.0,0.0,0.0,0.0,0.0,0.0,0.0,0.0,0.0,0.0,0.0,6.0188,6.0173,6.0129,5.9984,5.9777,5.9571,5.9502,5.889,5.8519,5.8519,5.8519,5.8868,0.0,0.0,0.0,0.0,0.0,0.0,0.0,0.0,0.0,0.0,0.0,0.0,0.0,0.0,0.0,0.0,0.0,0.0,0.0,0.0,0.0,0.0,0.0,0.0,0.0,0.0,0.0,0.0,0.0,0.0,0.0,0.0,5.9331,6.0162,0.0,0.0,0.0,0.0,0.0,0.0,0.0,0.0,0.0,0.0,0.0,0.0,0.0,6.6636,6.6865,6.7106,6.7898,6.9208,6.9435,7.027,7.1598,7.2078,7.1985,7.1336,7.1259,0.0,6.9005,6.889,0.0,0.0,0.0,0.0,0.0,0.0,0.0,0.0,0.0,0.0,0.0,0.0,0.0,0.0,0.0,0.0,0.0,0.0,0.0,0.0,0.0,0.0,6.6424,6.7388,6.7598,6.7239,6.6217,6.663,6.6759,6.5165,6.49,6.4596,0.0,0.0,0.0,0.0,0.0,0.0,5.9415,5.9361,5.9103,5.8391,5.8566,5.8607,5.8275,5.8142,5.8051,5.8051,5.8051,5.8419,5.9241,5.9301,0.0,0.0,0.0,0.0,0.0,0.0,0.0,0.0,0.0,0.0,0.0,0.0,0.0,0.0,0.0,0.0,0.0,0.0,0.0,0.0,0.0,0.0,0.0,0.0,0.0,0.0,0.0,0.0,0.0,5.9368,6.019,6.1023,6.0725,6.0715,0.0,0.0,0.0,0.0,0.0,0.0,0.0,0.0,0.0,6.6789,6.7668,6.8317,6.8776,6.9925,7.0618,7.0867,7.2294,7.3132,7.3361,7.3598,7.3476,7.3093,7.2635,7.1718,7.0533,6.9578,6.8776,6.8088,0.0,0.0,0.0,0.0,6.8623,6.8699,6.9158,6.9311,6.9311,6.9311,0.0,0.0,0.0,0.0,0.0,0.0,0.0,6.5796,6.7439,6.7136,6.6586,6.7385,6.7576,6.7347,6.6586,6.647,6.6233,6.502,6.4792,6.4509,6.3658,6.3169,0.0,0.0,0.0,5.9995,5.9613,5.9343,5.9159,5.9046,5.877,5.8524,5.8348,5.8119,5.7997,5.7997,5.7997,5.8547,5.9832,5.9869,6.0272,0.0,0.0,0.0,0.0,0.0,0.0,0.0,0.0,0.0,0.0,0.0,0.0,0.0,0.0,0.0,0.0,0.0,0.0,0.0,0.0,0.0,0.0,0.0,0.0,0.0,0.0,0.0,0.0,6.0354,6.1174,6.1596,6.1646,6.1609,0.0,0.0,0.0,0.0,0.0,0.0,6.5987,6.7286,6.8241,6.8852,6.9922,7.0763,7.1374,7.2864,7.3399,7.2979,7.4889,7.5577,7.5157,7.5157,7.4927,7.4507,7.3896,7.3017,7.1909,7.0457,6.9578,6.9158,6.8699,6.8394,6.8317,6.9196,6.9502,6.9578,7.019,7.0419,7.0419,7.0419,7.0113,6.9655,6.9043,0.0,0.0,0.0,0.0,6.5757,6.7209,6.698,6.6522,6.7133,6.7247,6.7095,6.6483,6.602,6.5513,6.4906,6.4792,6.4585,6.3941,6.3388,0.0,6.1519,6.0697,6.006,5.9581,5.9309,5.9306,5.9608,5.9109,5.8751,5.8751,5.8275,5.8107,5.829,5.8327,5.9024,6.0639,6.0713,6.108,6.1887,0.0,0.0,0.0,0.0,0.0,0.0,0.0,0.0,0.0,0.0,0.0,0.0,0.0,0.0,0.0,0.0,0.0,0.0,0.0,0.0,0.0,0.0,0.0,0.0,0.0,0.0,0.0,0.0,0.0,6.171,6.2653,0.0,0.0,0.0,0.0,6.2748,6.4405,6.6063,6.7668,7.0113,7.1467,7.1489,7.3093,7.3972,7.401,7.4927,7.573,7.6456,7.657,7.7067,7.7831,7.7831,7.6953,7.5442,7.5403,7.4431,7.2864,7.1947,7.0648,6.9273,6.9999,6.9807,6.9234,7.0037,7.0342,7.0342,7.0381,7.0419,7.0419,7.0419,6.9311,6.8012,6.7973,6.6789,0.0,0.0,6.6063,6.5605,6.6522,6.6139,6.549,6.5528,6.5528,6.549,6.5452,6.5161,6.4868,6.483,6.4792,6.4792,6.4754,0.0,6.3186,6.2366,6.0847,5.9536,5.876,5.8984,5.9205,5.9228,5.9181,5.9158,5.9158,5.8437,5.8327,5.9074,5.9148,5.9869,6.1484,6.152,6.1924,6.2707,6.278,0.0,0.0,0.0,0.0,0.0,0.0,0.0,0.0,0.0,0.0,0.0,0.0,0.0,0.0,0.0,0.0,0.0,0.0,0.0,0.0,0.0,0.0,0.0,0.0,0.0,0.0,0.0,0.0,6.4044,6.5186,0.0,6.5454,6.5314,6.5719,6.6865,6.8508,6.996,7.1107,7.252,7.3552,7.4142,7.5233,7.6074,7.6647,7.7487,7.8117,7.8366,7.8901,7.9321,7.9589,7.9054,7.8519,7.7926,7.7335,7.615,7.4584,7.4295,7.317,7.168,7.1947,7.1909,7.168,7.1985,7.1718,7.1221,7.1221,7.0877,7.0419,7.0419,6.9655,6.8623,6.805,6.7133,6.6292,6.6598,6.6063,6.5605,6.6483,6.6063,6.5413,6.5413,6.522,6.5019,6.5019,6.4917,6.4721,6.4407,6.4154,6.395,6.395,6.3472,6.2879,6.2375,6.1069,5.9981,5.9436,5.9286,5.9324,5.9546,5.9334,5.9184,5.9184,5.8474,5.8327,5.9148,5.9184,5.9942,6.152,6.1594,6.2218,6.3613,6.3099,6.3099,0.0,0.0,0.0,0.0,0.0,0.0,0.0,0.0,0.0,0.0,0.0,0.0,0.0,0.0,0.0,0.0,0.0,0.0,0.0,0.0,0.0,0.0,0.0,0.0,0.0,6.3782,6.5758,6.6589,6.8198,6.9099,6.876,6.8738,6.9234,7.0381,7.1756,7.3055,7.4201,7.531,7.6188,7.6779,7.7564,7.8252,7.8825,7.9398,7.9704,7.9704,8.0238,8.0506,8.0468,7.9933,7.9569,7.9263,7.8672,7.764,7.6303,7.6036,7.5233,7.4163,7.3323,7.2979,7.2979,7.2979,7.2444,7.1658,7.1374,7.0877,7.0419,7.0419,6.9846,6.9082,6.8508,6.7553,6.6713,6.6713,6.6292,6.591,6.6178,6.6063,6.5757,6.5452,6.5432,6.531,6.4886,6.4913,6.4766,6.4029,6.393,6.3888,6.3718,6.3331,6.2909,6.255,6.1527,6.0682,6.0305,6.0098,6.0097,6.0381,6.0167,6.0015,6.0015,5.9281,5.9171,5.9979,5.9968,6.053,6.1887,6.1923,6.2583,6.3976,6.3771,6.3943,6.4494,0.0,0.0,0.0,0.0,0.0,0.0,0.0,0.0,0.0,0.0,0.0,0.0,0.0,0.0,0.0,0.0,0.0,0.0,0.0,0.0,0.0,0.0,0.0,6.374,6.6216,6.8394,6.9234,7.1565,7.2444,7.0763,7.061,7.1336,7.3017,7.3934,7.5119,7.6723,7.8404,7.934,7.934,8.0086,8.0506,8.0506,8.0506,8.0506,8.0506,8.0506,8.0506,8.0506,8.0506,8.0047,7.934,7.934,7.8825,7.7984,7.7144,7.6761,7.6456,7.401,7.3093,7.3055,7.3055,7.2482,7.1565,7.0686,7.0419,7.0419,7.0419,6.9846,6.9196,6.9196,6.805,6.6751,6.6713,6.6713,6.6522,6.5643,6.6048,6.6468,6.5589,6.6032,6.6303,6.5055,6.5086,6.5003,6.3803,6.4212,6.4631,6.4136,6.3739,6.3348,6.2966,6.2175,0.0,6.1159,6.1389,6.1594,6.1594,6.1594,6.1594,6.1594,6.086,6.075,6.1557,6.1471,6.1736,6.2567,6.2603,6.2969,6.3785,6.4757,6.5275,6.5275,0.0,0.0,0.0,0.0,0.0,0.0,0.0,0.0,0.0,0.0,0.0,0.0,0.0,0.0,0.0,0.0,0.0,0.0,0.0,0.0,0.0,6.4382,6.523,6.5763,6.9186,7.1909,7.275,7.4507,7.5501,7.5004,7.5539,7.6112,7.6609,7.7946,7.8978,7.9436,7.9895,8.0162,8.0162,8.0391,8.0506,8.0506,8.0506,8.0506,8.0506,8.0506,8.0506,8.0506,8.0506,8.0391,8.0162,8.0162,7.9704,7.8901,7.8672,7.7831,7.657,7.531,7.4813,7.4736,7.4087,7.2941,7.1565,7.0686,7.0419,7.0419,7.0419,6.9846,6.9196,6.9196,6.8432,6.7439,6.6865,6.7133,6.7247,6.5796,6.5814,6.5956,6.5158,6.5106,6.5132,6.478,6.4799,6.4874,6.4795,6.4285,6.3696,6.3238,6.3062,6.294,6.2825,6.2118,6.1569,6.1456,6.1544,6.1594,6.1594,6.1594,6.1594,6.1594,6.0787,6.0604,6.1409,6.132,6.1609,6.2412,6.2449,6.285,6.3653,6.4483,6.4948,0.0,0.0,0.0,0.0,0.0,0.0,0.0,0.0,0.0,0.0,0.0,0.0,0.0,0.0,0.0,0.0,0.0,0.0,0.0,0.0,0.0,0.0,6.6827,6.8699,7.061,7.2711,7.4622,7.615,7.7487,7.829,7.829,7.8748,7.9054,7.9054,7.9933,8.0506,8.0506,8.0506,8.0506,8.0506,8.0506,8.0506,8.0506,8.0506,8.0506,8.0506,8.0506,8.0506,8.0506,8.0506,8.0506,8.0506,8.0506,8.0238,7.978,7.9454,7.871,7.7678,0.0,0.0,0.0,0.0,7.3093,7.2062,7.0839,7.0419,7.0419,7.0419,7.0075,6.9693,6.9693,6.912,6.8356,6.7897,6.7937,6.7821,6.6488,6.644,6.6446,6.5276,6.524,6.5352,6.4813,6.5013,6.5282,6.5294,6.4451,0.0,6.3406,6.3062,6.288,6.3062,6.2549,6.2181,6.2385,6.2217,6.2108,6.2108,6.2108,6.2108,6.2108,6.1544,0.0,0.0,0.0,6.1818,6.2291,6.2646,0.0,0.0,0.0,6.546,6.5825,6.5742,0.0,0.0,6.5241,6.5214,0.0,0.0,0.0,0.0,0.0,0.0,0.0,0.0,0.0,0.0,0.0,0.0,0.0,0.0,0.0,0.0,6.9999,7.3246,7.6532,7.6456,7.6894,7.9187,8.0162,8.0621,8.0506,8.0506,8.0506,8.0506,8.0506,8.0506,8.0506,8.0506,0.0,0.0,0.0,8.0506,8.0506,8.0506,8.0506,8.0506,8.0506,8.0506,8.0506,8.0506,8.0506,8.0506,8.0506,8.0506,8.043,7.9704,7.934,7.8978,7.7335,7.615,7.5157,7.359,7.2941,7.2635,7.0992,0.0,0.0,7.0419,7.0419,7.0419,7.0419,6.9851,6.9224,6.9033,6.8762,6.8338,6.7259,6.7364,6.7353,6.572,6.5999,6.626,6.5162,6.5501,6.5975,6.5625,6.4861,6.4237,6.4347,6.3503,6.2953,6.3354,6.3062,6.2953,6.3354,6.3062,6.278,6.278,6.278,0.0,6.278,6.2702,6.2698,6.2698,6.2536,6.2449,6.2449,6.313,6.3948,6.4858,6.5587,6.6352,6.7154,6.7011,6.699,6.6954,6.6341,6.6534,0.0,0.0,0.0,0.0,0.0,0.0,0.0,0.0,0.0,0.0,0.0,0.0,0.0,0.0,0.0,7.0075,7.2979,7.5692,7.8423,7.9207,7.9704,8.02,8.1041,8.127,8.0582,8.0506,8.0506,8.0506,8.0506,8.0506,8.0506,8.0506,8.0506,8.0506,8.0506,8.0506,8.0506,8.0506,8.0506,8.0506,8.0506,0.0,8.0506,8.0506,8.0506,8.0506,8.0506,8.0506,8.0506,8.0315,7.9474,7.8137,7.7105,7.5768,7.4316,7.3361,7.2559,7.1794,7.0763,7.0419,7.0419,7.0419,7.0419,7.0419,7.0419,7.0064,0.0,6.8048,6.828,6.8466,6.6227,6.6512,6.7049,6.6021,6.616,6.643,6.6217,6.6265,6.657,6.7126,6.6072,6.5264,6.5925,6.4237,6.283,6.2929,6.2855,6.283,6.2929,6.2855,6.278,6.278,6.2705,6.2654,6.2654,6.3017,6.3248,6.3248,6.3702,6.3981,6.3981,6.4126,6.4597,6.5423,6.5605,6.6076,6.6874,6.6845,6.6815,6.6815,6.67,6.7092,0.0,0.0,0.0,0.0,0.0,0.0,0.0,0.0,0.0,0.0,0.0,6.228,6.4382,0.0,6.9196,7.2979,7.5348,7.7487,7.9589,8.0621,8.1003,8.0544,8.0888,8.0964,8.0544,8.0506,8.0506,8.0506,8.0506,8.0506,8.0506,8.0506,8.0506,8.0506,8.0506,8.0506,8.0506,8.0506,8.0506,8.0506,8.0506,8.0506,8.0506,8.0506,8.0506,8.0506,8.0506,8.0506,8.0468,8.0047,7.8901,7.7296,7.6876,7.5692,7.4163,7.3743,7.3055,7.2215,7.1336,7.1068,7.0992,7.0533,7.0419,7.0348,7.0161,7.0109,6.9829,6.8563,6.8621,6.8747,6.7247,6.7168,6.722,6.6383,6.6327,6.6512,6.6512,6.6512,6.6733,6.754,6.6733,6.5888,6.5888,6.453,6.3466,6.3466,6.3099,6.278,6.2705,6.2705,6.2679,6.2603,6.2526,6.25,6.25,6.2656,6.2958,6.3275,6.3619,6.3961,6.4359,6.4396,6.4758,6.5591,6.5591,6.5989,6.6786,6.6786,6.6786,6.6822,6.7221,6.7619,0.0,0.0,0.0,0.0,0.0,0.0,0.0,5.9988,6.079,6.3159,6.3923,6.507,6.8088,7.019,7.2444,7.5501,7.7373,7.8978,8.0315,8.1117,8.1308,8.0582,8.0659,8.0697,8.0506,8.0506,8.0506,8.0506,8.0506,8.0506,8.0506,8.0506,8.0506,8.0506,8.0506,8.0506,8.0506,8.0506,8.0506,8.0506,8.0506,8.0506,8.0506,8.0506,8.0506,8.0506,8.0506,8.0391,8.02,7.936,7.8099,7.6685,7.6532,7.5539,7.4201,7.4201,7.3705,7.2864,7.1985,7.1565,7.1336,7.0648,7.0419,7.0315,7.0019,6.9999,6.9961,6.9114,6.8847,6.8697,6.8184,6.7845,6.754,6.688,6.6733,6.6733,6.6733,6.6733,6.6916,6.7577,6.7173,6.6512,6.5888,6.5055,6.4431,6.4127,6.3477,6.2998,6.3068,6.3053,6.2928,6.2652,6.2745,6.2828,6.2765,6.2539,6.2685,6.3409,6.3418,6.378,6.4577,6.4613,6.5011,6.5808,6.5844,6.6134,6.6786,6.6786,6.6895,6.704,6.7873,6.8235,5.7426,5.6332,5.6167,5.7542,5.7963,5.8803,0.0,6.3083,6.4114,6.591,6.7477,6.9043,7.0916,7.3284,7.5539,7.7411,7.913,8.0277,8.0468,8.0582,8.0621,8.0506,8.1194,8.1347,8.0582,8.0506,8.0506,8.0506,8.0506,8.0506,8.0506,8.0506,8.0506,8.0506,8.0506,8.0506,8.0506,8.0506,8.0506,8.0506,8.0506,8.0506,8.0506,8.0506,8.0506,8.0506,8.0506,8.0086,7.9378,7.8481,7.7564,7.6647,7.5921,7.5042,7.4201,7.4201,7.3705,7.2864,7.1985,7.1183,7.0533,7.0419,7.0419,7.0402,7.0369,6.9796,6.9068,6.8269,6.7956,6.7689,6.6912,6.719,6.7677,6.7577,6.7577,6.7577,6.7577,6.7577,6.7577,6.7677,6.7614,6.754,6.743,6.6626,6.5547,6.431,6.3877,6.392,6.4652,6.4656,6.4256,6.3527,6.3975,6.4338,6.4199,6.3482,6.3446,6.4215,6.4251,6.4613,6.5446,6.5482,6.5844,6.6641,6.6677,6.6714,6.6786,6.6786,6.7184,6.7909,6.8669,6.9098,5.6677,5.6924,5.7734,5.8421,5.972,6.144,6.3809,6.5375,6.698,6.9158,7.0954,7.2681,7.4581,7.6464,7.7987,7.8843,7.9858,8.0506,8.0506,8.0086,7.9589,7.9092,7.936,7.9818,8.043,8.0506,8.0506,8.0506,8.0506,8.0506,8.0506,8.0506,8.0506,8.0506,8.0506,8.0506,8.0506,8.0506,8.0506,8.0506,8.0506,8.0506,8.0506,8.0506,8.0506,8.0468,8.0009,7.9321,7.8481,7.7602,7.6761,7.5959,7.5633,7.5271,7.4966,7.4966,7.4431,7.359,7.275,7.2215,7.1723,7.0469,7.0055,6.9945,6.9388,6.9176,6.8906,6.8034,6.7951,6.7959,6.7353,6.743,6.7687,6.7687,6.7687,6.7687,6.7687,6.7687,6.7687,6.7687,6.7633,6.7432,6.6892,6.6391,6.587,6.5294,6.4729,6.4493,6.474,6.4731,6.453,6.412,6.4319,6.4452,6.4396,6.407,6.4215,6.5048,6.5084,6.5446,6.6279,6.6315,6.646,6.6786,6.6786,6.6786,6.6786,6.6786,6.7221,6.8017,6.8814,6.9461,5.6611,5.7811,5.9338,6.0255,6.2395,6.4764,6.6713,6.8623,7.0648,7.2941,7.4584,7.6137,7.7774,7.8942,7.9686,7.9903,8.0238,8.043,8.02,7.9362,7.837,7.7431,7.6977,7.7302,7.8615,7.9627,8.0238,8.0468,8.0506,8.0506,8.0506,8.0506,8.0506,8.0506,8.0506,8.0506,8.0506,8.0506,8.0506,8.0506,8.0506,8.0506,8.0506,8.0506,8.0506,8.0468,7.9627,7.8787,7.7946,7.7067,7.6227,7.5518,7.5518,7.5518,7.5462,7.5089,7.4496,7.3781,7.3208,7.2605,7.1911,7.0555,6.989,6.9521,6.9042,6.8921,6.8757,6.8084,6.8033,6.8134,6.7794,6.7687,6.7687,6.7687,6.7687,6.7687,6.7687,6.766,6.7633,6.7633,6.7524,6.7232,6.6583,6.6363,6.6288,6.6288,6.575,6.533,6.5274,6.5037,6.4908,6.5076,6.4649,6.4468,6.4722,6.4504,6.4722,6.5555,6.5591,6.6062,6.7112,6.7148,6.7148,6.7148,6.7148,6.7148,6.7148,6.7148,6.7655,6.8669,6.9249,6.9937,0.0,5.8446,5.9911,6.3197,6.5925,6.8394,7.0916,7.3454,7.573,7.7449,7.8519,7.9398,8.022,8.043,8.0468,8.0449,8.0506,8.0238,7.9454,7.8178,7.6938,7.5733,7.4429,7.384,7.4358,7.7373,7.9665,8.043,8.0506,8.0506,8.0506,8.0506,8.0506,8.0506,8.0506,8.0506,8.0506,8.0506,8.0506,8.0506,8.0506,8.0506,8.0506,8.0506,8.0506,8.0468,7.9627,7.8787,7.7946,7.7067,7.6227,7.5518,7.5518,7.5518,7.5351,7.403,7.3325,7.3017,7.3017,7.1647,7.0024,7.0706,7.0125,6.9262,7.0007,6.9392,6.8418,6.8394,6.8058,6.7714,6.7714,6.7687,6.7687,6.7687,6.7687,6.7687,6.7687,6.7579,6.7534,6.7534,6.7359,6.721,6.7174,6.7061,6.6983,6.6983,6.6831,6.6772,6.6917,6.6112,6.5881,6.6641,6.5337,6.4722,6.5482,6.483,6.4722,6.5555,6.5591,6.6315,6.7909,6.7981,6.7981,6.7981,6.7981,6.7981,6.7981,6.7981,6.8778,7.033,7.0335,7.0734,0.0,0.0,6.3019,6.7261,6.9807,7.1947,7.4431,7.657,7.8022,7.7984,7.7335,7.6464,7.5573,7.5894,7.6218,7.5781,7.7647,7.8963,7.8321,7.8144,7.689,7.3688,7.3933,7.3761,7.2206,7.4938,7.7335,7.8748,7.9036,7.9568,8.0449,8.0159,8.0139,8.0506,8.0506,8.0506,8.0506,8.0506,8.0506,8.0506,8.0506,8.0506,8.0506,8.0506,8.02,7.9665,7.8825,7.7946,7.7067,7.6227,7.573,7.5445,7.5114,7.4961,7.4808,7.351,7.2595,7.2003,7.2003,7.1522,7.0842,7.0249,6.978,6.9307,6.8766,6.828,6.7941,6.7941,6.781,6.7797,6.8348,6.8091,6.7834,6.8385,6.8495,6.8467,6.8321,6.8302,6.8429,6.8828,6.8356,6.784,6.784,6.776,6.7461,6.6947,6.6815,6.6815,6.6845,6.6598,6.6496,6.6786,6.6315,6.6098,6.6388,6.6134,6.6351,6.7148,6.7184,6.7655,6.8742,6.8778,6.8561,6.8017,6.8525,6.8525,6.8017,6.8525,6.9321,7.0372,7.0372,7.0806,0.0,6.3719,6.6895,7.0773,7.3284,7.5271,7.7182,7.8481,7.8881,7.7411,7.5997,7.4368,7.2171,7.1997,7.2111,7.1888,7.3492,7.5038,7.5831,7.5359,7.4287,7.2562,7.2439,7.2003,7.0846,7.2754,7.4884,7.688,7.7787,7.868,7.9742,7.9727,7.9958,8.0487,8.0506,8.0506,8.0506,8.0506,8.0506,8.0506,8.0315,8.0335,8.0506,8.02,7.978,7.9225,7.8061,7.7109,7.6408,7.5569,7.5095,7.4941,7.4582,7.4438,7.4299,7.3002,7.1991,7.1228,7.1111,7.0781,7.0298,6.9793,6.9285,6.8897,6.8603,6.8348,6.8201,6.8458,6.8531,6.8678,6.9192,6.8908,6.8596,6.9109,6.92,6.9108,6.8995,6.8938,6.9063,6.9457,6.8982,6.8457,6.8203,6.7824,6.751,6.7257,6.7221,6.7112,6.6858,6.6786,6.6786,6.6786,6.6786,6.6786,6.6786,6.6786,6.7257,6.8343,6.8416,6.8923,6.9973,7.0009,6.9647,6.8887,6.9358,6.9358,6.885,6.9358,7.0009,7.077,7.077,7.106,6.4168,6.777,7.1171,7.3802,7.6265,7.8252,7.9054,7.9169,7.8348,7.5789,7.4396,7.2764,0.0,6.8866,6.8565,6.9077,6.8771,6.9482,7.2545,7.0677,6.9937,7.2445,7.031,6.9073,7.0174,7.1081,7.2604,7.5037,7.6689,7.7867,7.8554,7.927,7.9937,8.0487,8.0506,8.0506,8.0468,8.0411,8.0411,8.0411,7.9916,7.9899,8.0373,7.9609,7.9227,7.9036,7.7393,7.6351,7.5821,7.495,7.4358,7.3934,7.3874,7.3836,7.3654,7.2335,7.1378,7.0636,7.0293,6.9444,6.8605,6.9385,6.8845,6.8164,6.9633,6.9559,6.9119,6.9889,7.011,7.011,7.0146,7.0034,6.9921,6.9994,6.985,6.9734,6.9734,6.9616,6.9497,6.946,6.9298,6.8887,6.8199,6.7402,6.7148,6.7945,6.8054,6.7764,6.6967,6.6858,6.6858,6.6786,6.6786,6.6786,6.6786,6.6786,6.7474,6.9098,6.9207,6.9865,7.1458,7.1494,7.1132,7.0408,7.0444,7.0444,7.0372,7.0444,7.0806,7.1494,7.1494,7.1494,6.7827,7.0778,7.3106,7.7016,7.8481,7.8863,7.8443,7.7131,7.5304,7.2756,6.8811,6.5427,6.4068,6.4633,6.583,6.7328,7.056,7.3438,7.5024,7.5476,7.5023,7.329,0.0,7.3175,7.1616,7.2468,7.337,7.3913,7.5372,7.7117,7.9286,7.9221,7.9516,8.0487,8.0506,8.0315,7.9916,7.9494,7.9335,7.9335,7.9157,7.9078,7.9005,7.8815,7.8017,7.6822,7.6366,7.5553,7.444,7.3612,7.3206,7.301,7.1997,7.1628,7.1467,7.0175,6.9556,6.9289,6.8598,6.8952,6.9704,6.9925,7.0147,7.0367,7.0146,6.9963,6.9853,7.0036,7.011,7.0229,7.0739,7.0352,7.0148,7.1238,7.1404,7.1344,7.126,7.1229,7.0986,7.0283,6.9134,6.8416,6.8814,6.8235,6.7981,6.8778,6.8887,6.8597,6.78,6.7692,6.7474,6.6858,6.6786,6.6786,6.6786,6.6786,6.7474,6.9098,6.9207,6.9865,7.1458,7.1494,7.1132,7.0408,7.0951,7.0951,7.0372,7.0951,7.1313,7.1494,7.1494,7.1494,7.0868,7.3786,7.5939,7.8618,7.9302,7.8805,7.68,7.5167,7.2793,6.822,6.4855,6.2013,5.9701,6.0653,6.2263,6.3857,6.7356,7.086,7.3465,7.4261,7.4561,0.0,7.4644,0.0,7.324,7.3758,7.4226,7.4409,7.5257,7.6532,7.8166,7.8503,7.8964,7.9708,7.9895,7.9811,7.9358,7.8816,7.8665,7.8891,7.824,7.7992,7.8043,7.7289,7.6459,7.5516,7.5242,7.4561,7.3639,7.278,7.2322,7.2037,7.0913,7.0513,7.0386,6.9696,6.9192,6.8862,6.8385,6.8825,6.9559,6.9559,7.011,7.0742,7.0576,7.0511,7.0584,7.0857,7.0938,7.1019,7.1406,7.1384,7.1477,7.2261,7.2642,7.2725,7.2304,7.22,7.1842,7.062,6.9647,6.9068,6.9207,6.8814,6.8778,6.9605,6.975,6.9539,6.9104,6.8742,6.8235,6.7402,6.7329,6.7184,6.6822,6.6786,6.7329,6.8597,6.8669,6.9358,7.0951,7.1024,7.0951,7.0879,7.1277,7.1458,7.1422,7.182,7.2219,7.2545,7.2183,7.2038,7.3635,7.6466,7.8554,7.919,7.9094,7.7949,7.4534,7.2796,7.0019,6.3415,6.1726,6.035,5.6891,5.7509,5.91,6.0819,0.0,6.6349,7.1011,7.1236,7.2181,7.5629,7.4909,7.4352,7.4934,7.4976,7.5207,7.5712,7.5912,7.6149,7.6536,7.7599,7.8352,7.869,7.904,7.9088,7.8791,7.8255,7.82,7.8639,7.7246,7.68,7.7129,7.5596,7.481,7.466,7.4084,7.3579,7.3093,7.224,7.1579,7.1064,7.0367,7.0036,6.9898,6.9926,6.9486,6.8871,6.8871,6.8944,6.9018,6.8908,6.9495,7.0347,7.0872,7.1136,7.1326,7.1865,7.1988,7.1988,7.1957,7.2455,7.3021,7.3093,7.3511,7.374,7.3016,7.2617,7.2001,7.0661,7.033,7.0046,6.9461,6.9388,6.9642,7.0408,7.0553,7.0553,7.0553,6.9859,6.9032,6.8235,6.8162,6.7873,6.7184,6.7112,6.7474,6.8271,6.8343,6.8995,7.048,7.0553,7.0842,7.1494,7.1603,7.2001,7.2726,7.2834,7.3168,7.3721,7.3132,7.2806,7.6506,7.7772,7.8139,7.9329,7.8069,7.562,7.2262,6.8733,0.0,6.1093,5.8066,5.6313,5.6537,5.7427,5.9564,6.414,6.6673,6.9743,7.4558,7.5109,7.5519,0.0,7.6684,7.6476,7.6464,7.6432,7.6441,7.6429,7.6461,7.6773,7.7348,7.7612,7.8026,7.8665,7.8469,7.8282,7.8228,7.7592,7.7335,7.742,7.6338,7.5712,7.5551,7.4616,7.3801,7.3172,7.305,7.2807,7.2393,7.1586,7.0889,7.0293,7.0146,6.9586,6.8851,6.9064,6.8926,6.8668,6.8668,6.9108,6.9648,6.8925,6.973,7.0909,7.0873,7.1325,7.1902,7.1981,7.1988,7.1957,7.1872,7.2398,7.3098,7.3623,7.3812,7.3885,7.374,7.2183,7.0698,7.0444,6.9859,6.9605,7.0082,7.0221,7.0444,7.1205,7.1313,7.1313,7.1313,7.0661,6.9865,6.9068,6.8989,6.8923,6.8808,6.8808,6.9104,6.9901,6.9973,7.0372,7.1277,7.1313,7.1386,7.1494,7.2146,7.2581,7.2726,7.3378,7.3411,7.2937,7.3444,7.3338,7.7927,7.8949,7.8844,7.9371,7.707,7.3608,6.938,0.0,0.0,5.7159,5.5368,5.4558,5.4503,5.6409,5.8947,6.1895,6.4253,6.7376,7.2043,7.2797,7.3653,7.5958,7.6647,7.6902,7.6708,7.6708,7.6643,7.6445,7.6445,7.6607,7.6915,7.7045,7.7346,7.7923,7.7614,7.7222,7.6781,7.6459,7.6308,7.6308,7.491,7.4389,7.4659,7.3413,7.2644,7.2277,7.2365,7.2277,7.2071,7.1267,7.0493,6.9811,6.9372,6.8913,6.8455,6.8109,6.8219,6.8426,6.8016,6.8162,6.8491,6.845,6.9829,7.153,7.135,7.1612,7.1872,7.1775,7.1744,7.1713,7.1656,7.2563,7.3438,7.3305,7.3305,7.3305,7.3305,7.2074,7.0842,7.0444,7.0372,7.0408,7.0372,7.0698,7.1096,7.1458,7.1494,7.1639,7.2074,7.1458,7.0661,6.9932,7.0154,7.0227,6.9859,6.9823,7.0004,7.0403,7.004,7.0118,7.0879,7.1313,7.1712,7.211,7.2907,7.3559,7.3957,7.4356,7.4519,7.4574,7.4108,7.3686,7.8435,7.9556,7.9604,7.9228,7.5969,7.1672,6.6994,6.2924,0.0,5.4333,5.3745,5.3873,5.3237,5.5447,5.7817,0.0,6.1056,6.3951,6.8783,6.9652,7.1158,7.4784,7.5944,0.0,7.6545,7.6548,7.6478,7.6309,7.613,7.613,7.6275,7.6478,7.6773,7.715,7.6929,7.64,7.5598,7.5566,7.5493,7.5279,7.3665,7.3275,7.3856,7.2372,7.1718,7.1718,7.1836,7.1927,7.1921,7.1271,7.0463,6.9544,6.9107,6.8786,6.8539,6.7729,6.8057,6.8757,6.7956,6.7773,6.8036,6.8691,7.0059,7.1453,7.1489,7.1609,7.1723,7.1743,7.1748,7.1748,7.1748,7.2834,7.3704,7.2907,7.2726,7.2653,7.2472,7.1965,7.1386,7.0951,7.1205,7.1422,7.1168,7.135,7.1639,7.1965,7.1857,7.2074,7.2871,7.2436,7.1784,7.1205,7.135,7.135,7.0915,7.0734,7.0698,7.0879,7.0299,7.0227,7.0842,7.1603,7.2327,7.2943,7.3776,7.4468,7.5083,7.5094,7.5356,7.5724,7.4476,7.3791,7.8099,7.9161,7.9519,7.8765,7.4568,6.9665,6.6186,0.0,5.6685,5.5003,5.3849,5.3637,5.4995,5.5212,5.6319,0.0,0.0,6.256,6.8183,6.9493,7.1034,7.4139,0.0,0.0,7.6273,7.6345,7.6345,7.6275,7.5623,7.5551,7.6239,7.6478,7.6614,7.668,7.6773,7.64,7.5598,7.5475,7.5047,7.432,7.3221,7.2794,7.283,7.1961,7.1526,7.1526,7.1526,7.1656,7.1811,7.1738,7.0853,6.9654,7.031,7.0076,6.9229,6.8539,6.9165,7.0284,6.949,6.9672,7.0399,7.0977,7.0495,6.9751,7.0356,7.1019,7.1675,7.24,7.2581,7.2581,7.2581,7.3269,7.3704,7.2907,7.2726,7.2509,7.1784,7.1567,7.1712,7.2364,7.1965,7.1929,7.3342,7.2436,7.2001,7.3486,7.3088,7.2907,7.3704,7.374,7.3667,7.3595,7.2327,7.1784,7.2436,7.182,7.1712,7.2436,7.2436,7.2436,7.2509,7.3269,7.374,7.3812,7.4576,7.5011,7.5083,7.5082,7.4718,7.4033,7.3885,7.3377,7.6693,7.8706,7.9318,7.7797,7.3149,6.8039,6.4369,0.0,5.3958,5.3096,5.2613,5.2615,5.3532,5.4353,5.5455,0.0,0.0,0.0,6.2907,6.3779,6.5761,7.069,7.2403,7.401,7.6128,7.6275,7.6275,7.6275,7.5551,7.5228,7.5551,7.5653,7.5723,7.5723,7.5752,7.5168,7.3861,7.3797,7.3619,7.3293,7.2395,7.2219,7.269,7.1857,7.1277,7.0842,7.0842,7.0874,7.0899,7.0459,6.9909,6.9352,6.9176,6.8892,6.847,6.7724,6.842,6.9661,6.8832,6.9086,6.9884,7.0584,7.047,7.0138,7.0874,7.1277,7.1675,7.2472,7.2726,7.2726,7.2726,7.2581,7.2509,7.2653,7.2327,7.1893,7.1567,7.1893,7.2327,7.2653,7.2834,7.3016,7.316,7.3052,7.3016,7.316,7.3342,7.374,7.4504,7.4211,7.4102,7.454,7.4066,7.3812,7.4138,7.3849,7.3812,7.4138,7.3704,7.345,7.345,7.4211,7.4612,7.4612,7.493,7.5117,7.5117,7.4572,7.4111,7.3799,7.3241,7.2832,7.3586,7.6689,7.8163,7.6218,7.1769,6.6843,0.0,0.0,5.2563,5.2169,5.2033,5.2151,5.2899,5.3944,5.4928,0.0,0.0,5.5848,5.9479,6.0245,6.2281,6.7266,6.9074,7.1252,7.457,7.5732,7.6203,7.5949,7.5442,7.5083,7.5083,7.4866,7.4721,7.4721,7.4721,7.4102,7.2726,7.2726,7.2581,7.2364,7.1784,7.182,7.2327,7.1748,7.1096,7.0372,7.0372,7.0372,7.0366,6.9533,6.9207,6.9134,6.8307,6.8017,6.7909,6.7112,6.78,6.9098,6.8271,6.8525,6.9352,7.0149,7.0372,7.0517,7.1277,7.1494,7.1675,7.2472,7.2871,7.3052,7.3052,7.2472,7.1929,7.2291,7.211,7.1857,7.1857,7.2509,7.3124,7.3378,7.3704,7.3885,7.3776,7.3849,7.3885,7.3776,7.4066,7.4573,7.537,7.4971,7.4826,7.5406,7.5478,7.537,7.5119,7.4866,7.483,7.5083,7.4338,7.3879,7.3879,7.4431,7.4688,7.4688,7.4724,7.4715,7.4715,7.3838,7.3402,7.3402,7.2533,7.2142,6.8425,7.2482,7.5618,7.3947,7.0403,6.6231,0.0,5.6916,5.2986,5.2986,5.2598,5.2696,5.4046,5.4279,5.4647,5.5738,5.5718,0.0,5.9602,6.082,6.2219,6.4421,6.5383,6.7368,7.1168,7.4428,7.5985,7.5155,7.5083,7.5083,7.5083,7.4323,7.3888,7.3888,7.3888,7.3523,7.2726,7.2726,7.2291,7.1531,7.1494,7.1494,7.1531,7.1494,7.1096,7.0372,7.0372,7.0372,7.0366,6.9533,6.9207,6.9134,6.8307,6.8017,6.7909,6.7112,6.78,6.9098,6.8271,6.8525,6.9352,7.0149,7.0372,7.0517,7.1277,7.1494,7.1675,7.2472,7.3269,7.3885,7.3885,7.3305,7.2509,7.1712,7.211,7.269,7.269,7.3342,7.4138,7.4902,7.4464,7.4428,7.5985,7.4935,7.4464,7.6022,7.5587,7.5406,7.6167,7.6275,7.6275,7.6275,7.6275,7.5985,7.5155,7.4359,7.425,7.5047,7.4329,7.3904,7.3904,7.384,7.3838,7.3838,7.3799,7.3799,7.3799,7.2914,7.2533,7.249,7.1688,7.1312,6.3351,6.6086,6.7539,6.6253,6.3853,6.0969,5.7611,5.4425,5.2242,5.2462,5.2205,5.2435,5.4013,5.4296,5.4497,5.507,5.5057,0.0,0.0,0.0,6.0205,6.4001,6.8512,7.1816,7.3016,7.4066,7.4573,7.4319,7.3776,7.3486,7.3486,7.2726,7.2509,7.3088,7.3088,7.2472,7.1132,7.1132,7.0698,6.9901,6.9901,6.9901,6.9901,6.9901,6.9502,6.8742,6.8742,6.8742,6.8706,6.7873,6.7873,6.8307,6.751,6.7184,6.7148,6.6895,6.7474,6.8343,6.809,6.8525,6.9352,7.0149,7.0372,7.0517,7.1277,7.1494,7.1784,7.316,7.3704,7.403,7.4576,7.4138,7.3486,7.3197,7.3342,7.3523,7.3523,7.4142,7.4793,7.5047,7.5334,7.5515,7.5515,7.5515,7.5515,7.5515,7.5732,7.6022,7.6275,7.5829,7.5584,7.5864,7.5119,7.4939,7.5846,7.5182,7.4832,7.5083,7.4322,7.3835,7.3835,7.3815,7.3685,7.3532,7.2996,7.2624,7.2422,7.1542,7.0895,7.0421,6.9682,6.9615,0.0,6.1349,6.2617,6.1578,5.9938,0.0,5.5204,5.3019,5.1601,5.1793,5.1903,5.2375,5.3599,5.4091,5.4385,5.4697,5.4731,5.4933,5.5327,5.6964,5.9575,6.3565,6.8301,7.135,7.1639,7.2762,7.345,7.345,7.3269,7.3016,7.2726,7.1929,7.1603,7.182,7.182,7.1241,6.9968,6.9968,6.9714,6.9207,6.9207,6.9207,6.9207,6.9207,6.8742,6.8017,6.8017,6.8017,0.0,6.7148,6.7293,6.7945,6.7112,6.6786,6.6786,6.6786,6.7112,6.7547,6.7547,6.7873,6.8416,6.9213,6.9901,7.0517,7.1277,7.1494,7.1784,7.3088,7.3667,7.403,7.4504,7.4468,7.425,7.3993,7.4106,7.4323,7.4323,7.5008,7.5551,7.5551,7.5949,7.613,7.5659,7.5985,7.613,7.5623,7.5713,7.5795,7.5724,7.4937,7.4529,7.4716,7.3998,7.3959,7.501,7.4716,7.4416,7.434,7.3527,7.3044,7.3044,7.2749,7.2464,7.2337,7.1814,7.1488,7.1321,7.0489,6.9745,6.9087,6.892,6.9087,0.0,0.0,0.0,0.0,0.0,0.0,0.0,5.2397,0.0,5.1026,5.1632,5.2378,5.2935,5.3712,5.4328,5.4505,5.4697,5.511,5.5861,5.7874,6.0332,6.3057,6.5532,6.7221,6.7873,7.0661,7.2472,7.2472,7.3197,7.3305,7.2509,7.182,7.106,7.0227,7.0227,6.9865,6.9134,6.9134,6.9098,6.9026,6.9026,6.9026,6.9026,6.8989,6.8561,6.7909,6.7873,6.7873,6.7873,6.7112,6.7257,6.7836,6.7112,6.6786,6.6786,6.6786,6.6786,6.6786,6.6786,6.6786,6.6931,6.7764,6.9104,7.0517,7.1205,7.1458,7.1675,7.2545,7.3342,7.3957,7.4066,7.4612,7.4974,7.4247,7.4645,7.5192,7.5192,7.5768,7.6275,7.6275,7.6275,7.6275,7.6208,7.6208,7.6174,7.614,7.5478,7.49,7.4643,7.3846,7.3252,7.309,7.2968,7.2927,7.2927,7.3171,7.3212,7.3009,7.221,7.1727,7.1727,7.0906,7.0469,7.0469,7.0469,7.0423,7.0469,6.9766,6.9109,6.8439,6.9075,6.9365,0.0,0.0,0.0,0.0,0.0,0.0,0.0,0.0,5.1434,5.1133,5.1192,5.1741,5.3043,5.3581,5.3801,5.3888,5.4112,5.4558,5.5336,5.9365,6.2468,6.3147,6.6453,6.8235,6.7184,6.885,7.0009,7.0009,7.077,7.0879,7.0046,7.0408,7.0009,6.8597,6.8561,6.8488,6.8271,6.8271,6.7981,6.7366,6.7366,6.7366,6.7329,6.6714,6.6677,6.704,6.6424,6.6496,6.7076,6.6895,6.6931,6.7076,6.6858,6.6786,6.6786,6.6786,6.6786,6.6786,6.6786,6.6786,6.6931,6.7764,6.9104,7.0439,7.0589,7.106,7.182,7.3233,7.3776,7.4211,7.5406,7.5877,7.5985,7.5768,7.5877,7.6022,7.6022,7.6167,7.6275,7.6275,7.6275,7.6106,7.5513,7.5371,7.5155,7.4492,7.4037,7.3768,7.3729,7.2804,7.2295,7.2589,7.1727,7.1187,7.1331,7.1867,7.2167,7.2125,7.1277,7.0803,7.0803,7.0608,7.0423,7.027,7.0082,6.9988,6.9988,6.9257,6.8792,6.8626,6.8227,6.836,0.0,0.0,0.0,0.0,0.0,0.0,0.0,0.0,0.0,5.0499,5.0775,5.122,5.1917,5.2369,5.2686,5.2665,5.2992,5.3955,5.5998,5.9299,6.2223,6.407,6.5881,6.7221,6.7836,6.8343,6.8778,6.9171,6.9605,6.9678,6.9243,6.8887,6.8343,6.7474,6.675,6.6533,6.6895,6.6895,6.6496,6.57,6.57,6.57,6.5663,6.5229,6.5301,6.57,6.5627,6.5844,6.6279,6.6641,6.6786,6.6786,6.6786,6.6786,6.6786,6.6786,6.6786,6.6786,6.6786,6.6786,6.6931,6.7764,6.885,6.9932,7.0294,7.0915,7.1675,7.2545,7.3342,7.4102,7.4971,7.5732,7.6275,7.6275,7.6275,7.6275,7.6275,7.6275,7.6275,7.6275,7.6003,7.562,7.5155,7.4677,7.4152,7.3685,7.305,7.2638,7.2478,7.165,7.1131,7.1277,7.062,7.0236,7.0343,7.0678,7.0872,7.0872,7.0436,7.019,7.019,7.019,7.0129,7.0035,6.9893,6.9633,6.9268,6.8871,6.8539,6.8208,6.8142,6.8307,0.0,0.0,5.0364,5.0262,4.9803,4.9439,0.0,0.0,0.0,4.9762,5.0386,5.0804,5.0424,5.1131,5.1758,5.1725,5.2485,5.4133,5.7303,5.9124,6.139,6.4649,6.4867,6.5736,6.8229,6.8054,6.809,6.8778,6.8845,6.8808,6.8663,6.7366,6.6569,6.646,6.512,6.4649,6.5229,6.5374,6.5084,6.4396,6.4396,6.4396,6.4396,6.4251,6.4287,6.4432,6.4975,6.5301,6.5482,6.6279,6.6533,6.646,6.6714,6.6714,6.6641,6.675,6.6786,6.6786,6.6786,6.6786,6.6931,6.7619,6.8452,6.9352,7.004,7.0806,7.1494,7.1494,7.2653,7.3957,7.4066,7.5189,7.6275,7.6275,7.6275,7.6242,7.614,7.6106,7.6072,7.5933,7.5371,7.4861,7.4677,7.3842,7.3171,7.2968,7.2167,7.1464,7.1253,7.062,7.0035,6.9846,6.9798,6.9798,6.9798,6.9798,6.9798,6.9798,6.9798,6.9798,6.9798,6.9798,6.9798,6.9798,6.9798,6.9467,6.8871,6.8871,6.8539,6.7976,6.8572,6.8871,5.0283,5.0558,5.0671,5.0047,4.9803,4.9655,4.9439,0.0,0.0,0.0,5.0101,5.0367,5.0263,5.1555,5.2643,5.2737,5.5066,5.7423,5.9041,6.1235,6.2621,6.2585,6.4867,6.6098,6.5229,6.6243,6.704,6.7148,6.7184,6.6858,6.617,6.5917,6.5482,6.4794,6.4504,6.4106,6.3563,6.4215,6.4504,6.4396,6.4396,6.4396,6.4359,6.3671,6.3744,6.4359,6.3816,6.3925,6.4649,6.5446,6.5374,6.4903,6.6279,6.6388,6.5881,6.6569,6.6786,6.6786,6.6786,6.6786,6.6822,6.6931,6.7981,6.9243,6.9352,7.0372,7.1494,7.1494,7.2653,7.4033,7.4721,7.5623,7.6275,7.6275,7.6275,7.6106,7.5406,7.5263,7.5082,7.4302,7.4072,7.3721,7.279,7.2498,7.2065,7.1086,7.0666,7.0423,7.0376,7.0082,6.9846,6.9798,6.9798,6.9798,6.9798,6.9798,6.9798,6.9798,6.9798,6.9798,6.9798,6.9798,6.9798,6.9798,6.9798,6.9732,6.9633,6.9633,6.9566,6.9467,6.9566,6.9633,5.0283,5.043,5.0531,5.0378,5.0018,4.9587,4.899,4.8978,0.0,0.0,4.9948,5.0319,5.0218,5.1441,5.2785,5.3843,5.6309,5.8442,5.946,6.0919,6.2259,6.32,6.4613,6.5374,6.5084,6.6098,6.646,6.5555,6.5917,6.5808,6.4975,6.4541,6.4106,6.3744,6.3345,6.2947,6.2549,6.2911,6.3092,6.3092,6.3092,6.3092,6.3092,6.273,6.2766,6.3128,6.3164,6.3418,6.3816,6.4613,6.4722,6.4504,6.57,6.5917,6.57,6.6496,6.6786,6.6786,6.6786,6.6786,6.6786,6.6786,6.7873,6.9207,6.9207,7.0263,7.1431,7.1009,7.2362,7.3895,7.3818,7.4721,7.5513,7.5046,7.4973,7.4863,7.4489,7.4414,7.4299,7.3878,7.3322,7.2749,7.2279,7.162,7.094,7.041,7.0129,6.9988,6.9988,6.9893,6.9798,6.9798,6.9798,6.9798,6.9798,6.9798,6.9798,6.9798,6.9798,6.9798,6.9798,6.9798,6.9798,6.9798,6.9798,6.9798,6.9798,6.9798,6.9798,6.9798,6.9798,6.9798,5.0283,5.0376,5.0469,5.0525,5.0081,4.9583,4.9491,4.9289,4.9342,5.0114,5.0609,5.0858,5.0631,5.1801,5.3396,5.5314,5.7481,5.9253,6.005,6.0846,6.2041,6.3889,6.4287,6.4649,6.5265,6.5881,6.5736,6.4468,6.4794,6.4758,6.4142,6.3345,6.2838,6.2621,6.2223,6.1906,6.1725,6.1725,6.1797,6.1978,6.1978,6.1978,6.1978,6.1978,6.1978,6.2014,6.2657,6.2911,6.2983,6.378,6.3997,6.3925,6.4939,6.5446,6.57,6.6496,6.6786,6.6786,6.6786,6.6786,6.6786,6.6786,6.7638,6.8672,6.8889,6.9737,7.0626,7.0232,7.1686,7.3214,7.2585,7.3472,7.4427,7.392,7.3799,7.3721,7.3482,7.3442,7.3362,7.3078,7.2329,7.1796,7.1752,7.0849,7.0176,7.0082,6.9941,6.9798,6.9798,6.9798,6.9798,6.9798,6.9798,6.9798,6.9798,6.9798,6.9798,6.9798,6.9798,6.9798,6.9798,6.9798,6.9798,6.9798,6.9798,6.9798,6.9798,6.9964,6.9964,6.9798,6.9964,7.0063,5.0283,5.057,5.0691,4.9958,4.9529,4.9851,5.184,5.1603,5.1398,5.3107,5.2918,5.2307,5.1851,5.3383,5.5364,5.746,5.9393,6.0892,6.1688,6.2512,6.3092,6.3273,6.3925,6.4432,6.4468,6.4541,6.4504,6.4396,6.3744,6.3345,6.3273,6.2512,6.1725,6.0991,6.1616,6.1616,6.0892,6.0892,6.1254,6.1978,6.1978,6.1978,6.1978,6.1978,6.1978,6.1978,6.205,6.2087,6.2123,6.2947,6.2838,6.2331,6.3889,6.4939,6.57,6.6496,6.6786,6.6786,6.6786,6.6786,6.6786,6.6786,6.6937,6.7186,6.7871,6.8217,6.8468,6.9099,7.0472,7.1669,7.1593,7.2226,7.2999,7.3624,7.3799,7.3522,7.2533,7.2321,7.1978,7.094,7.0699,7.0561,7.0363,7.027,7.0082,6.9893,6.9798,6.9798,6.9798,6.9798,6.9798,6.9798,6.9798,6.9798,6.9798,6.9798,6.9798,6.9798,6.9798,6.9798,6.9798,6.9798,6.9798,6.9798,6.9798,6.9798,6.9798,7.0494,7.0461,6.9798,7.0494,7.0825,5.0175,5.0291,5.0426,5.0534,4.9868,4.9571,5.1065,5.0976,5.0945,5.2316,5.3007,5.3418,5.377,5.4771,5.6176,5.7959,5.9673,6.1281,6.2549,6.3019,6.3382,6.3889,6.4215,6.4178,6.3708,6.4106,6.3997,6.2983,6.2621,6.2259,6.1716,6.0955,6.0375,6.0086,6.0375,6.0375,6.0086,6.005,6.0231,6.052,6.1,6.1507,6.1978,6.1471,6.1254,6.1254,6.1254,6.1254,6.1317,6.2114,6.2295,6.2087,6.32,6.4432,6.5627,6.5953,6.6388,6.6786,6.6786,6.6786,6.6727,6.6264,6.6455,6.6952,6.7229,6.7694,6.8144,6.8392,6.8864,6.9524,7.0461,7.1642,7.2485,7.2082,7.2013,7.1839,7.1266,7.1131,7.103,7.0608,7.041,7.027,7.0223,7.0035,6.9941,6.9798,6.9798,6.9798,6.9798,6.9798,6.9798,6.9798,6.9798,6.9798,6.9798,6.9798,6.9798,6.9798,6.9798,6.9798,6.9798,6.9798,7.003,7.0461,7.0494,7.0693,7.1156,7.1455,7.1455,7.1156,7.1455,7.1587,5.0012,4.9758,4.9705,5.0279,4.9768,4.9528,5.1094,5.124,5.1588,5.3559,5.4255,5.4664,5.5208,5.5704,5.6536,5.813,5.976,6.1281,6.2621,6.2585,6.273,6.3563,6.3418,6.3056,6.2512,6.3164,6.2983,6.1362,6.1471,6.1254,6.0484,5.9905,5.947,5.9253,5.947,5.947,5.9216,5.9216,5.9361,5.9615,5.9905,6.0484,6.1218,6.0955,6.081,6.0783,6.11,6.1181,6.1218,6.1761,6.1978,6.2087,6.2875,6.4033,6.5229,6.5518,6.5981,6.6488,6.671,6.6515,6.6052,6.5785,6.5774,6.5893,6.6109,6.6586,6.7014,6.7147,6.7495,6.8104,6.9328,7.0464,7.1215,7.0872,7.0779,7.0733,7.0456,7.041,7.0376,7.0283,7.0176,7.0082,7.0082,6.9941,6.9798,6.9798,6.9798,6.9798,6.9798,6.9798,6.9798,6.9798,6.9798,6.9798,6.9798,6.9798,6.9798,6.9798,6.9798,6.9798,6.9798,6.9798,7.0129,7.0891,7.0891,7.1256,7.2018,7.225,7.2216,7.2018,7.225,7.2349,4.9707,4.905,4.8485,4.8883,4.908,4.9806,5.2512,5.2944,5.3859,5.7601,5.708,5.5993,5.5993,5.5993,5.65,5.813,5.9724,6.1037,6.1833,6.1317,6.1073,6.1869,6.1254,6.0783,6.0783,6.1507,6.1326,5.9724,6.0339,6.0448,5.9651,5.9579,5.9216,5.842,5.918,5.918,5.8383,5.8383,5.8782,5.9579,5.8782,5.8818,5.9651,6.0448,6.0774,6.0846,6.1616,6.1978,6.1978,6.1978,6.1978,6.2087,6.2875,6.3671,6.4468,6.5265,6.561,6.5768,6.6521,6.5811,6.4706,6.5444,6.4703,6.3669,6.4356,6.4571,6.4708,6.5278,6.644,6.7709,6.8183,6.8473,6.9009,7.0226,7.0515,7.0423,7.0223,7.0209,7.0129,6.9846,6.9798,6.9798,6.9798,6.9798,6.9798,6.9798,6.9798,6.9798,6.9798,6.9798,6.9798,6.9798,6.9798,6.9798,6.9798,6.9798,6.9798,6.9798,6.9798,6.9798,6.9798,6.9798,7.0163,7.0891,7.0924,7.1289,7.2018,7.2746,7.2746,7.2051,7.278,7.3111,4.8996,4.874,4.8644,4.9037,4.9826,5.1102,5.3408,5.3266,0.0,5.6126,5.5921,5.5377,5.5884,5.5993,5.6319,5.7369,5.842,5.9398,6.0194,6.0122,6.005,6.0303,6.0122,5.9977,5.9977,6.0194,6.0122,5.9651,5.9289,5.8999,5.8782,5.8202,5.7804,5.755,5.7804,5.7804,5.755,5.755,5.7695,5.7913,5.7659,5.8275,5.9615,5.9253,5.9434,5.9977,6.0231,6.0629,6.1181,6.1761,6.1978,6.1987,6.1738,6.2436,6.3478,6.277,6.3155,6.4131,6.44,6.4207,6.3865,6.4074,6.3852,6.3558,6.3777,6.4085,6.4536,6.5236,6.6311,6.7311,6.7324,6.8147,6.9194,7.0083,7.027,7.0223,6.9988,6.9941,6.9893,6.9798,6.9798,6.9798,6.9798,6.9798,6.9798,6.9798,6.9798,6.9798,6.9798,6.9798,6.9798,6.9798,6.9798,6.9798,6.9798,6.9798,6.9798,6.9798,6.9798,6.9798,6.9798,7.0295,7.0924,7.1653,7.2183,7.2813,7.3541,7.374,7.374,7.3541,7.374,7.384,4.8867,4.8453,4.8209,4.9019,5.0102,5.157,5.399,5.4719,5.5269,5.667,5.6355,5.6066,5.679,5.6428,5.6355,5.7478,5.8094,5.8673,5.9506,5.9325,5.9253,5.9579,5.9325,5.9108,5.9108,5.9434,5.9325,5.8709,5.8492,5.813,5.7478,5.7297,5.7043,5.6717,5.7043,5.7188,5.7188,5.7188,5.7188,5.7188,5.7188,5.7695,5.8637,5.8492,5.8673,5.9144,5.947,5.9868,6.0412,6.1208,6.1507,6.1489,6.1142,6.1752,6.2673,6.1608,6.1747,6.2587,6.2959,6.2857,6.2676,6.2956,6.3045,6.3034,6.2928,6.3559,6.4412,6.4984,6.6052,6.7146,6.7521,6.8273,6.9071,6.9503,6.9836,6.9988,6.9846,6.9798,6.9798,6.9798,6.9798,6.9798,6.9798,6.9798,6.9798,6.9798,6.9798,6.9798,6.9798,6.9798,6.9798,6.9798,6.9798,6.9798,6.9798,6.9798,6.9798,6.9798,6.9798,6.9931,7.0229,7.0659,7.1388,7.2415,7.2879,7.3442,7.4221,7.4221,7.4221,7.4221,7.4221,7.4221,4.899,4.8181,4.7611,4.8959,5.0188,5.1794,5.4495,5.6754,5.8275,5.8202,5.7659,5.7406,5.8166,5.708,5.6573,5.8058,5.8275,5.8528,5.918,5.8637,5.8456,5.918,5.8565,5.813,5.8275,5.8818,5.8601,5.7188,5.7695,5.7442,5.5957,5.6573,5.6681,5.6029,5.6645,5.7007,5.708,5.708,5.708,5.708,5.7152,5.7188,5.7224,5.7949,5.8347,5.8456,5.9253,5.9651,5.976,6.0448,6.072,6.082,6.0805,6.1283,6.1905,6.1149,6.0943,6.1082,6.1839,6.1667,6.1293,6.2071,6.2341,6.2302,6.2138,6.3101,6.4287,6.46,6.5769,6.7188,6.8221,6.8572,6.8672,6.8606,6.9202,6.9798,6.9798,6.9798,6.9798,6.9798,6.9798,6.9798,6.9798,6.9798,6.9798,6.9798,6.9798,6.9798,6.9798,6.9798,6.9798,6.9798,6.9798,6.9798,6.9798,6.9798,6.9798,6.9798,6.9798,7.0163,7.0958,7.0991,7.1653,7.3078,7.3177,7.3508,7.4221,7.4221,7.4221,7.4221,7.4221,7.4221,4.7649,4.8075,4.883,4.9184,5.1668,5.4446,5.6271,5.708,5.7261,5.6645,5.6862,5.7261,5.7442,5.7188,5.7043,5.7406,5.7442,5.7297,5.6826,5.6609,5.6573,5.6754,5.6102,5.6138,5.7333,5.6536,5.6029,5.6247,5.5884,5.5522,5.516,5.5305,5.5595,5.5993,5.5595,5.5667,5.6247,5.6247,5.6247,5.6247,5.6899,5.7188,5.7188,5.7369,5.7804,5.8456,5.9253,5.9977,6.052,6.005,6.0286,6.0847,5.9729,5.9765,6.0308,5.9082,5.8941,5.9426,5.9645,5.9915,6.0353,6.1666,6.1951,6.1964,6.2494,6.3133,6.3909,6.4514,6.6002,6.7393,6.7049,6.7844,6.8539,6.7976,6.8837,6.9798,6.9798,6.9798,6.9798,6.9798,6.9798,6.9798,6.9798,6.9798,6.9798,6.9798,6.9798,6.9798,6.9798,6.9798,6.9798,6.9798,6.9798,6.9798,6.9798,6.9798,6.9798,6.9798,6.9798,7.0394,7.172,7.1753,7.2183,7.3078,7.3674,7.4005,7.4221,7.4221,7.4221,7.4221,7.4221,7.4221,4.7717,4.8049,4.8938,5.0003,5.2304,5.4653,5.5848,5.6102,5.5993,5.5558,5.6391,5.708,5.6681,5.6609,5.6609,5.6609,5.6319,5.6066,5.5993,5.5703,5.5486,5.5486,5.5124,5.5233,5.6029,5.5377,5.5051,5.545,5.5124,5.4725,5.4363,5.4689,5.4907,5.4907,5.4907,5.5088,5.5486,5.5486,5.5486,5.5486,5.6247,5.6826,5.7188,5.7188,5.7442,5.784,5.8275,5.8517,5.8637,5.8601,5.8701,5.8804,5.8482,5.8609,5.8861,5.8144,5.8065,5.8314,5.8321,5.89,5.975,6.0522,6.122,6.1803,6.249,6.3099,6.3805,6.474,6.6045,6.7082,6.7003,6.7612,6.8175,6.8142,6.8705,6.9368,6.9699,6.9798,6.9798,6.9798,6.9798,6.9798,6.9798,6.9798,6.9798,6.9798,6.9798,6.9798,6.9798,6.9798,6.9798,6.9798,6.9798,6.9798,6.9798,6.9798,6.9798,6.9798,6.9798,7.0461,7.1951,7.2018,7.2515,7.3608,7.3972,7.4221,7.4221,7.4221,7.4221,7.4221,7.4586,7.4553,4.8031,4.8028,4.8839,5.1064,5.2526,5.3748,5.4689,5.4907,5.4907,5.4907,5.5921,5.6609,5.5921,5.5812,5.5812,5.5812,5.5305,5.5051,5.5522,5.5088,5.4689,5.4689,5.4581,5.4581,5.487,5.4653,5.4544,5.4689,5.4581,5.4218,5.353,5.411,5.4255,5.3711,5.4218,5.4544,5.4689,5.4689,5.4689,5.4689,5.5558,5.6355,5.7007,5.7152,5.7188,5.7188,5.7188,5.6953,5.6561,5.7088,5.6985,5.6593,5.7311,5.76,5.7672,5.7793,5.7735,5.7588,5.7551,5.8375,5.9455,5.9588,6.0558,6.168,6.2283,6.2973,6.3796,6.4906,6.5856,6.6651,6.7235,6.7466,6.7777,6.8374,6.8606,6.8904,6.9633,6.9798,6.9798,6.9798,6.9798,6.9798,6.9798,6.9798,6.9798,6.9798,6.9798,6.9798,6.9798,6.9798,6.9798,6.9798,6.9798,6.9798,6.9798,6.9798,6.9798,6.9798,6.9931,7.0593,7.1951,7.2117,7.2813,7.4188,7.4221,7.4221,7.4221,7.4221,7.4221,7.4255,7.4984,7.4933,4.7124,4.7974,4.974,5.2148,5.2731,5.3059,5.4581,5.4907,5.4907,5.4907,5.5051,5.516,5.5088,5.5051,5.5051,5.5051,5.4979,5.4689,5.411,5.3929,5.3856,5.3856,5.3241,5.3385,5.4762,5.3639,5.3096,5.382,5.3204,5.277,5.2661,5.277,5.3096,5.3675,5.3132,5.3168,5.3856,5.3856,5.3856,5.3892,5.5305,5.6066,5.6174,5.6862,5.7188,5.7188,5.7188,5.7241,5.7303,5.6704,5.6552,5.666,5.6736,5.685,5.6974,5.7465,5.7625,5.7588,5.7402,5.8146,5.9358,5.9991,6.0628,6.1302,6.2031,6.2761,6.3481,6.4343,6.5492,6.6552,6.6606,6.7102,6.7599,6.7698,6.8241,6.8904,6.9633,6.9798,6.9798,6.9798,6.9798,6.9798,6.9798,6.9798,6.9798,6.9798,6.9798,6.9798,6.9798,6.9798,6.9798,6.9798,6.9798,6.9798,6.9798,6.9798,6.9798,6.9798,7.0394,7.1123,7.1985,7.2614,7.3343,7.4188,7.4221,7.4221,7.4221,7.4221,7.4221,7.4255,7.4984,7.5231,4.6701,4.7481,4.8839,4.9789,5.0925,5.2009,5.2733,5.3241,5.3566,5.3566,5.3566,5.3675,5.4146,5.4218,5.4218,5.4218,5.3856,5.3603,5.3675,5.3313,5.3023,5.3023,5.2733,5.277,5.3494,5.2915,5.2661,5.2987,5.2697,5.248,5.248,5.248,5.2661,5.3023,5.2661,5.2661,5.3023,5.3023,5.3241,5.3711,5.4399,5.516,5.5993,5.6355,5.6602,5.6688,5.6688,5.6316,5.5734,5.5354,5.5119,5.4972,5.5314,5.5688,5.6113,5.6749,5.707,5.7252,5.7176,5.7953,5.9126,5.9385,6.024,6.1251,6.1989,6.2453,6.2951,6.4111,6.4829,6.5425,6.579,6.6452,6.7115,6.7466,6.8175,6.8904,6.9633,6.9798,6.9798,6.9798,6.9798,6.9798,6.9798,6.9798,6.9798,6.9798,6.9798,6.9798,6.9798,6.9798,6.9798,6.9798,6.9798,6.9798,6.9798,6.9798,6.9964,7.0394,7.0726,7.1421,7.2581,7.2945,7.3442,7.4221,7.4221,7.4221,7.4221,7.4221,7.442,7.4851,7.5529,7.586,4.6236,4.6946,4.8011,4.7834,4.9313,5.0816,5.0945,5.1466,5.19,5.19,5.19,5.2082,5.2661,5.3132,5.3385,5.3385,5.2878,5.2697,5.3313,5.2878,5.248,5.248,5.248,5.248,5.248,5.248,5.248,5.248,5.248,5.248,5.248,5.248,5.248,5.248,5.248,5.248,5.248,5.248,5.2806,5.3385,5.3603,5.4399,5.5703,5.5735,5.5881,5.609,5.6229,5.5572,5.4391,5.4359,5.3945,5.3518,5.4395,5.4964,5.5427,5.6298,5.6783,5.6987,5.6949,5.7698,5.8634,5.8833,5.9761,6.0953,6.1682,6.2188,6.2752,6.4034,6.4498,6.4796,6.5525,6.6254,6.6904,6.7466,6.8307,6.9103,6.9666,6.9798,6.9798,6.9798,6.9798,6.9798,6.9798,6.9798,6.9798,6.9798,6.9798,6.9798,6.9798,6.9798,6.9798,6.9798,6.9798,6.9798,6.9798,6.9964,7.0295,7.0858,7.1256,7.1951,7.3045,7.3276,7.3641,7.4221,7.4221,7.4221,7.4221,7.442,7.4734,7.5297,7.6192,7.6589,4.5444,4.6557,4.7873,4.8028,4.8749,4.9528,5.0069,5.0184,5.022,5.022,5.022,5.0257,5.0293,5.1538,5.2552,5.2552,5.2516,5.2516,5.2552,5.2516,5.248,5.248,5.248,5.248,5.248,5.248,5.248,5.248,5.248,5.248,5.248,5.248,5.248,5.248,5.248,5.248,5.248,5.248,5.2516,5.2552,5.3349,5.4146,5.4955,5.5076,5.5261,5.549,5.6063,5.5572,5.4391,5.4166,5.3781,5.3313,5.4584,5.5082,5.528,5.65,5.6992,5.6987,5.6796,5.7249,5.7972,5.8668,5.9429,6.0191,6.0953,6.2113,6.3372,6.4167,6.4862,6.5525,6.6254,6.7016,6.7533,6.7566,6.8705,6.9732,6.9765,6.9798,6.9798,6.9798,6.9798,6.9798,6.9798,6.9798,6.9798,6.9798,6.9798,6.9798,6.9798,6.9798,6.9798,6.9798,6.9798,6.9798,6.9798,7.0428,7.0858,7.0891,7.2216,7.3045,7.3111,7.3773,7.4188,7.4221,7.4221,7.4221,7.4221,7.4867,7.5231,7.5297,7.6722,7.7351,4.4729,4.5696,4.6954,4.6836,4.7277,4.8055,4.9305,4.9443,4.9474,5.0003,5.0112,5.0112,5.0112,5.056,5.1104,5.1647,5.1719,5.19,5.2408,5.248,5.248,5.248,5.248,5.248,5.248,5.248,5.248,5.248,5.248,5.248,5.248,5.248,5.248,5.248,5.248,5.248,5.248,5.248,5.248,5.248,5.277,5.3349,5.4122,5.4261,5.4371,5.4454,5.4765,5.4388,5.3617,5.3382,5.3213,5.3074,5.3507,5.4205,5.4965,5.5425,5.6112,5.6796,5.6719,5.7475,5.8535,5.88,5.9728,6.0755,6.102,6.1781,6.2851,6.4001,6.4498,6.4995,6.622,6.7036,6.7877,6.8804,6.9401,6.9798,6.9798,6.9798,6.9798,6.9798,6.9798,6.9798,6.9798,6.9798,6.9798,6.9798,6.9798,6.9798,6.9798,6.9798,6.9798,6.9798,6.9798,6.9798,6.9798,7.0461,7.109,7.1587,7.2548,7.331,7.3773,7.4089,7.4221,7.4221,7.4221,7.4221,7.4221,7.4487,7.5032,7.596,7.6457,7.7219,4.4909,0.0,0.0,4.5984,4.6298,4.6985,4.7877,4.8134,4.8369,4.8807,4.9112,4.9293,4.9293,4.9293,4.9655,5.0728,5.0909,5.1067,5.1611,5.1683,5.1683,5.1683,5.1683,5.1792,5.2082,5.2082,5.219,5.248,5.248,5.248,5.248,5.248,5.248,5.248,5.248,5.248,5.248,5.248,5.248,5.248,5.248,5.2821,5.3387,5.3547,5.3613,5.3589,5.3665,5.3449,5.3076,5.2868,5.2799,5.2866,5.3263,5.3956,5.4745,5.5244,5.5966,5.668,5.668,5.7475,5.8568,5.8833,5.9728,6.0788,6.102,6.1947,6.3216,6.4332,6.5028,6.569,6.6916,6.7612,6.8274,6.95,6.9798,6.9798,6.9798,6.9798,6.9798,6.9798,6.9798,6.9798,6.9798,6.9798,6.9798,6.9798,6.9798,6.9798,6.9798,7.003,7.0063,6.9831,7.003,7.0163,7.0163,7.0858,7.1587,7.2316,7.3045,7.3674,7.4188,7.4221,7.4221,7.4221,7.4221,7.4221,7.4221,7.4487,7.5032,7.596,7.6192,7.7119,0.0,0.0,0.0,4.5646,4.5919,4.6347,4.581,4.6302,4.6754,4.6565,4.712,4.7663,4.7699,4.7699,4.8206,4.9785,5.0075,5.0075,5.0112,5.0112,5.0112,5.0112,5.0112,5.0401,5.1176,5.1285,5.1611,5.2371,5.248,5.248,5.248,5.248,5.248,5.248,5.248,5.248,5.248,5.248,5.248,5.248,5.248,5.2582,5.2753,5.2921,5.2973,5.2938,5.291,5.2868,5.2868,5.2659,5.2589,5.272,5.3967,5.4456,5.4692,5.6117,5.668,5.668,5.6713,5.721,5.7939,5.8701,5.9429,6.0191,6.0887,6.2643,6.4531,6.5227,6.644,6.7777,6.8506,6.8672,6.8837,6.9599,6.9798,6.9798,6.9798,6.9798,6.9798,6.9798,6.9798,6.9798,6.9798,6.9798,6.9798,6.9798,6.9798,6.9798,6.9798,7.0428,7.0593,6.9864,7.0428,7.0891,7.0891,7.1587,7.2316,7.3045,7.3773,7.4221,7.4221,7.4221,7.4221,7.4221,7.4221,7.4221,7.4221,7.49,7.5264,7.5297,7.6026,7.7185,4.6861,0.0,0.0,0.0,0.0,0.0,4.5931,4.5572,4.5404,4.6311,4.6685,4.7011,4.7569,4.7699,4.7844,4.8279,4.8858,4.9438,5.0039,5.0112,5.0112,5.0112,5.0112,5.0184,5.0401,5.0959,5.114,5.0778,5.1828,5.2226,5.1647,5.219,5.248,5.248,5.248,5.248,5.248,5.248,5.248,5.248,5.248,5.2294,5.1968,5.2501,5.2453,5.1933,5.2471,5.2624,5.2551,5.248,5.2445,5.2544,5.3367,5.4063,5.4589,5.5587,5.6249,5.6779,5.7309,5.7972,5.8701,5.9463,6.0191,6.0854,6.1053,6.2643,6.4531,6.5227,6.644,6.7777,6.8506,6.8307,6.8241,6.95,6.9798,6.9798,6.9798,6.9798,6.9798,6.9798,6.9798,6.9798,6.9798,6.9798,6.9798,6.9798,6.9798,6.9798,6.9798,6.9964,7.003,6.9798,6.9964,7.0328,7.0858,7.1587,7.2316,7.3045,7.3773,7.4221,7.4221,7.4221,7.4221,7.4221,7.4221,7.4221,7.4221,7.442,7.4818,7.533,7.7086,7.8676,0.0,0.0,0.0,0.0,0.0,0.0,4.5588,4.5161,4.4839,4.5388,4.578,4.6142,4.6613,4.6975,4.7192,4.7192,4.788,4.8568,4.9039,4.9112,4.9112,4.9112,4.9112,4.922,4.9582,5.0017,5.0234,5.0112,5.1285,5.1937,5.1792,5.2226,5.248,5.248,5.248,5.248,5.248,5.248,5.2434,5.2317,5.2186,5.1736,5.0991,5.1888,5.1867,5.1086,5.2165,5.2518,5.2409,5.2409,5.2409,5.2473,5.35,5.4092,5.4622,5.5686,5.6316,5.6746,5.7177,5.8005,5.8966,5.9396,6.0258,6.1152,6.145,6.3073,6.4962,6.5657,6.7148,6.8639,6.9036,6.8837,6.8738,6.9599,6.9798,6.9798,6.9798,6.9798,6.9798,6.9798,6.9798,6.9798,6.9798,6.9798,6.9798,6.9798,6.9798,6.9798,6.9798,7.0063,7.0129,6.9831,7.0361,7.0891,7.1322,7.2051,7.278,7.3508,7.3939,7.4221,7.4221,7.4221,7.4221,7.4221,7.4221,7.4387,7.4686,7.4387,7.4701,7.5761,7.8279,7.9869,0.0,0.0,0.0,0.0,4.6561,0.0,4.5169,4.4999,4.4829,4.4359,4.4788,4.5276,4.5526,4.6069,4.654,4.6613,4.7228,4.7699,4.7699,4.7699,4.7699,4.7699,4.7699,4.7968,4.8692,4.8837,4.9184,4.9785,5.0633,5.1502,5.2299,5.2444,5.248,5.248,5.248,5.2457,5.241,5.2387,5.2209,5.192,5.1576,5.0947,5.0086,5.1214,5.1244,5.0492,5.1956,5.2516,5.2409,5.2409,5.2409,5.2542,5.3964,5.449,5.4655,5.615,5.668,5.6713,5.6779,5.774,5.8899,5.8999,5.996,6.1218,6.1848,6.357,6.5492,6.6485,6.8175,6.9699,6.9765,6.9732,6.9699,6.9765,6.9798,6.9798,6.9798,6.9798,6.9798,6.9798,6.9798,6.9798,6.9798,6.9798,6.9798,6.9798,6.9798,6.9798,6.9798,7.0361,7.056,6.9964,7.109,7.1951,7.2117,7.2713,7.3409,7.4155,7.4288,7.4354,7.4354,7.437,7.442,7.4354,7.4354,7.4652,7.5264,7.4752,7.5165,7.6622,7.9405,8.073,0.0,0.0,0.0,4.8176,4.7838,0.0,4.5637,4.5223,4.5247,4.5352,4.5002,4.5182,4.6907,4.683,4.6721,4.7373,4.7627,4.7699,4.7699,4.7699,4.7699,4.7699,4.7699,4.7751,4.7916,4.8511,4.8692,4.8206,4.951,5.0691,5.1466,5.2154,5.248,5.248,5.248,5.2293,5.1786,5.1615,5.1276,5.0813,5.0589,5.0146,4.959,5.0816,5.1053,5.0492,5.1851,5.2409,5.2409,5.2409,5.2409,5.2542,5.3964,5.449,5.4655,5.615,5.668,5.6779,5.7376,5.8171,5.8999,5.9595,6.039,6.1119,6.1285,6.2842,6.5094,6.7579,6.8572,6.9036,6.9633,6.9334,6.9036,6.9666,6.9798,6.9798,6.9798,6.9798,6.9798,6.9798,6.9798,6.9798,6.9798,6.9798,6.9798,6.9798,6.9798,6.9798,6.9798,6.9931,7.0196,7.0626,7.0924,7.1587,7.278,7.3045,7.3409,7.4155,7.4785,7.5116,7.5116,7.5595,7.5628,7.5116,7.5116,7.5132,7.5264,7.5695,7.6655,7.8113,7.9869,8.0995,4.9412,4.949,4.9415,4.8964,4.8514,0.0,0.0,4.5898,4.5414,4.5861,4.4945,4.4526,4.5894,4.6107,4.6194,4.6452,4.7192,4.7699,4.7699,4.7699,4.7699,4.7699,4.7699,4.7699,4.7699,4.804,4.8294,4.8294,4.9039,5.0017,5.1212,5.1683,5.2082,5.248,5.248,5.2209,5.1601,5.1378,5.0964,5.0328,4.9982,4.9546,4.9107,5.0313,5.066,5.039,5.1779,5.2409,5.2409,5.2409,5.2572,5.3003,5.4096,5.449,5.4655,5.615,5.668,5.6812,5.7541,5.827,5.9032,5.9761,6.0523,6.1185,6.155,6.3438,6.5989,6.8539,6.9235,6.9334,6.9699,6.9533,6.9334,6.9699,6.9798,6.9798,6.9798,6.9798,6.9798,6.9798,6.9798,6.9798,6.9798,6.9798,6.9798,6.9798,6.9798,6.9798,6.9798,6.9798,7.0063,7.0825,7.1223,7.1885,7.3011,7.3442,7.3939,7.4719,7.4785,7.5032,7.5761,7.543,7.5264,7.5264,7.5264,7.5827,7.6887,7.7616,7.8345,7.9107,8.0929,8.1989,4.9412,4.9602,4.9678,4.9527,4.9077,4.8543,0.0,0.0,0.0,4.6433,4.5241,4.4368,4.515,4.5607,4.5729,4.5349,4.6649,4.7591,4.7301,4.7518,4.7699,4.7699,4.7699,4.7699,4.7699,4.7823,4.8134,4.8619,4.8967,4.9619,5.0778,5.114,5.1529,5.2087,5.2268,5.1957,5.1209,5.1043,5.0535,4.9727,4.9312,4.9018,4.8813,4.9893,5.039,5.0485,5.181,5.2409,5.2407,5.2539,5.2904,5.35,5.4192,5.4589,5.4854,5.6216,5.668,5.6812,5.7541,5.827,5.9032,5.9761,6.0589,6.1483,6.2345,6.4432,6.6949,6.9003,6.9666,6.9798,6.9798,6.9798,6.9798,6.9798,6.9798,6.9798,6.9798,6.9798,6.9798,6.9798,6.9798,6.9798,6.9798,6.9798,6.9798,6.9798,6.9798,6.9798,6.9798,6.9798,7.0129,7.1024,7.1653,7.2349,7.3243,7.384,7.4487,7.5032,7.4686,7.49,7.6059,7.5132,7.4867,7.5463,7.5761,7.6755,7.8511,7.9537,8.0034,8.0101,8.1989,8.2883,4.9327,5.0016,5.0391,4.9678,4.994,5.0016,4.8483,0.0,4.7806,4.7648,0.0,4.621,4.7477,0.0,0.0,4.5417,4.6649,4.7192,4.578,4.6794,4.7699,4.7699,4.7699,4.7699,4.7699,4.833,4.8511,4.7859,4.9148,4.9727,4.9199,5.0524,5.1079,5.0639,5.1318,5.1105,4.9833,4.9693,4.9222,4.8386,4.8227,4.8463,4.9061,4.9857,5.0586,5.1249,5.2009,5.2409,5.2475,5.3036,5.3334,5.35,5.4192,5.4887,5.5549,5.6382,5.668,5.6812,5.7541,5.827,5.9032,5.9761,6.092,6.2354,6.3746,6.526,6.685,6.8374,6.9301,6.9798,6.9798,6.9798,6.9798,6.9798,6.9798,6.9798,6.9798,6.9798,6.9798,6.9798,6.9798,6.9798,6.9798,6.9798,6.9798,6.9798,6.9798,6.9798,6.9798,6.9798,7.0328,7.172,7.1951,7.2548,7.3939,7.4155,7.4255,7.4354,7.4884,7.5231,7.5397,7.5827,7.6092,7.6192,7.7484,7.8279,7.8511,8.0564,8.1558,8.1558,8.2486,8.2883,4.8855,4.9237,4.9385,4.905,4.9338,4.9529,4.8819,4.8406,4.8295,4.8712,0.0,0.0,0.0,0.0,0.0,0.0,4.6975,4.7482,4.6794,4.7265,4.7699,4.7699,4.7699,4.7699,4.7699,4.8004,4.804,4.7735,4.8315,4.8749,4.8873,4.9676,5.0175,5.0399,5.0835,5.0589,4.96,4.9492,4.9012,4.8195,4.8066,4.8398,4.9127,4.9889,5.0585,5.1348,5.2111,5.2409,5.244,5.3135,5.3665,5.4129,5.4821,5.5317,5.5681,5.6415,5.6945,5.7442,5.8171,5.8933,5.9661,6.039,6.1616,6.3116,6.4531,6.5989,6.7479,6.8904,6.9566,6.9798,6.9798,6.9798,6.9798,6.9798,6.9798,6.9798,6.9798,6.9798,6.9798,6.9798,6.9798,6.9798,6.9798,6.9798,6.9798,6.9798,6.9798,6.9798,6.9798,6.9798,7.0361,7.1852,7.2018,7.2581,7.4038,7.4221,7.442,7.48,7.5496,7.5695,7.5297,7.5927,7.6523,7.6954,7.798,7.8941,7.9769,8.1128,8.2022,8.2453,8.2751,8.2883,4.8569,4.8901,4.9159,4.8735,4.8916,4.9168,4.8945,4.8762,4.876,4.9171,4.8195,0.0,0.0,0.0,0.0,0.0,0.0,4.7554,4.712,4.7409,4.7699,4.7699,4.7699,4.7787,4.8004,4.8004,4.8004,4.8004,4.8004,4.8257,4.8873,4.9088,4.9506,5.014,5.0338,5.0061,4.9308,4.9161,4.8765,4.813,4.8265,4.8696,4.9425,5.0187,5.0883,5.1647,5.2177,5.2473,5.2705,5.3434,5.4162,5.4854,5.562,5.5918,5.5984,5.6481,5.7044,5.7608,5.8568,5.9529,6.039,6.0953,6.2212,6.3802,6.5028,6.6585,6.8175,6.9434,6.9798,6.9798,6.9798,6.9798,6.9798,6.9798,6.9798,6.9798,6.9798,6.9798,6.9798,6.9798,6.9798,6.9798,6.9798,6.9798,6.9798,6.9798,6.9798,6.9798,6.9798,6.9964,7.0593,7.1852,7.2183,7.2813,7.4122,7.4221,7.4367,7.4752,7.5738,7.5799,7.4608,7.5878,7.6796,7.7169,7.8449,7.954,8.0461,8.1556,8.2184,8.2338,8.2713,8.2883,4.8716,4.975,5.0563,4.8975,4.9178,4.9547,4.8771,4.9215,4.9547,4.879,4.8934,4.8956,4.8224,0.0,0.0,0.0,0.0,0.0,0.0,4.6721,4.7699,4.7699,4.7699,4.8004,4.8764,4.8837,4.8837,4.8837,4.8837,4.8873,4.8909,4.9088,4.9298,4.9513,4.9623,4.9278,4.8547,4.8356,4.8163,4.8001,4.873,4.9458,5.0187,5.0916,5.168,5.2376,5.2409,5.2771,5.3434,5.4162,5.4887,5.5615,5.6382,5.6647,5.6647,5.668,5.6713,5.6912,5.8403,5.986,6.1086,6.1086,6.2577,6.4465,6.5194,6.6949,6.8804,6.9566,6.9798,6.9798,6.9798,6.9798,6.9798,6.9798,6.9798,6.9798,6.9798,6.9798,6.9798,6.9798,6.9798,6.9798,6.9798,6.9798,6.9798,6.9798,6.9798,6.9798,6.9798,7.0428,7.1156,7.1918,7.2647,7.3376,7.4155,7.4221,7.3976,7.3523,7.5233,7.5221,7.2826,7.5712,7.7148,7.6645,7.9287,8.0405,7.9853,8.1886,8.219,8.0988,8.228,8.2883,4.9648,4.9997,5.0143,4.9086,4.9139,4.926,4.8453,4.9047,4.9547,4.8753,4.8988,4.9045,4.826,0.0,0.0,0.0,0.0,0.0,0.0,4.7373,4.7699,4.7699,4.7699,4.7808,4.8076,4.8113,4.8113,4.8113,4.8113,4.8113,4.8113,4.8473,4.8719,4.8785,4.8958,4.8892,4.8515,4.8292,4.8396,4.873,4.8995,4.9756,5.0916,5.1216,5.1713,5.2407,5.287,5.3202,5.35,5.4688,5.535,5.5648,5.6415,5.668,5.668,5.668,5.7309,5.8369,5.9827,6.0688,6.1185,6.1649,6.3272,6.5194,6.5922,6.7678,6.9467,6.9732,6.9798,6.9798,6.9798,6.9798,6.9798,6.9798,6.9798,6.9798,6.9798,6.9798,6.9798,6.9798,6.9798,6.9798,6.9798,6.9798,6.9798,6.9798,7.0196,7.0361,6.9864,7.0858,7.172,7.1985,7.268,7.3409,7.4155,7.4686,7.4502,7.3469,7.5233,7.5592,7.3981,7.6668,7.8081,7.8014,7.939,8.0008,7.9768,8.0985,8.1343,8.0928,8.228,8.2883,5.0184,5.0329,5.0307,4.9546,4.9225,4.9008,4.8518,4.8936,4.9258,4.8434,4.8733,4.8919,4.8117,0.0,0.0,0.0,0.0,0.0,0.0,4.7699,4.7699,4.7699,4.7699,4.7787,4.8076,4.788,4.7844,4.8113,4.7859,4.7844,4.8113,4.8305,4.8513,4.8758,4.8728,4.8644,4.8515,4.826,4.8464,4.9094,4.9392,5.0121,5.1315,5.158,5.2075,5.2771,5.3235,5.3732,5.4262,5.5185,5.5747,5.6051,5.6514,5.668,5.668,5.668,5.7608,5.9065,6.0291,6.0887,6.1218,6.1947,6.3471,6.5227,6.622,6.7877,6.9401,6.9401,6.9599,6.9732,6.9467,6.9599,6.9798,6.9798,6.9798,6.9798,6.9798,6.9798,6.9798,6.9798,6.9798,6.9798,6.9798,6.9798,6.9798,6.9798,7.0196,7.0328,6.9864,7.109,7.2018,7.2018,7.2879,7.3674,7.4188,7.4672,7.4461,7.3201,7.4765,7.5,7.3352,7.6015,7.829,7.9974,7.9432,7.9822,8.1392,8.1044,8.0417,7.9531,8.1843,8.2656]}]]